Darstellungsparameter: Aktuell verwendete Einstellungen:
Skalierung der Graphiken ... ?
xyx+y,   Skalierungsfaktor:      Skalierung: Modus: x, Faktor: 1
Darstellungszeitraum ... ?
Vom - - bis: - -   Zeitraum: 09.12.2019 - 06.01.2020
Min/Max/Avg-Anzeige ... ?
Zeige MMA aktuell
Zeige MMA Monat
Zeige MMA alles
Zeige --A aktuell
Zeige --A Monat
Zeige --A alles
Keine MMA-Anzeige
MMA:
Average (ber die Originaldaten)
MMA-Basis: 09.12.2019 - 06.01.2020
Quicknavigation für Darstellung... ?
Tage:      1T, 2T, 3T, 5T -1T -2T -3T -5T +1T +2T +3T +5T
Wochen: 1W, 2W, 3W -1W -2W -3W +1W +2W +3W
Monate: 1M, 3M, 6M -1M -3M -6M +1M +3M +6M
Jahre:    1J, 3J, 5J, 10J -1J -3J -5J -10J +1J +3J +5J +10J
Nutze für die Darstellung ... ?
Originaldaten oder Mittelwerte auf ...
Stundenbasis Tagesbasis Wochenbasis
Monatsbasis Jahresbasis      Datenbasis: Original-Daten
Darstellen als:
Statistik (Auto) Statistik J:M      Darstellung:
Zur Graphik,    zurück zur Übersicht aller Sensoren.
 
Tabellarische Datenbersicht: ?
 
Sensor: Nr:Datum:Temp:Feuchte:
Aussen-T/F 1 09-12-2019 00:01:18 8.7 C 20 %
2 09-12-2019 00:11:18 8.1 C 21 %
3 09-12-2019 00:21:17 8.4 C 21 %
4 09-12-2019 00:31:17 8.4 C 21 %
5 09-12-2019 00:41:17 8.5 C 20 %
6 09-12-2019 00:51:17 8.4 C 20 %
7 09-12-2019 01:01:17 8.4 C 20 %
8 09-12-2019 01:11:17 8.5 C 20 %
9 09-12-2019 01:21:18 8.1 C 20 %
10 09-12-2019 01:31:17 8 C 20 %
11 09-12-2019 01:41:17 8.3 C 20 %
12 09-12-2019 01:51:17 8.2 C 20 %
13 09-12-2019 02:01:17 7.8 C 20 %
14 09-12-2019 02:11:17 7.6 C 20 %
15 09-12-2019 02:21:17 7.4 C 21 %
16 09-12-2019 02:31:18 7.4 C 21 %
17 09-12-2019 02:41:18 7.1 C 23 %
18 09-12-2019 02:51:18 7.5 C 20 %
19 09-12-2019 03:01:17 7.5 C 20 %
20 09-12-2019 03:11:17 7.5 C 20 %
21 09-12-2019 03:21:17 7.5 C 20 %
22 09-12-2019 03:31:17 7.3 C 20 %
23 09-12-2019 03:41:17 6.8 C 23 %
24 09-12-2019 03:51:17 7.3 C 21 %
25 09-12-2019 04:01:17 7.3 C 20 %
Sensor: Nr:Datum:Temp:Feuchte:
Aussen-T/F 26 09-12-2019 04:11:17 7.9 C 20 %
27 09-12-2019 04:21:18 8 C 20 %
28 09-12-2019 04:31:18 7.6 C 20 %
29 09-12-2019 04:41:18 7.4 C 21 %
30 09-12-2019 04:51:17 6.9 C 25 %
31 09-12-2019 05:01:17 6.9 C 25 %
32 09-12-2019 05:11:17 7.4 C 20 %
33 09-12-2019 05:21:17 7.5 C 20 %
34 09-12-2019 05:31:17 7.4 C 20 %
35 09-12-2019 05:41:18 7.1 C 20 %
36 09-12-2019 05:51:17 7.2 C 20 %
37 09-12-2019 06:01:17 7.4 C 20 %
38 09-12-2019 06:11:17 7.4 C 20 %
39 09-12-2019 06:21:17 7.4 C 20 %
40 09-12-2019 06:31:17 7.6 C 20 %
41 09-12-2019 06:41:17 7.8 C 20 %
42 09-12-2019 06:51:18 7.7 C 20 %
43 09-12-2019 07:01:17 7.6 C 20 %
44 09-12-2019 07:11:18 7.5 C 20 %
45 09-12-2019 07:21:17 7.2 C 20 %
46 09-12-2019 07:31:17 7.2 C 20 %
47 09-12-2019 07:41:17 7.6 C 20 %
48 09-12-2019 07:51:18 7.5 C 20 %
49 09-12-2019 08:01:17 7.9 C 20 %
50 09-12-2019 08:11:17 7.8 C 20 %
Sensor: Nr:Datum:Temp:Feuchte:
Aussen-T/F 51 09-12-2019 08:21:17 7.9 C 20 %
52 09-12-2019 08:31:17 8 C 20 %
53 09-12-2019 08:41:17 7.9 C 20 %
54 09-12-2019 08:51:17 7.9 C 20 %
55 09-12-2019 09:01:17 7.8 C 20 %
56 09-12-2019 09:11:17 7.9 C 20 %
57 09-12-2019 09:21:17 7.5 C 20 %
58 09-12-2019 09:31:17 7.4 C 23 %
59 09-12-2019 09:41:17 7.5 C 21 %
60 09-12-2019 09:51:17 7.7 C 21 %
61 09-12-2019 10:01:17 7.9 C 21 %
62 09-12-2019 10:11:17 7.9 C 21 %
63 09-12-2019 10:21:17 7.9 C 20 %
64 09-12-2019 10:31:18 7.9 C 21 %
65 09-12-2019 10:41:18 7.9 C 21 %
66 09-12-2019 10:51:17 8.1 C 20 %
67 09-12-2019 11:01:17 8 C 20 %
68 09-12-2019 11:11:17 8.2 C 20 %
69 09-12-2019 11:21:17 8.4 C 20 %
70 09-12-2019 11:31:18 8.4 C 20 %
71 09-12-2019 11:41:18 8.3 C 20 %
72 09-12-2019 11:51:17 8.1 C 20 %
73 09-12-2019 12:01:17 8.2 C 20 %
74 09-12-2019 12:11:17 8 C 20 %
75 09-12-2019 12:21:18 8.1 C 20 %
Sensor: Nr:Datum:Temp:Feuchte:
Aussen-T/F 76 09-12-2019 12:31:17 8.3 C 20 %
77 09-12-2019 12:41:17 8.2 C 20 %
78 09-12-2019 12:51:17 8.3 C 20 %
79 09-12-2019 13:01:18 8.3 C 20 %
80 09-12-2019 13:11:18 8.3 C 20 %
81 09-12-2019 13:21:17 8.2 C 20 %
82 09-12-2019 13:31:17 8.1 C 20 %
83 09-12-2019 13:41:17 8.5 C 20 %
84 09-12-2019 13:51:17 8.8 C 20 %
85 09-12-2019 14:01:17 8.6 C 20 %
86 09-12-2019 14:11:17 8.5 C 20 %
87 09-12-2019 14:21:17 8.6 C 20 %
88 09-12-2019 14:31:17 8.4 C 20 %
89 09-12-2019 14:41:17 7.9 C 20 %
90 09-12-2019 14:51:18 8.4 C 20 %
91 09-12-2019 15:01:17 7.9 C 20 %
92 09-12-2019 15:11:17 7.3 C 25 %
93 09-12-2019 15:21:17 7 C 27 %
94 09-12-2019 15:31:18 7.1 C 26 %
95 09-12-2019 15:41:18 7.1 C 25 %
96 09-12-2019 15:51:17 7.4 C 23 %
97 09-12-2019 16:01:18 7.5 C 20 %
98 09-12-2019 16:11:18 7.5 C 20 %
99 09-12-2019 16:21:17 7.6 C 20 %
100 09-12-2019 16:31:18 7.3 C 20 %
Sensor: Nr:Datum:Temp:Feuchte:
Aussen-T/F 101 09-12-2019 16:41:18 7.4 C 20 %
102 09-12-2019 16:51:17 7.3 C 20 %
103 09-12-2019 17:01:18 7.1 C 20 %
104 09-12-2019 17:11:18 7.2 C 20 %
105 09-12-2019 17:21:17 6.7 C 25 %
106 09-12-2019 17:31:17 6.1 C 32 %
107 09-12-2019 17:41:17 5.9 C 36 %
108 09-12-2019 17:51:17 6 C 34 %
109 09-12-2019 18:01:18 6 C 30 %
110 09-12-2019 18:11:18 6.1 C 31 %
111 09-12-2019 18:21:17 6 C 33 %
112 09-12-2019 18:31:17 5.8 C 35 %
113 09-12-2019 18:41:17 5.7 C 37 %
114 09-12-2019 18:51:18 5.7 C 38 %
115 09-12-2019 19:01:17 5.6 C 35 %
116 09-12-2019 19:11:17 5.5 C 38 %
117 09-12-2019 19:21:17 5.6 C 39 %
118 09-12-2019 19:31:17 5.6 C 38 %
119 09-12-2019 19:41:17 5.6 C 38 %
120 09-12-2019 19:51:17 5.6 C 37 %
121 09-12-2019 20:01:17 5.6 C 35 %
122 09-12-2019 20:11:17 5.6 C 34 %
123 09-12-2019 20:21:17 5.6 C 35 %
124 09-12-2019 20:31:17 5.6 C 32 %
125 09-12-2019 20:41:17 5.4 C 33 %
Sensor: Nr:Datum:Temp:Feuchte:
Aussen-T/F 126 09-12-2019 20:51:17 5.3 C 34 %
127 09-12-2019 21:01:17 5.2 C 33 %
128 09-12-2019 21:11:18 5.1 C 34 %
129 09-12-2019 21:21:17 5.2 C 35 %
130 09-12-2019 21:31:17 5.3 C 32 %
131 09-12-2019 21:41:17 5.1 C 31 %
132 09-12-2019 21:51:17 5 C 31 %
133 09-12-2019 22:01:17 4.8 C 32 %
134 09-12-2019 22:11:17 4.7 C 31 %
135 09-12-2019 22:21:17 4.9 C 30 %
136 09-12-2019 22:31:17 4.9 C 30 %
137 09-12-2019 22:41:17 4.9 C 30 %
138 09-12-2019 22:51:18 4.7 C 30 %
139 09-12-2019 23:01:17 4.6 C 29 %
140 09-12-2019 23:11:17 4.5 C 29 %
141 09-12-2019 23:21:17 4.1 C 30 %
142 09-12-2019 23:31:18 4 C 30 %
143 09-12-2019 23:41:18 4.1 C 29 %
144 09-12-2019 23:51:17 4.1 C 29 %
145 10-12-2019 00:01:17 3.7 C 30 %
146 10-12-2019 00:11:17 4.1 C 28 %
147 10-12-2019 00:21:17 3.4 C 30 %
148 10-12-2019 00:31:17 3.6 C 30 %
149 10-12-2019 00:41:17 3.1 C 31 %
150 10-12-2019 00:51:17 3 C 31 %
Sensor: Nr:Datum:Temp:Feuchte:
Aussen-T/F 151 10-12-2019 01:01:17 2.4 C 33 %
152 10-12-2019 01:11:17 2.4 C 36 %
153 10-12-2019 01:21:17 2.5 C 36 %
154 10-12-2019 01:31:18 2.8 C 34 %
155 10-12-2019 01:41:18 2.4 C 34 %
156 10-12-2019 01:51:17 2.4 C 33 %
157 10-12-2019 02:01:18 2.7 C 33 %
158 10-12-2019 02:11:18 2.9 C 32 %
159 10-12-2019 02:21:17 2.3 C 33 %
160 10-12-2019 02:31:17 2.1 C 35 %
161 10-12-2019 02:41:17 1.7 C 37 %
162 10-12-2019 02:51:17 1.6 C 39 %
163 10-12-2019 03:01:17 1.8 C 40 %
164 10-12-2019 03:11:17 1.8 C 40 %
165 10-12-2019 03:21:17 1.8 C 40 %
166 10-12-2019 03:31:17 2 C 40 %
167 10-12-2019 03:41:17 1.4 C 41 %
168 10-12-2019 03:51:17 1.4 C 43 %
169 10-12-2019 04:01:17 1.1 C 43 %
170 10-12-2019 04:11:17 1.3 C 41 %
171 10-12-2019 04:21:17 0.6 C 41 %
172 10-12-2019 04:31:18 0.6 C 44 %
173 10-12-2019 04:41:18 0.7 C 45 %
174 10-12-2019 04:51:17 0.9 C 46 %
175 10-12-2019 05:01:17 1.1 C 44 %
Sensor: Nr:Datum:Temp:Feuchte:
Aussen-T/F 176 10-12-2019 05:11:17 1.8 C 41 %
177 10-12-2019 05:21:18 2.2 C 35 %
178 10-12-2019 05:31:18 2 C 35 %
179 10-12-2019 05:41:18 2 C 35 %
180 10-12-2019 05:51:17 1.8 C 36 %
181 10-12-2019 06:01:17 1.5 C 36 %
182 10-12-2019 06:11:17 1.6 C 37 %
183 10-12-2019 06:21:18 1.4 C 36 %
184 10-12-2019 06:31:17 1.1 C 38 %
185 10-12-2019 06:41:17 0.9 C 42 %
186 10-12-2019 06:51:17 1.2 C 42 %
187 10-12-2019 07:01:18 1.3 C 40 %
188 10-12-2019 07:11:18 1.5 C 40 %
189 10-12-2019 07:21:17 1.7 C 36 %
190 10-12-2019 07:31:17 1.2 C 37 %
191 10-12-2019 07:41:17 0.8 C 41 %
192 10-12-2019 07:51:17 0.8 C 41 %
193 10-12-2019 08:01:17 0.7 C 41 %
194 10-12-2019 08:11:17 0.8 C 41 %
195 10-12-2019 08:21:17 0.4 C 42 %
196 10-12-2019 08:31:18 0.6 C 42 %
197 10-12-2019 08:41:18 0.4 C 42 %
198 10-12-2019 08:51:17 0.4 C 43 %
199 10-12-2019 09:01:17 0.1 C 42 %
200 10-12-2019 09:11:17 0.5 C 44 %
Sensor: Nr:Datum:Temp:Feuchte:
Aussen-T/F 201 10-12-2019 09:21:17 0.8 C 44 %
202 10-12-2019 09:31:17 1.4 C 42 %
203 10-12-2019 09:41:17 1.7 C 39 %
204 10-12-2019 09:51:17 1.8 C 39 %
205 10-12-2019 10:01:17 2.2 C 36 %
206 10-12-2019 10:11:17 2.5 C 35 %
207 10-12-2019 10:21:17 2.7 C 33 %
208 10-12-2019 10:31:17 2.7 C 33 %
209 10-12-2019 10:41:17 2.5 C 33 %
210 10-12-2019 10:51:17 2.4 C 35 %
211 10-12-2019 11:01:17 2.4 C 34 %
212 10-12-2019 11:11:17 2.5 C 34 %
213 10-12-2019 11:21:17 2.3 C 35 %
214 10-12-2019 11:31:18 2.2 C 36 %
215 10-12-2019 11:41:18 2.9 C 34 %
216 10-12-2019 11:51:17 3.5 C 30 %
217 10-12-2019 12:01:17 3.7 C 30 %
218 10-12-2019 12:11:17 3.8 C 30 %
219 10-12-2019 12:21:17 3.9 C 30 %
220 10-12-2019 12:31:17 3.9 C 30 %
221 10-12-2019 12:41:17 4.3 C 27 %
222 10-12-2019 12:51:17 4.5 C 27 %
223 10-12-2019 13:01:17 4.6 C 27 %
224 10-12-2019 13:11:17 4.7 C 27 %
225 10-12-2019 13:21:17 4.7 C 27 %
Sensor: Nr:Datum:Temp:Feuchte:
Aussen-T/F 226 10-12-2019 13:31:17 4.9 C 27 %
227 10-12-2019 13:41:17 5.1 C 25 %
228 10-12-2019 13:51:17 5 C 25 %
229 10-12-2019 14:01:17 4.6 C 27 %
230 10-12-2019 14:11:17 4.2 C 28 %
231 10-12-2019 14:21:17 3.8 C 30 %
232 10-12-2019 14:31:18 3.9 C 30 %
233 10-12-2019 14:41:18 3.8 C 30 %
234 10-12-2019 14:51:17 3.5 C 30 %
235 10-12-2019 15:01:17 3.5 C 30 %
236 10-12-2019 15:11:17 3.3 C 31 %
237 10-12-2019 15:21:17 3.2 C 31 %
238 10-12-2019 15:31:17 3.1 C 31 %
239 10-12-2019 15:41:18 3.2 C 31 %
240 10-12-2019 15:51:17 2.9 C 31 %
241 10-12-2019 16:01:17 2.4 C 32 %
242 10-12-2019 16:11:17 3.1 C 31 %
243 10-12-2019 16:21:17 3.4 C 30 %
244 10-12-2019 16:31:17 3.5 C 28 %
245 10-12-2019 16:41:17 3.3 C 28 %
246 10-12-2019 16:51:17 3.3 C 26 %
247 10-12-2019 17:01:17 2.8 C 27 %
248 10-12-2019 17:11:17 2.7 C 27 %
249 10-12-2019 17:21:18 2.7 C 27 %
250 10-12-2019 17:31:17 2.7 C 27 %
Sensor: Nr:Datum:Temp:Feuchte:
Aussen-T/F 251 10-12-2019 17:41:17 2.6 C 27 %
252 10-12-2019 17:51:17 2.4 C 28 %
253 10-12-2019 18:01:17 2.3 C 27 %
254 10-12-2019 18:11:17 1.7 C 31 %
255 10-12-2019 18:21:17 1.9 C 32 %
256 10-12-2019 18:31:17 1.8 C 33 %
257 10-12-2019 18:41:17 1.7 C 34 %
258 10-12-2019 18:51:17 1.6 C 35 %
259 10-12-2019 19:01:17 1.5 C 36 %
260 10-12-2019 19:11:17 1.5 C 36 %
261 10-12-2019 19:21:17 1.6 C 36 %
262 10-12-2019 19:31:17 1.5 C 36 %
263 10-12-2019 19:41:18 1.7 C 36 %
264 10-12-2019 19:51:17 1.7 C 35 %
265 10-12-2019 20:01:17 2.2 C 32 %
266 10-12-2019 20:11:17 2.1 C 32 %
267 10-12-2019 20:21:17 2.7 C 29 %
268 10-12-2019 20:31:18 2.9 C 28 %
269 10-12-2019 20:41:18 2.6 C 30 %
270 10-12-2019 20:51:17 2.3 C 30 %
271 10-12-2019 21:01:17 2.5 C 31 %
272 10-12-2019 21:11:17 2.3 C 31 %
273 10-12-2019 21:21:17 2.1 C 32 %
274 10-12-2019 21:31:17 2 C 33 %
275 10-12-2019 21:41:18 1.8 C 35 %
Sensor: Nr:Datum:Temp:Feuchte:
Aussen-T/F 276 10-12-2019 21:51:17 1.8 C 36 %
277 10-12-2019 22:01:17 1.8 C 36 %
278 10-12-2019 22:11:17 2.1 C 35 %
279 10-12-2019 22:21:17 2.2 C 34 %
280 10-12-2019 22:31:17 2.4 C 32 %
281 10-12-2019 22:41:17 2.5 C 33 %
282 10-12-2019 22:51:18 2.8 C 31 %
283 10-12-2019 23:01:17 2.9 C 30 %
284 10-12-2019 23:11:17 3 C 30 %
285 10-12-2019 23:21:17 3 C 30 %
286 10-12-2019 23:31:17 2.9 C 31 %
287 10-12-2019 23:41:17 3.3 C 28 %
288 10-12-2019 23:51:17 3.3 C 30 %
289 11-12-2019 00:01:18 3.2 C 30 %
290 11-12-2019 00:11:18 3.3 C 29 %
291 11-12-2019 00:21:17 3.4 C 28 %
292 11-12-2019 00:31:17 3.4 C 29 %
293 11-12-2019 00:41:17 3.5 C 27 %
294 11-12-2019 00:51:17 3.4 C 27 %
295 11-12-2019 01:01:17 3.5 C 25 %
296 11-12-2019 01:11:17 3.4 C 27 %
297 11-12-2019 01:21:18 3.4 C 28 %
298 11-12-2019 01:31:17 3.4 C 29 %
299 11-12-2019 01:41:17 3.2 C 30 %
300 11-12-2019 01:51:17 3.1 C 32 %
Sensor: Nr:Datum:Temp:Feuchte:
Aussen-T/F 301 11-12-2019 02:01:17 3 C 33 %
302 11-12-2019 02:11:17 2.9 C 33 %
303 11-12-2019 02:21:17 2.9 C 32 %
304 11-12-2019 02:31:18 2.8 C 34 %
305 11-12-2019 02:41:18 2.9 C 31 %
306 11-12-2019 02:51:17 3 C 30 %
307 11-12-2019 03:01:18 3.1 C 30 %
308 11-12-2019 03:11:18 3 C 32 %
309 11-12-2019 03:21:17 2.9 C 30 %
310 11-12-2019 03:31:17 3 C 30 %
311 11-12-2019 03:41:17 3 C 35 %
312 11-12-2019 03:51:17 2.8 C 36 %
313 11-12-2019 04:01:17 2.7 C 35 %
314 11-12-2019 04:11:17 2.8 C 35 %
315 11-12-2019 04:21:17 2.8 C 35 %
316 11-12-2019 04:31:18 2.8 C 38 %
317 11-12-2019 04:41:18 2.7 C 38 %
318 11-12-2019 04:51:17 2.7 C 39 %
319 11-12-2019 05:01:17 2.7 C 39 %
320 11-12-2019 05:11:17 2.7 C 39 %
321 11-12-2019 05:21:18 2.7 C 40 %
322 11-12-2019 05:31:17 2.6 C 42 %
323 11-12-2019 05:41:17 2.6 C 43 %
324 11-12-2019 05:51:17 2.5 C 44 %
325 11-12-2019 06:01:18 2.5 C 44 %
Sensor: Nr:Datum:Temp:Feuchte:
Aussen-T/F 326 11-12-2019 06:11:18 2.5 C 44 %
327 11-12-2019 06:21:17 2.5 C 44 %
328 11-12-2019 06:31:17 2.5 C 44 %
329 11-12-2019 06:41:17 2.5 C 44 %
330 11-12-2019 06:51:17 2.5 C 44 %
331 11-12-2019 07:01:17 2.4 C 44 %
332 11-12-2019 07:11:17 2.5 C 44 %
333 11-12-2019 07:21:17 2.4 C 44 %
334 11-12-2019 07:31:17 2.4 C 44 %
335 11-12-2019 07:41:18 2.4 C 43 %
336 11-12-2019 07:51:17 2.4 C 43 %
337 11-12-2019 08:01:17 2.4 C 43 %
338 11-12-2019 08:11:17 2.4 C 43 %
339 11-12-2019 08:21:17 2.4 C 43 %
340 11-12-2019 08:31:18 2.3 C 43 %
341 11-12-2019 08:41:18 2.3 C 43 %
342 11-12-2019 08:51:17 2.3 C 43 %
343 11-12-2019 09:01:18 2.3 C 43 %
344 11-12-2019 09:11:18 2.4 C 43 %
345 11-12-2019 09:21:17 2.5 C 43 %
346 11-12-2019 09:31:17 2.5 C 43 %
347 11-12-2019 09:41:17 2.5 C 43 %
348 11-12-2019 09:51:17 2.5 C 43 %
349 11-12-2019 10:01:17 2.6 C 43 %
350 11-12-2019 10:11:17 2.7 C 43 %
Sensor: Nr:Datum:Temp:Feuchte:
Aussen-T/F 351 11-12-2019 10:21:17 2.7 C 42 %
352 11-12-2019 10:31:17 2.7 C 42 %
353 11-12-2019 10:41:17 2.8 C 41 %
354 11-12-2019 10:51:17 3.1 C 40 %
355 11-12-2019 11:01:17 3 C 39 %
356 11-12-2019 11:11:17 3.1 C 39 %
357 11-12-2019 11:21:17 3.2 C 39 %
358 11-12-2019 11:31:17 3.1 C 38 %
359 11-12-2019 11:41:17 3.1 C 38 %
360 11-12-2019 11:51:17 3.2 C 39 %
361 11-12-2019 12:01:18 3.2 C 39 %
362 11-12-2019 12:11:18 3.1 C 39 %
363 11-12-2019 12:21:17 3.1 C 39 %
364 11-12-2019 12:31:17 3.1 C 40 %
365 11-12-2019 12:41:17 3.1 C 40 %
366 11-12-2019 12:51:17 3.1 C 40 %
367 11-12-2019 13:01:18 3.2 C 40 %
368 11-12-2019 13:11:18 3.2 C 40 %
369 11-12-2019 13:21:17 3.2 C 40 %
370 11-12-2019 13:31:17 3.2 C 40 %
371 11-12-2019 13:41:17 3.2 C 40 %
372 11-12-2019 13:51:17 3.2 C 40 %
373 11-12-2019 14:01:17 3.2 C 41 %
374 11-12-2019 14:11:18 3.2 C 41 %
375 11-12-2019 14:21:17 3.2 C 41 %
Sensor: Nr:Datum:Temp:Feuchte:
Aussen-T/F 376 11-12-2019 14:31:17 3.3 C 41 %
377 11-12-2019 14:41:17 3.3 C 42 %
378 11-12-2019 14:51:17 3.3 C 42 %
379 11-12-2019 15:01:17 3.3 C 42 %
380 11-12-2019 15:11:17 3.4 C 42 %
381 11-12-2019 15:21:17 3.3 C 42 %
382 11-12-2019 15:31:18 3.3 C 42 %
383 11-12-2019 15:41:18 3.3 C 42 %
384 11-12-2019 15:51:17 3.3 C 42 %
385 11-12-2019 16:01:17 3.2 C 42 %
386 11-12-2019 16:11:17 3.2 C 42 %
387 11-12-2019 16:21:17 3.2 C 42 %
388 11-12-2019 16:31:17 3.2 C 42 %
389 11-12-2019 16:41:17 3.1 C 42 %
390 11-12-2019 16:51:17 3.1 C 42 %
391 11-12-2019 17:01:17 3.1 C 43 %
392 11-12-2019 17:11:17 3.1 C 42 %
393 11-12-2019 17:21:17 3.1 C 42 %
394 11-12-2019 17:31:17 3.1 C 42 %
395 11-12-2019 17:41:17 3.1 C 42 %
396 11-12-2019 17:51:18 3.2 C 43 %
397 11-12-2019 18:01:17 3.2 C 43 %
398 11-12-2019 18:11:17 3.3 C 43 %
399 11-12-2019 18:21:17 3.3 C 43 %
400 11-12-2019 18:31:18 3.4 C 43 %
Sensor: Nr:Datum:Temp:Feuchte:
Aussen-T/F 401 11-12-2019 18:41:18 3.4 C 43 %
402 11-12-2019 18:51:17 3.5 C 43 %
403 11-12-2019 19:01:17 3.5 C 42 %
404 11-12-2019 19:11:17 3.5 C 42 %
405 11-12-2019 19:21:18 3.5 C 42 %
406 11-12-2019 19:31:17 3.5 C 42 %
407 11-12-2019 19:41:17 3.6 C 42 %
408 11-12-2019 19:51:18 3.6 C 42 %
409 11-12-2019 20:01:17 3.6 C 42 %
410 11-12-2019 20:11:17 3.7 C 42 %
411 11-12-2019 20:21:17 3.8 C 42 %
412 11-12-2019 20:31:18 3.8 C 42 %
413 11-12-2019 20:41:18 3.9 C 42 %
414 11-12-2019 20:51:17 4.1 C 41 %
415 11-12-2019 21:01:17 4.1 C 40 %
416 11-12-2019 21:11:17 4.3 C 39 %
417 11-12-2019 21:21:17 4.4 C 37 %
418 11-12-2019 21:31:17 4.1 C 37 %
419 11-12-2019 21:41:17 4.3 C 37 %
420 11-12-2019 21:51:17 4.3 C 36 %
421 11-12-2019 22:01:17 4.5 C 35 %
422 11-12-2019 22:11:17 4.1 C 35 %
423 11-12-2019 22:21:17 3.9 C 37 %
424 11-12-2019 22:31:17 3.6 C 39 %
425 11-12-2019 22:41:17 3.8 C 39 %
Sensor: Nr:Datum:Temp:Feuchte:
Aussen-T/F 426 11-12-2019 22:51:18 3.5 C 40 %
427 11-12-2019 23:01:17 3.8 C 40 %
428 11-12-2019 23:11:17 3.8 C 40 %
429 11-12-2019 23:21:17 3.4 C 40 %
430 11-12-2019 23:31:17 3 C 41 %
431 11-12-2019 23:41:17 3.4 C 43 %
432 11-12-2019 23:51:18 3.2 C 42 %
433 12-12-2019 00:01:17 3 C 42 %
434 12-12-2019 00:11:17 2.9 C 43 %
435 12-12-2019 00:21:17 2.8 C 43 %
436 12-12-2019 00:31:17 2.5 C 43 %
437 12-12-2019 00:41:17 2.4 C 43 %
438 12-12-2019 00:51:17 2.3 C 43 %
439 12-12-2019 01:01:17 2.7 C 44 %
440 12-12-2019 01:11:17 2.8 C 44 %
441 12-12-2019 01:21:18 2.6 C 43 %
442 12-12-2019 01:31:17 2.2 C 43 %
443 12-12-2019 01:41:17 2.5 C 43 %
444 12-12-2019 01:51:18 2.1 C 43 %
445 12-12-2019 02:01:17 1.8 C 44 %
446 12-12-2019 02:11:17 1.6 C 44 %
447 12-12-2019 02:21:17 1.7 C 44 %
448 12-12-2019 02:31:18 1.6 C 44 %
449 12-12-2019 02:41:18 2 C 43 %
450 12-12-2019 02:51:17 2 C 43 %
Sensor: Nr:Datum:Temp:Feuchte:
Aussen-T/F 451 12-12-2019 03:01:17 2.3 C 43 %
452 12-12-2019 03:11:17 2.4 C 43 %
453 12-12-2019 03:21:17 2.5 C 43 %
454 12-12-2019 03:31:17 2.4 C 43 %
455 12-12-2019 03:41:17 2.5 C 43 %
456 12-12-2019 03:51:17 2.7 C 43 %
457 12-12-2019 04:01:17 2.6 C 43 %
458 12-12-2019 04:11:17 2.7 C 43 %
459 12-12-2019 04:21:17 2.8 C 43 %
460 12-12-2019 04:31:17 2.8 C 43 %
461 12-12-2019 04:41:17 2.9 C 43 %
462 12-12-2019 04:51:17 2.4 C 42 %
463 12-12-2019 05:01:17 2 C 42 %
464 12-12-2019 05:11:17 2.1 C 42 %
465 12-12-2019 05:21:17 2.2 C 42 %
466 12-12-2019 05:31:18 2.1 C 42 %
467 12-12-2019 05:41:18 2.1 C 42 %
468 12-12-2019 05:51:17 2.1 C 42 %
469 12-12-2019 06:01:17 1.9 C 43 %
470 12-12-2019 06:11:17 2 C 42 %
471 12-12-2019 06:21:17 2.1 C 42 %
472 12-12-2019 06:31:17 2.1 C 42 %
473 12-12-2019 06:41:17 2.3 C 42 %
474 12-12-2019 06:51:17 2.7 C 43 %
475 12-12-2019 07:01:17 3 C 42 %
Sensor: Nr:Datum:Temp:Feuchte:
Aussen-T/F 476 12-12-2019 07:11:17 3 C 42 %
477 12-12-2019 07:21:17 3 C 42 %
478 12-12-2019 07:31:17 3 C 42 %
479 12-12-2019 07:41:17 2.8 C 42 %
480 12-12-2019 07:51:17 2.9 C 42 %
481 12-12-2019 08:01:17 2.9 C 42 %
482 12-12-2019 08:11:17 3.1 C 42 %
483 12-12-2019 08:21:17 3.2 C 42 %
484 12-12-2019 08:31:18 3.3 C 42 %
485 12-12-2019 08:41:18 3.5 C 42 %
486 12-12-2019 08:51:17 3.5 C 42 %
487 12-12-2019 09:01:18 3.5 C 42 %
488 12-12-2019 09:11:18 3.6 C 42 %
489 12-12-2019 09:21:17 3.9 C 42 %
490 12-12-2019 09:31:17 3.9 C 42 %
491 12-12-2019 09:41:17 3.7 C 41 %
492 12-12-2019 09:51:17 3.5 C 41 %
493 12-12-2019 10:01:17 3.9 C 41 %
494 12-12-2019 10:11:17 4 C 40 %
495 12-12-2019 10:21:18 4.4 C 37 %
496 12-12-2019 10:31:17 4.6 C 35 %
497 12-12-2019 10:41:17 4.7 C 32 %
498 12-12-2019 10:51:17 4.8 C 31 %
499 12-12-2019 11:01:18 4.7 C 32 %
500 12-12-2019 11:11:18 4.6 C 31 %
Sensor: Nr:Datum:Temp:Feuchte:
Aussen-T/F 501 12-12-2019 11:21:17 4.4 C 31 %
502 12-12-2019 11:31:17 4.4 C 32 %
503 12-12-2019 11:41:17 4.7 C 31 %
504 12-12-2019 11:51:18 4.9 C 29 %
505 12-12-2019 12:01:17 5.1 C 29 %
506 12-12-2019 12:11:17 5.1 C 27 %
507 12-12-2019 12:21:17 5 C 26 %
508 12-12-2019 12:31:18 4.7 C 27 %
509 12-12-2019 12:41:18 4.7 C 28 %
510 12-12-2019 12:51:17 4.7 C 27 %
511 12-12-2019 13:01:17 4.6 C 28 %
512 12-12-2019 13:11:18 5 C 26 %
513 12-12-2019 13:21:17 4.8 C 27 %
514 12-12-2019 13:31:17 4.6 C 26 %
515 12-12-2019 13:41:17 4.2 C 26 %
516 12-12-2019 13:51:17 4.6 C 25 %
517 12-12-2019 14:01:17 4.6 C 25 %
518 12-12-2019 14:11:17 4.3 C 25 %
519 12-12-2019 14:21:17 4 C 27 %
520 12-12-2019 14:31:18 4.5 C 25 %
521 12-12-2019 14:41:18 4.8 C 25 %
522 12-12-2019 14:51:17 4.7 C 25 %
523 12-12-2019 15:01:18 4 C 26 %
524 12-12-2019 15:11:18 4.2 C 26 %
525 12-12-2019 15:21:17 3.6 C 29 %
Sensor: Nr:Datum:Temp:Feuchte:
Aussen-T/F 526 12-12-2019 15:31:17 3.5 C 29 %
527 12-12-2019 15:41:17 3.8 C 28 %
528 12-12-2019 15:51:17 3.7 C 28 %
529 12-12-2019 16:01:17 3.6 C 28 %
530 12-12-2019 16:11:17 3.7 C 26 %
531 12-12-2019 16:21:18 3.5 C 27 %
532 12-12-2019 16:31:17 3.4 C 26 %
533 12-12-2019 16:41:17 3.3 C 28 %
534 12-12-2019 16:51:17 3.1 C 30 %
535 12-12-2019 17:01:17 2.6 C 30 %
536 12-12-2019 17:11:17 1.7 C 35 %
537 12-12-2019 17:21:17 1.2 C 36 %
538 12-12-2019 17:31:17 1.1 C 38 %
539 12-12-2019 17:41:17 0.9 C 41 %
540 12-12-2019 17:51:17 1 C 40 %
541 12-12-2019 18:01:17 1.1 C 40 %
542 12-12-2019 18:11:17 1.1 C 40 %
543 12-12-2019 18:21:17 1.1 C 40 %
544 12-12-2019 18:31:17 1 C 40 %
545 12-12-2019 18:41:17 0.9 C 41 %
546 12-12-2019 18:51:17 0.7 C 41 %
547 12-12-2019 19:01:17 0.7 C 41 %
548 12-12-2019 19:11:17 0.6 C 41 %
549 12-12-2019 19:21:17 0.6 C 42 %
550 12-12-2019 19:31:17 0.6 C 42 %
Sensor: Nr:Datum:Temp:Feuchte:
Aussen-T/F 551 12-12-2019 19:41:17 0.7 C 42 %
552 12-12-2019 19:51:17 0.7 C 41 %
553 12-12-2019 20:01:17 0.6 C 41 %
554 12-12-2019 20:11:17 0.6 C 41 %
555 12-12-2019 20:21:17 0.6 C 41 %
556 12-12-2019 20:31:17 0.6 C 41 %
557 12-12-2019 20:41:17 0.6 C 41 %
558 12-12-2019 20:51:17 1.3 C 42 %
559 12-12-2019 21:01:17 1.6 C 38 %
560 12-12-2019 21:11:17 1.6 C 36 %
561 12-12-2019 21:21:17 1.3 C 36 %
562 12-12-2019 21:31:17 1.3 C 35 %
563 12-12-2019 21:41:17 1 C 35 %
564 12-12-2019 21:51:17 0.7 C 37 %
565 12-12-2019 22:01:17 1.2 C 37 %
566 12-12-2019 22:11:17 0.9 C 37 %
567 12-12-2019 22:21:18 0.4 C 38 %
568 12-12-2019 22:31:17 0.3 C 39 %
569 12-12-2019 22:41:17 0.2 C 40 %
570 12-12-2019 22:51:17 0.4 C 39 %
571 12-12-2019 23:01:18 1.1 C 37 %
572 12-12-2019 23:11:18 1.5 C 35 %
573 12-12-2019 23:21:17 1.9 C 32 %
574 12-12-2019 23:31:17 1.6 C 31 %
575 12-12-2019 23:41:17 1.4 C 32 %
Sensor: Nr:Datum:Temp:Feuchte:
Aussen-T/F 576 12-12-2019 23:51:17 1.5 C 31 %
577 13-12-2019 00:01:17 0.9 C 33 %
578 13-12-2019 00:11:17 0.6 C 35 %
579 13-12-2019 00:21:17 1 C 33 %
580 13-12-2019 00:31:18 0.7 C 34 %
581 13-12-2019 00:41:18 0.9 C 35 %
582 13-12-2019 00:51:17 1.3 C 32 %
583 13-12-2019 01:01:18 1.7 C 30 %
584 13-12-2019 01:11:18 1.8 C 29 %
585 13-12-2019 01:21:17 2 C 27 %
586 13-12-2019 01:31:17 1.9 C 28 %
587 13-12-2019 01:41:17 2 C 27 %
588 13-12-2019 01:51:17 2 C 27 %
589 13-12-2019 02:01:18 1.9 C 29 %
590 13-12-2019 02:11:18 2 C 27 %
591 13-12-2019 02:21:17 2 C 27 %
592 13-12-2019 02:31:17 2 C 27 %
593 13-12-2019 02:41:17 2 C 27 %
594 13-12-2019 02:51:17 2 C 27 %
595 13-12-2019 03:01:17 1.8 C 29 %
596 13-12-2019 03:11:17 1.8 C 30 %
597 13-12-2019 03:21:17 1.7 C 30 %
598 13-12-2019 03:31:17 1.6 C 30 %
599 13-12-2019 03:41:17 1.7 C 30 %
600 13-12-2019 03:51:17 1.6 C 31 %
Sensor: Nr:Datum:Temp:Feuchte:
Aussen-T/F 601 13-12-2019 04:01:17 1.4 C 32 %
602 13-12-2019 04:11:17 1.5 C 32 %
603 13-12-2019 04:21:17 1.6 C 32 %
604 13-12-2019 04:31:17 1.6 C 32 %
605 13-12-2019 04:41:17 1.6 C 32 %
606 13-12-2019 04:51:17 1.4 C 34 %
607 13-12-2019 05:01:17 1.4 C 35 %
608 13-12-2019 05:11:17 1.5 C 34 %
609 13-12-2019 05:21:17 1.5 C 34 %
610 13-12-2019 05:31:18 1.7 C 33 %
611 13-12-2019 05:41:18 1.7 C 32 %
612 13-12-2019 05:51:17 1.8 C 33 %
613 13-12-2019 06:01:17 1.9 C 32 %
614 13-12-2019 06:11:17 2 C 31 %
615 13-12-2019 06:21:17 2 C 31 %
616 13-12-2019 06:31:17 2 C 32 %
617 13-12-2019 06:41:17 1.7 C 35 %
618 13-12-2019 06:51:17 1.8 C 37 %
619 13-12-2019 07:01:17 1.8 C 37 %
620 13-12-2019 07:11:18 1.7 C 39 %
621 13-12-2019 07:21:17 1.8 C 38 %
622 13-12-2019 07:31:17 1.8 C 40 %
623 13-12-2019 07:41:17 1.8 C 39 %
624 13-12-2019 07:51:17 1.9 C 38 %
625 13-12-2019 08:01:17 1.8 C 38 %
Sensor: Nr:Datum:Temp:Feuchte:
Aussen-T/F 626 13-12-2019 08:11:17 1.8 C 39 %
627 13-12-2019 08:21:17 1.7 C 40 %
628 13-12-2019 08:31:17 1.7 C 41 %
629 13-12-2019 08:41:17 1.6 C 41 %
630 13-12-2019 08:51:17 1.7 C 41 %
631 13-12-2019 09:01:17 1.9 C 40 %
632 13-12-2019 09:11:17 1.9 C 40 %
633 13-12-2019 09:21:17 1.9 C 40 %
634 13-12-2019 09:31:17 1.7 C 42 %
635 13-12-2019 09:41:17 1.7 C 42 %
636 13-12-2019 09:51:18 1.9 C 43 %
637 13-12-2019 10:01:17 1.8 C 43 %
638 13-12-2019 10:11:17 1.9 C 43 %
639 13-12-2019 10:21:18 2 C 41 %
640 13-12-2019 10:31:17 2.2 C 41 %
641 13-12-2019 10:41:17 2.3 C 41 %
642 13-12-2019 10:51:18 2.3 C 41 %
643 13-12-2019 11:01:17 2.4 C 41 %
644 13-12-2019 11:11:17 2.3 C 40 %
645 13-12-2019 11:21:17 2.3 C 40 %
646 13-12-2019 11:31:17 2.4 C 41 %
647 13-12-2019 11:41:17 2.5 C 41 %
648 13-12-2019 11:51:18 2.8 C 42 %
649 13-12-2019 12:01:17 3 C 41 %
650 13-12-2019 12:11:17 3.1 C 39 %
Sensor: Nr:Datum:Temp:Feuchte:
Aussen-T/F 651 13-12-2019 12:21:17 3.2 C 38 %
652 13-12-2019 12:31:17 3.5 C 38 %
653 13-12-2019 12:41:17 3.5 C 38 %
654 13-12-2019 12:51:18 3.6 C 38 %
655 13-12-2019 13:01:18 3.8 C 39 %
656 13-12-2019 13:11:18 4.1 C 37 %
657 13-12-2019 13:21:17 4.6 C 38 %
658 13-12-2019 13:31:17 5.2 C 35 %
659 13-12-2019 13:41:17 5.7 C 35 %
660 13-12-2019 13:51:17 6.4 C 31 %
661 13-12-2019 14:01:17 6.7 C 30 %
662 13-12-2019 14:11:17 7 C 28 %
663 13-12-2019 14:21:17 6.8 C 29 %
664 13-12-2019 14:31:17 6.8 C 28 %
665 13-12-2019 14:41:17 6.7 C 28 %
666 13-12-2019 14:51:18 6.4 C 29 %
667 13-12-2019 15:01:18 6.3 C 29 %
668 13-12-2019 15:11:18 6.3 C 29 %
669 13-12-2019 15:21:17 6.2 C 30 %
670 13-12-2019 15:31:17 5.9 C 30 %
671 13-12-2019 15:41:17 5.8 C 31 %
672 13-12-2019 15:51:17 5.5 C 31 %
673 13-12-2019 16:01:18 5.3 C 30 %
674 13-12-2019 16:11:18 5.4 C 30 %
675 13-12-2019 16:21:17 5.3 C 30 %
Sensor: Nr:Datum:Temp:Feuchte:
Aussen-T/F 676 13-12-2019 16:31:17 5.1 C 30 %
677 13-12-2019 16:41:17 4.8 C 31 %
678 13-12-2019 16:51:17 4.5 C 31 %
679 13-12-2019 17:01:17 4.6 C 31 %
680 13-12-2019 17:11:17 4.5 C 31 %
681 13-12-2019 17:21:17 4.3 C 34 %
682 13-12-2019 17:31:18 4.3 C 34 %
683 13-12-2019 17:41:18 4.2 C 33 %
684 13-12-2019 17:51:17 4 C 33 %
685 13-12-2019 18:01:17 3.8 C 36 %
686 13-12-2019 18:11:17 3.7 C 40 %
687 13-12-2019 18:21:17 3.8 C 39 %
688 13-12-2019 18:31:17 3.8 C 40 %
689 13-12-2019 18:41:18 3.8 C 39 %
690 13-12-2019 18:51:17 3.9 C 36 %
691 13-12-2019 19:01:17 3.9 C 36 %
692 13-12-2019 19:11:17 3.9 C 35 %
693 13-12-2019 19:21:17 4 C 34 %
694 13-12-2019 19:31:17 4.1 C 35 %
695 13-12-2019 19:41:17 4 C 36 %
696 13-12-2019 19:51:17 4.6 C 32 %
697 13-12-2019 20:01:17 4.6 C 32 %
698 13-12-2019 20:11:17 4.8 C 31 %
699 13-12-2019 20:21:17 4.7 C 31 %
700 13-12-2019 20:31:17 4.7 C 31 %
Sensor: Nr:Datum:Temp:Feuchte:
Aussen-T/F 701 13-12-2019 20:41:17 4.7 C 32 %
702 13-12-2019 20:51:17 4.5 C 32 %
703 13-12-2019 21:01:17 4.3 C 34 %
704 13-12-2019 21:11:17 4 C 36 %
705 13-12-2019 21:21:17 4.5 C 35 %
706 13-12-2019 21:31:18 4.4 C 33 %
707 13-12-2019 21:41:18 4.4 C 35 %
708 13-12-2019 21:51:17 4.6 C 32 %
709 13-12-2019 22:01:17 4.6 C 31 %
710 13-12-2019 22:11:17 4.6 C 30 %
711 13-12-2019 22:21:17 4.7 C 30 %
712 13-12-2019 22:31:18 4.7 C 30 %
713 13-12-2019 22:41:18 3.8 C 34 %
714 13-12-2019 22:51:17 3.8 C 36 %
715 13-12-2019 23:01:17 4.5 C 32 %
716 13-12-2019 23:11:17 5.1 C 29 %
717 13-12-2019 23:21:17 5.2 C 28 %
718 13-12-2019 23:31:17 5.2 C 28 %
719 13-12-2019 23:41:17 5 C 30 %
720 13-12-2019 23:51:17 5 C 30 %
721 14-12-2019 00:01:17 4.4 C 32 %
722 14-12-2019 00:11:17 4.5 C 30 %
723 14-12-2019 00:21:17 4.6 C 30 %
724 14-12-2019 00:31:18 4.3 C 33 %
725 14-12-2019 00:41:18 4.7 C 32 %
Sensor: Nr:Datum:Temp:Feuchte:
Aussen-T/F 726 14-12-2019 00:51:17 5.1 C 28 %
727 14-12-2019 01:01:17 5.4 C 27 %
728 14-12-2019 01:11:17 5.3 C 27 %
729 14-12-2019 01:21:17 5.2 C 26 %
730 14-12-2019 01:31:17 5.1 C 26 %
731 14-12-2019 01:41:17 5.3 C 25 %
732 14-12-2019 01:51:17 5.2 C 25 %
733 14-12-2019 02:01:17 5 C 26 %
734 14-12-2019 02:11:17 4.5 C 30 %
735 14-12-2019 02:21:17 4.6 C 29 %
736 14-12-2019 02:31:18 4.7 C 29 %
737 14-12-2019 02:41:18 4.8 C 28 %
738 14-12-2019 02:51:17 4.5 C 30 %
739 14-12-2019 03:01:18 4.2 C 33 %
740 14-12-2019 03:11:18 4.1 C 36 %
741 14-12-2019 03:21:17 3.9 C 38 %
742 14-12-2019 03:31:17 3.9 C 39 %
743 14-12-2019 03:41:17 3.9 C 36 %
744 14-12-2019 03:51:18 3.8 C 36 %
745 14-12-2019 04:01:17 3.8 C 40 %
746 14-12-2019 04:11:17 3.8 C 41 %
747 14-12-2019 04:21:17 3.7 C 42 %
748 14-12-2019 04:31:18 3.5 C 42 %
749 14-12-2019 04:41:18 3.5 C 42 %
750 14-12-2019 04:51:17 3.4 C 42 %
Sensor: Nr:Datum:Temp:Feuchte:
Aussen-T/F 751 14-12-2019 05:01:17 3.4 C 41 %
752 14-12-2019 05:11:17 3.4 C 41 %
753 14-12-2019 05:21:17 3.4 C 42 %
754 14-12-2019 05:31:18 3.4 C 42 %
755 14-12-2019 05:41:18 3.4 C 43 %
756 14-12-2019 05:51:17 3.4 C 43 %
757 14-12-2019 06:01:18 3.4 C 42 %
758 14-12-2019 06:11:18 3.7 C 43 %
759 14-12-2019 06:21:17 4 C 42 %
760 14-12-2019 06:31:17 5 C 40 %
761 14-12-2019 06:41:17 5.2 C 39 %
762 14-12-2019 06:51:18 5.6 C 36 %
763 14-12-2019 07:01:17 5.6 C 36 %
764 14-12-2019 07:11:18 5.7 C 36 %
765 14-12-2019 07:21:17 5.8 C 36 %
766 14-12-2019 07:31:17 5.8 C 36 %
767 14-12-2019 07:41:17 6.3 C 37 %
768 14-12-2019 07:51:17 6.5 C 36 %
769 14-12-2019 08:01:17 6.8 C 35 %
770 14-12-2019 08:11:17 7 C 28 %
771 14-12-2019 08:21:17 7.2 C 26 %
772 14-12-2019 08:31:18 7.1 C 25 %
773 14-12-2019 08:41:18 6.9 C 25 %
774 14-12-2019 08:51:17 6.7 C 25 %
775 14-12-2019 09:01:17 6.9 C 23 %
Sensor: Nr:Datum:Temp:Feuchte:
Aussen-T/F 776 14-12-2019 09:11:17 6.7 C 23 %
777 14-12-2019 09:21:18 6.5 C 23 %
778 14-12-2019 09:31:18 6.7 C 20 %
779 14-12-2019 09:41:18 6.5 C 21 %
780 14-12-2019 09:51:17 6.7 C 21 %
781 14-12-2019 10:01:17 6.7 C 21 %
782 14-12-2019 10:11:17 6.6 C 23 %
783 14-12-2019 10:21:17 6.6 C 25 %
784 14-12-2019 10:31:17 6.7 C 25 %
785 14-12-2019 10:41:17 6.4 C 26 %
786 14-12-2019 10:51:17 5.9 C 29 %
787 14-12-2019 11:01:18 5.9 C 29 %
788 14-12-2019 11:11:18 6.4 C 27 %
789 14-12-2019 11:21:17 6.7 C 26 %
790 14-12-2019 11:31:17 6.3 C 26 %
791 14-12-2019 11:41:17 6.4 C 25 %
792 14-12-2019 11:51:17 6.9 C 20 %
793 14-12-2019 12:01:17 7 C 20 %
794 14-12-2019 12:11:17 7.2 C 20 %
795 14-12-2019 12:21:18 7 C 20 %
796 14-12-2019 12:31:17 7.3 C 20 %
797 14-12-2019 12:41:17 7.6 C 20 %
798 14-12-2019 12:51:17 7.8 C 20 %
799 14-12-2019 13:01:17 7.9 C 20 %
800 14-12-2019 13:11:17 8 C 20 %
Sensor: Nr:Datum:Temp:Feuchte:
Aussen-T/F 801 14-12-2019 13:21:17 8.4 C 20 %
802 14-12-2019 13:31:17 8.4 C 20 %
803 14-12-2019 13:41:17 8.3 C 20 %
804 14-12-2019 13:51:17 8.4 C 20 %
805 14-12-2019 14:01:18 8.5 C 20 %
806 14-12-2019 14:11:18 8.4 C 20 %
807 14-12-2019 14:21:17 8.4 C 20 %
808 14-12-2019 14:31:18 8.7 C 20 %
809 14-12-2019 14:41:18 8.8 C 20 %
810 14-12-2019 14:51:18 8.6 C 20 %
811 14-12-2019 15:01:17 7.3 C 23 %
812 14-12-2019 15:11:17 6.8 C 28 %
813 14-12-2019 15:21:17 6.6 C 30 %
814 14-12-2019 15:31:17 6.7 C 28 %
815 14-12-2019 15:41:18 6.8 C 28 %
816 14-12-2019 15:51:17 7.1 C 26 %
817 14-12-2019 16:01:17 7 C 26 %
818 14-12-2019 16:11:17 6.9 C 26 %
819 14-12-2019 16:21:17 6.9 C 27 %
820 14-12-2019 16:31:18 7.2 C 25 %
821 14-12-2019 16:41:18 7.6 C 25 %
822 14-12-2019 16:51:17 7.5 C 25 %
823 14-12-2019 17:01:17 7.6 C 25 %
824 14-12-2019 17:11:17 7.6 C 25 %
825 14-12-2019 17:21:17 7.4 C 25 %
Sensor: Nr:Datum:Temp:Feuchte:
Aussen-T/F 826 14-12-2019 17:31:18 7.2 C 26 %
827 14-12-2019 17:41:18 6.9 C 27 %
828 14-12-2019 17:51:17 7.1 C 26 %
829 14-12-2019 18:01:17 7.1 C 26 %
830 14-12-2019 18:11:17 7.3 C 26 %
831 14-12-2019 18:22:17 7.6 C 25 %
832 14-12-2019 18:31:17 7.8 C 25 %
833 14-12-2019 18:41:17 7.4 C 25 %
834 14-12-2019 18:52:17 7 C 26 %
835 14-12-2019 19:01:18 6.7 C 27 %
836 14-12-2019 19:11:18 6.2 C 28 %
837 14-12-2019 19:21:17 6.4 C 26 %
838 14-12-2019 19:31:17 6.1 C 26 %
839 14-12-2019 19:41:17 6.4 C 25 %
840 14-12-2019 19:52:17 6.4 C 25 %
841 14-12-2019 20:01:18 6.6 C 25 %
842 14-12-2019 20:11:18 6.7 C 25 %
843 14-12-2019 20:21:17 6.9 C 25 %
844 14-12-2019 20:31:17 5.8 C 27 %
845 14-12-2019 20:41:17 5.9 C 27 %
846 14-12-2019 20:52:17 7 C 25 %
847 14-12-2019 21:01:17 7.2 C 25 %
848 14-12-2019 21:11:17 7 C 25 %
849 14-12-2019 21:22:17 7.1 C 25 %
850 14-12-2019 21:31:18 6.7 C 26 %
Sensor: Nr:Datum:Temp:Feuchte:
Aussen-T/F 851 14-12-2019 21:41:18 6.8 C 26 %
852 14-12-2019 21:52:17 6.9 C 26 %
853 14-12-2019 22:02:17 7.1 C 25 %
854 14-12-2019 22:11:17 6.8 C 26 %
855 14-12-2019 22:22:17 6.9 C 26 %
856 14-12-2019 22:31:17 7.3 C 25 %
857 14-12-2019 22:41:17 7 C 26 %
858 14-12-2019 22:52:17 7.3 C 25 %
859 14-12-2019 23:02:17 7.1 C 25 %
860 14-12-2019 23:12:17 7.3 C 25 %
861 14-12-2019 23:22:17 7 C 26 %
862 14-12-2019 23:31:18 7 C 26 %
863 14-12-2019 23:41:18 7.4 C 25 %
864 14-12-2019 23:51:18 7 C 25 %
865 15-12-2019 00:02:17 6.4 C 27 %
866 15-12-2019 00:11:17 6 C 28 %
867 15-12-2019 00:22:17 5.6 C 30 %
868 15-12-2019 00:31:18 5.3 C 31 %
869 15-12-2019 00:41:18 5.1 C 32 %
870 15-12-2019 00:52:17 5.2 C 32 %
871 15-12-2019 01:02:17 5.2 C 32 %
872 15-12-2019 01:12:17 5.3 C 33 %
873 15-12-2019 01:22:17 5.5 C 33 %
874 15-12-2019 01:31:18 5.7 C 31 %
875 15-12-2019 01:41:18 5.6 C 31 %
Sensor: Nr:Datum:Temp:Feuchte:
Aussen-T/F 876 15-12-2019 01:52:17 5.6 C 31 %
877 15-12-2019 02:02:17 5.9 C 31 %
878 15-12-2019 02:12:17 5.8 C 32 %
879 15-12-2019 02:22:17 5.9 C 32 %
880 15-12-2019 02:32:18 5.7 C 35 %
881 15-12-2019 02:42:18 5.8 C 37 %
882 15-12-2019 02:52:17 5.9 C 39 %
883 15-12-2019 03:02:18 5.9 C 40 %
884 15-12-2019 03:12:18 5.9 C 41 %
885 15-12-2019 03:22:17 6 C 41 %
886 15-12-2019 03:32:17 6 C 42 %
887 15-12-2019 03:42:17 6.3 C 42 %
888 15-12-2019 03:52:17 6.4 C 42 %
889 15-12-2019 04:02:17 6.8 C 42 %
890 15-12-2019 04:12:17 7.3 C 41 %
891 15-12-2019 04:22:17 7.3 C 41 %
892 15-12-2019 04:32:17 7.5 C 41 %
893 15-12-2019 04:42:17 7.9 C 40 %
894 15-12-2019 04:52:17 8 C 39 %
895 15-12-2019 05:02:17 8.2 C 38 %
896 15-12-2019 05:12:17 8.2 C 37 %
897 15-12-2019 05:22:17 8.4 C 37 %
898 15-12-2019 05:32:18 9 C 34 %
899 15-12-2019 05:42:18 10 C 30 %
900 15-12-2019 05:52:17 10.2 C 30 %
Sensor: Nr:Datum:Temp:Feuchte:
Aussen-T/F 901 15-12-2019 06:02:17 10.3 C 29 %
902 15-12-2019 06:12:17 10.3 C 29 %
903 15-12-2019 06:22:17 10.1 C 29 %
904 15-12-2019 06:32:17 10.5 C 28 %
905 15-12-2019 06:42:17 10.8 C 27 %
906 15-12-2019 06:52:17 10.7 C 27 %
907 15-12-2019 07:02:17 10.5 C 27 %
908 15-12-2019 07:12:17 10.9 C 27 %
909 15-12-2019 07:22:17 10.3 C 27 %
910 15-12-2019 07:32:17 10.6 C 27 %
911 15-12-2019 07:42:17 10.5 C 27 %
912 15-12-2019 07:52:17 10.7 C 27 %
913 15-12-2019 08:02:17 10.7 C 27 %
914 15-12-2019 08:12:17 11 C 26 %
915 15-12-2019 08:22:17 10.9 C 27 %
916 15-12-2019 08:32:18 10.6 C 27 %
917 15-12-2019 08:42:18 10.2 C 28 %
918 15-12-2019 08:52:17 9.5 C 34 %
919 15-12-2019 09:02:17 9.2 C 34 %
920 15-12-2019 09:12:17 8.9 C 35 %
921 15-12-2019 09:22:17 8.7 C 33 %
922 15-12-2019 09:32:17 8.5 C 34 %
923 15-12-2019 09:42:17 8.2 C 35 %
924 15-12-2019 09:52:18 8 C 36 %
925 15-12-2019 10:02:18 8.1 C 34 %
Sensor: Nr:Datum:Temp:Feuchte:
Aussen-T/F 926 15-12-2019 10:12:18 8.2 C 32 %
927 15-12-2019 10:22:18 8.2 C 34 %
928 15-12-2019 10:32:17 8.1 C 33 %
929 15-12-2019 10:42:17 8.5 C 31 %
930 15-12-2019 10:52:17 8.7 C 30 %
931 15-12-2019 11:02:17 8.4 C 30 %
932 15-12-2019 11:12:17 8.5 C 30 %
933 15-12-2019 11:22:17 8.5 C 28 %
934 15-12-2019 11:32:17 8.6 C 28 %
935 15-12-2019 11:42:17 8.6 C 28 %
936 15-12-2019 11:52:17 8.3 C 27 %
937 15-12-2019 12:02:17 8.3 C 27 %
938 15-12-2019 12:12:17 8.1 C 27 %
939 15-12-2019 12:22:17 8.1 C 28 %
940 15-12-2019 12:32:17 7.9 C 29 %
941 15-12-2019 12:42:17 8.2 C 28 %
942 15-12-2019 12:52:18 8.4 C 28 %
943 15-12-2019 13:02:18 8.7 C 27 %
944 15-12-2019 13:12:18 9.1 C 25 %
945 15-12-2019 13:22:17 9.3 C 23 %
946 15-12-2019 13:32:17 9.2 C 21 %
947 15-12-2019 13:42:17 9.2 C 20 %
948 15-12-2019 13:52:18 9.2 C 20 %
949 15-12-2019 14:02:17 9.2 C 20 %
950 15-12-2019 14:12:17 9.3 C 20 %
Sensor: Nr:Datum:Temp:Feuchte:
Aussen-T/F 951 15-12-2019 14:22:17 9.3 C 20 %
952 15-12-2019 14:32:17 9.1 C 20 %
953 15-12-2019 14:42:17 9.1 C 20 %
954 15-12-2019 14:52:17 9 C 20 %
955 15-12-2019 15:02:17 9 C 20 %
956 15-12-2019 15:12:17 8.9 C 20 %
957 15-12-2019 15:22:17 8.9 C 20 %
958 15-12-2019 15:32:17 8.8 C 20 %
959 15-12-2019 15:42:17 8.7 C 20 %
960 15-12-2019 15:52:17 8.7 C 20 %
961 15-12-2019 16:02:17 8.4 C 20 %
962 15-12-2019 16:12:17 8.2 C 20 %
963 15-12-2019 16:22:18 8.4 C 20 %
964 15-12-2019 16:32:17 7.9 C 20 %
965 15-12-2019 16:42:17 7.6 C 20 %
966 15-12-2019 16:52:17 8 C 20 %
967 15-12-2019 17:02:17 7.4 C 20 %
968 15-12-2019 17:12:17 7.4 C 20 %
969 15-12-2019 17:22:17 7.8 C 20 %
970 15-12-2019 17:32:17 7.2 C 21 %
971 15-12-2019 17:42:17 7.6 C 20 %
972 15-12-2019 17:52:17 7.7 C 20 %
973 15-12-2019 18:02:17 7.5 C 20 %
974 15-12-2019 18:12:17 8.2 C 20 %
975 15-12-2019 18:22:17 7.5 C 20 %
Sensor: Nr:Datum:Temp:Feuchte:
Aussen-T/F 976 15-12-2019 18:32:17 6.9 C 25 %
977 15-12-2019 18:42:17 6.2 C 27 %
978 15-12-2019 18:52:18 5.9 C 29 %
979 15-12-2019 19:02:17 5.4 C 30 %
980 15-12-2019 19:12:17 5.3 C 31 %
981 15-12-2019 19:22:17 4.9 C 32 %
982 15-12-2019 19:32:18 5.3 C 32 %
983 15-12-2019 19:42:18 5 C 33 %
984 15-12-2019 19:52:17 5.4 C 33 %
985 15-12-2019 20:02:17 5.2 C 33 %
986 15-12-2019 20:12:17 4.7 C 35 %
987 15-12-2019 20:22:17 4.4 C 36 %
988 15-12-2019 20:32:17 4.3 C 37 %
989 15-12-2019 20:42:17 3.9 C 39 %
990 15-12-2019 20:52:17 3.7 C 40 %
991 15-12-2019 21:02:17 3.5 C 41 %
992 15-12-2019 21:12:17 3.3 C 41 %
993 15-12-2019 21:22:17 3.1 C 41 %
994 15-12-2019 21:32:18 2.8 C 42 %
995 15-12-2019 21:42:18 2.9 C 43 %
996 15-12-2019 21:52:17 3.3 C 43 %
997 15-12-2019 22:02:17 3.3 C 44 %
998 15-12-2019 22:12:17 3.3 C 43 %
999 15-12-2019 22:22:17 3.5 C 43 %
1000 15-12-2019 22:32:17 3.5 C 43 %
Sensor: Nr:Datum:Temp:Feuchte:
Aussen-T/F 1001 15-12-2019 22:42:17 3.4 C 43 %
1002 15-12-2019 22:52:18 3.3 C 43 %
1003 15-12-2019 23:02:17 3.5 C 43 %
1004 15-12-2019 23:12:18 3.6 C 43 %
1005 15-12-2019 23:22:17 3.7 C 43 %
1006 15-12-2019 23:32:18 3.5 C 42 %
1007 15-12-2019 23:42:18 3.3 C 42 %
1008 15-12-2019 23:52:17 3.8 C 43 %
1009 16-12-2019 00:02:17 4 C 42 %
1010 16-12-2019 00:12:17 4.4 C 42 %
1011 16-12-2019 00:22:17 4.4 C 42 %
1012 16-12-2019 00:32:17 4.5 C 42 %
1013 16-12-2019 00:42:17 4.5 C 42 %
1014 16-12-2019 00:52:18 4.7 C 42 %
1015 16-12-2019 01:02:17 5.1 C 41 %
1016 16-12-2019 01:12:17 5 C 41 %
1017 16-12-2019 01:22:17 5.2 C 42 %
1018 16-12-2019 01:32:17 5.2 C 41 %
1019 16-12-2019 01:42:18 5.3 C 42 %
1020 16-12-2019 01:52:17 5.5 C 42 %
1021 16-12-2019 02:02:18 5.4 C 42 %
1022 16-12-2019 02:12:18 5.5 C 42 %
1023 16-12-2019 02:22:17 5.7 C 42 %
1024 16-12-2019 02:32:17 5.7 C 42 %
1025 16-12-2019 02:42:17 5.9 C 42 %
Sensor: Nr:Datum:Temp:Feuchte:
Aussen-T/F 1026 16-12-2019 02:52:18 5.8 C 41 %
1027 16-12-2019 03:02:17 5.8 C 41 %
1028 16-12-2019 03:12:17 5.9 C 41 %
1029 16-12-2019 03:22:17 5.9 C 41 %
1030 16-12-2019 03:32:18 5.9 C 41 %
1031 16-12-2019 03:42:18 5.8 C 41 %
1032 16-12-2019 03:52:17 6 C 41 %
1033 16-12-2019 04:02:17 6 C 41 %
1034 16-12-2019 04:12:17 6 C 41 %
1035 16-12-2019 04:22:17 5.9 C 41 %
1036 16-12-2019 04:32:17 6.1 C 41 %
1037 16-12-2019 04:42:17 6.2 C 41 %
1038 16-12-2019 04:52:17 6.3 C 41 %
1039 16-12-2019 05:02:17 6.4 C 41 %
1040 16-12-2019 05:12:17 6.4 C 41 %
1041 16-12-2019 05:22:17 6.5 C 41 %
1042 16-12-2019 05:32:17 6.6 C 41 %
1043 16-12-2019 05:42:17 6.6 C 41 %
1044 16-12-2019 05:52:17 6.8 C 41 %
1045 16-12-2019 06:02:17 6.9 C 41 %
1046 16-12-2019 06:12:17 6.9 C 41 %
1047 16-12-2019 06:22:17 6.8 C 40 %
1048 16-12-2019 06:32:17 6.7 C 40 %
1049 16-12-2019 06:42:17 6.8 C 40 %
1050 16-12-2019 06:52:17 6.8 C 40 %
Sensor: Nr:Datum:Temp:Feuchte:
Aussen-T/F 1051 16-12-2019 07:02:17 6.8 C 40 %
1052 16-12-2019 07:12:17 6.7 C 40 %
1053 16-12-2019 07:22:17 6.8 C 40 %
1054 16-12-2019 07:32:18 6.9 C 41 %
1055 16-12-2019 07:42:18 6.9 C 41 %
1056 16-12-2019 07:52:17 7 C 40 %
1057 16-12-2019 08:02:17 7.1 C 40 %
1058 16-12-2019 08:12:17 7 C 40 %
1059 16-12-2019 08:22:17 7.1 C 40 %
1060 16-12-2019 08:32:17 7.1 C 40 %
1061 16-12-2019 08:42:17 7.1 C 40 %
1062 16-12-2019 08:52:17 7.2 C 40 %
1063 16-12-2019 09:02:17 7.3 C 40 %
1064 16-12-2019 09:12:17 7.5 C 40 %
1065 16-12-2019 09:22:18 7.4 C 40 %
1066 16-12-2019 09:32:17 7.5 C 40 %
1067 16-12-2019 09:42:17 7.5 C 40 %
1068 16-12-2019 09:52:17 7.6 C 40 %
1069 16-12-2019 10:02:18 7.6 C 40 %
1070 16-12-2019 10:12:18 7.7 C 40 %
1071 16-12-2019 10:22:17 7.8 C 40 %
1072 16-12-2019 10:32:17 7.9 C 40 %
1073 16-12-2019 10:42:17 8.1 C 40 %
1074 16-12-2019 10:52:17 8.2 C 40 %
1075 16-12-2019 11:02:17 8.3 C 40 %
Sensor: Nr:Datum:Temp:Feuchte:
Aussen-T/F 1076 16-12-2019 11:12:17 8.5 C 40 %
1077 16-12-2019 11:22:17 8.9 C 40 %
1078 16-12-2019 11:32:18 8.8 C 39 %
1079 16-12-2019 11:42:18 9.1 C 39 %
1080 16-12-2019 11:52:17 9.4 C 39 %
1081 16-12-2019 12:02:17 9.3 C 38 %
1082 16-12-2019 12:12:17 9.3 C 37 %
1083 16-12-2019 12:22:17 9.3 C 37 %
1084 16-12-2019 12:32:17 9.4 C 37 %
1085 16-12-2019 12:42:17 9.4 C 38 %
1086 16-12-2019 12:52:17 9.8 C 38 %
1087 16-12-2019 13:02:17 9.9 C 36 %
1088 16-12-2019 13:12:17 9.9 C 36 %
1089 16-12-2019 13:22:17 10 C 35 %
1090 16-12-2019 13:32:17 10.2 C 34 %
1091 16-12-2019 13:42:17 10.2 C 35 %
1092 16-12-2019 13:52:18 10.3 C 34 %
1093 16-12-2019 14:02:17 10.1 C 34 %
1094 16-12-2019 14:12:17 10.2 C 34 %
1095 16-12-2019 14:22:17 10.3 C 34 %
1096 16-12-2019 14:32:17 10.2 C 33 %
1097 16-12-2019 14:42:17 10.1 C 34 %
1098 16-12-2019 14:52:18 10.1 C 34 %
1099 16-12-2019 15:02:17 9.9 C 35 %
1100 16-12-2019 15:12:17 9.8 C 35 %
Sensor: Nr:Datum:Temp:Feuchte:
Aussen-T/F 1101 16-12-2019 15:22:17 9.6 C 36 %
1102 16-12-2019 15:32:18 9.3 C 37 %
1103 16-12-2019 15:42:18 9.1 C 39 %
1104 16-12-2019 15:52:17 9 C 40 %
1105 16-12-2019 16:02:17 8.7 C 40 %
1106 16-12-2019 16:12:17 8.5 C 40 %
1107 16-12-2019 16:22:17 8.4 C 40 %
1108 16-12-2019 16:32:18 8.2 C 41 %
1109 16-12-2019 16:42:18 8 C 40 %
1110 16-12-2019 16:52:17 7.7 C 41 %
1111 16-12-2019 17:02:17 7.4 C 41 %
1112 16-12-2019 17:12:17 7.3 C 41 %
1113 16-12-2019 17:22:17 7.5 C 41 %
1114 16-12-2019 17:32:17 7.3 C 41 %
1115 16-12-2019 17:42:17 7.2 C 41 %
1116 16-12-2019 17:52:17 7 C 41 %
1117 16-12-2019 18:02:17 7.1 C 41 %
1118 16-12-2019 18:12:17 7.4 C 41 %
1119 16-12-2019 18:22:17 7.5 C 41 %
1120 16-12-2019 18:32:17 8.2 C 40 %
1121 16-12-2019 18:42:17 8.1 C 38 %
1122 16-12-2019 18:52:17 8.7 C 37 %
1123 16-12-2019 19:02:18 8.5 C 35 %
1124 16-12-2019 19:12:18 7.9 C 36 %
1125 16-12-2019 19:22:17 7.7 C 37 %
Sensor: Nr:Datum:Temp:Feuchte:
Aussen-T/F 1126 16-12-2019 19:32:17 8.5 C 40 %
1127 16-12-2019 19:42:17 7.9 C 37 %
1128 16-12-2019 19:52:18 8 C 37 %
1129 16-12-2019 20:02:17 7.9 C 37 %
1130 16-12-2019 20:12:17 8.1 C 36 %
1131 16-12-2019 20:22:17 7.7 C 37 %
1132 16-12-2019 20:32:17 8 C 39 %
1133 16-12-2019 20:42:17 7.9 C 36 %
1134 16-12-2019 20:52:17 7.8 C 36 %
1135 16-12-2019 21:02:17 7.3 C 37 %
1136 16-12-2019 21:12:17 7.2 C 40 %
1137 16-12-2019 21:22:17 7.5 C 39 %
1138 16-12-2019 21:32:17 7.2 C 38 %
1139 16-12-2019 21:42:17 7 C 40 %
1140 16-12-2019 21:52:17 6.7 C 41 %
1141 16-12-2019 22:02:17 6.9 C 41 %
1142 16-12-2019 22:12:17 7.5 C 40 %
1143 16-12-2019 22:22:17 7.4 C 38 %
1144 16-12-2019 22:32:17 7.9 C 37 %
1145 16-12-2019 22:42:17 7.8 C 36 %
1146 16-12-2019 22:52:18 7.3 C 37 %
1147 16-12-2019 23:02:17 7.3 C 39 %
1148 16-12-2019 23:12:17 7.3 C 39 %
1149 16-12-2019 23:22:17 7.5 C 40 %
1150 16-12-2019 23:32:17 7.6 C 39 %
Sensor: Nr:Datum:Temp:Feuchte:
Aussen-T/F 1151 16-12-2019 23:42:17 7.6 C 39 %
1152 16-12-2019 23:52:18 7.8 C 39 %
1153 17-12-2019 00:02:17 7.6 C 37 %
1154 17-12-2019 00:12:17 7.5 C 38 %
1155 17-12-2019 00:22:17 7.6 C 38 %
1156 17-12-2019 00:32:18 7.3 C 39 %
1157 17-12-2019 00:42:18 7.2 C 40 %
1158 17-12-2019 00:52:17 7.4 C 39 %
1159 17-12-2019 01:02:17 7.2 C 39 %
1160 17-12-2019 01:12:17 7.4 C 40 %
1161 17-12-2019 01:22:17 7.8 C 39 %
1162 17-12-2019 01:32:17 7.3 C 37 %
1163 17-12-2019 01:42:17 7.4 C 38 %
1164 17-12-2019 01:52:17 7.4 C 37 %
1165 17-12-2019 02:02:18 7.4 C 37 %
1166 17-12-2019 02:12:18 7.6 C 37 %
1167 17-12-2019 02:22:17 7.3 C 37 %
1168 17-12-2019 02:32:17 7.1 C 37 %
1169 17-12-2019 02:42:17 7.5 C 36 %
1170 17-12-2019 02:52:18 7.6 C 36 %
1171 17-12-2019 03:02:17 8 C 35 %
1172 17-12-2019 03:12:17 8.1 C 35 %
1173 17-12-2019 03:22:17 8.4 C 35 %
1174 17-12-2019 03:32:17 8.8 C 32 %
1175 17-12-2019 03:42:17 8.9 C 32 %
Sensor: Nr:Datum:Temp:Feuchte:
Aussen-T/F 1176 17-12-2019 03:52:18 8.8 C 32 %
1177 17-12-2019 04:02:17 8.5 C 32 %
1178 17-12-2019 04:12:17 8.5 C 32 %
1179 17-12-2019 04:22:17 8.4 C 32 %
1180 17-12-2019 04:32:17 8.4 C 32 %
1181 17-12-2019 04:42:17 8 C 32 %
1182 17-12-2019 04:52:18 8.3 C 33 %
1183 17-12-2019 05:02:17 8.5 C 33 %
1184 17-12-2019 05:12:17 8.5 C 33 %
1185 17-12-2019 05:22:17 8.2 C 33 %
1186 17-12-2019 05:32:17 8.1 C 34 %
1187 17-12-2019 05:42:17 7.9 C 35 %
1188 17-12-2019 05:52:17 7.9 C 36 %
1189 17-12-2019 06:02:17 7.8 C 36 %
1190 17-12-2019 06:12:17 7.3 C 36 %
1191 17-12-2019 06:22:18 7.3 C 38 %
1192 17-12-2019 06:32:17 7.5 C 38 %
1193 17-12-2019 06:42:17 7.6 C 36 %
1194 17-12-2019 06:52:17 7.6 C 38 %
1195 17-12-2019 07:02:17 7.7 C 36 %
1196 17-12-2019 07:12:17 7.6 C 37 %
1197 17-12-2019 07:22:17 7.5 C 36 %
1198 17-12-2019 07:32:18 7 C 37 %
1199 17-12-2019 07:42:18 7.4 C 38 %
1200 17-12-2019 07:52:17 7.2 C 36 %
Sensor: Nr:Datum:Temp:Feuchte:
Aussen-T/F 1201 17-12-2019 08:02:17 7.2 C 36 %
1202 17-12-2019 08:12:17 6.9 C 37 %
1203 17-12-2019 08:22:17 6.9 C 38 %
1204 17-12-2019 08:32:17 7 C 38 %
1205 17-12-2019 08:42:18 6.9 C 37 %
1206 17-12-2019 08:52:17 6.9 C 37 %
1207 17-12-2019 09:02:17 6.5 C 38 %
1208 17-12-2019 09:12:17 6.4 C 39 %
1209 17-12-2019 09:22:18 6.5 C 40 %
1210 17-12-2019 09:32:17 6.4 C 40 %
1211 17-12-2019 09:42:17 6.6 C 40 %
1212 17-12-2019 09:52:17 6.3 C 39 %
1213 17-12-2019 10:02:18 6.4 C 40 %
1214 17-12-2019 10:12:18 6.4 C 40 %
1215 17-12-2019 10:22:17 6.4 C 39 %
1216 17-12-2019 10:32:17 6.8 C 40 %
1217 17-12-2019 10:42:17 7.2 C 37 %
1218 17-12-2019 10:52:17 8 C 36 %
1219 17-12-2019 11:02:17 8.6 C 34 %
1220 17-12-2019 11:12:17 8.5 C 32 %
1221 17-12-2019 11:22:17 8.7 C 32 %
1222 17-12-2019 11:32:17 9 C 32 %
1223 17-12-2019 11:42:17 9.1 C 32 %
1224 17-12-2019 11:52:17 9 C 32 %
1225 17-12-2019 12:02:17 9 C 34 %
Sensor: Nr:Datum:Temp:Feuchte:
Aussen-T/F 1226 17-12-2019 12:12:17 9.2 C 34 %
1227 17-12-2019 12:22:17 9.5 C 33 %
1228 17-12-2019 12:32:17 9.7 C 32 %
1229 17-12-2019 12:42:17 9.8 C 32 %
1230 17-12-2019 12:52:17 9.6 C 32 %
1231 17-12-2019 13:02:17 10.1 C 31 %
1232 17-12-2019 13:12:17 10.4 C 30 %
1233 17-12-2019 13:22:17 10.6 C 30 %
1234 17-12-2019 13:32:17 11 C 29 %
1235 17-12-2019 13:42:17 11.6 C 28 %
1236 17-12-2019 13:52:18 12.3 C 26 %
1237 17-12-2019 14:02:17 12.5 C 26 %
1238 17-12-2019 14:12:17 12.4 C 26 %
1239 17-12-2019 14:22:17 11.6 C 27 %
1240 17-12-2019 14:32:17 11.4 C 27 %
1241 17-12-2019 14:42:17 11.5 C 27 %
1242 17-12-2019 14:52:17 11.8 C 27 %
1243 17-12-2019 15:02:17 12 C 26 %
1244 17-12-2019 15:12:17 12 C 26 %
1245 17-12-2019 15:22:17 11.8 C 27 %
1246 17-12-2019 15:32:17 11.8 C 27 %
1247 17-12-2019 15:42:17 12.3 C 25 %
1248 17-12-2019 15:52:18 12.2 C 25 %
1249 17-12-2019 16:02:17 12.4 C 25 %
1250 17-12-2019 16:12:17 12.4 C 25 %
Sensor: Nr:Datum:Temp:Feuchte:
Aussen-T/F 1251 17-12-2019 16:22:17 12.5 C 25 %
1252 17-12-2019 16:32:18 12.6 C 25 %
1253 17-12-2019 16:42:18 12.2 C 25 %
1254 17-12-2019 16:52:17 11.8 C 25 %
1255 17-12-2019 17:02:17 11.2 C 26 %
1256 17-12-2019 17:12:18 11.5 C 25 %
1257 17-12-2019 17:22:17 12 C 24 %
1258 17-12-2019 17:32:18 13.1 C 20 %
1259 17-12-2019 17:42:18 13.4 C 20 %
1260 17-12-2019 17:52:17 13.8 C 20 %
1261 17-12-2019 18:02:17 13.4 C 20 %
1262 17-12-2019 18:12:17 13.2 C 20 %
1263 17-12-2019 18:22:17 13.6 C 20 %
1264 17-12-2019 18:32:17 13.7 C 20 %
1265 17-12-2019 18:42:17 13.1 C 21 %
1266 17-12-2019 18:52:17 12.7 C 25 %
1267 17-12-2019 19:02:17 12.8 C 25 %
1268 17-12-2019 19:12:17 13.1 C 22 %
1269 17-12-2019 19:22:17 12.8 C 25 %
1270 17-12-2019 19:32:18 11.7 C 29 %
1271 17-12-2019 19:42:18 11.6 C 29 %
1272 17-12-2019 19:52:17 11.6 C 30 %
1273 17-12-2019 20:02:18 11.6 C 30 %
1274 17-12-2019 20:12:18 11.5 C 31 %
1275 17-12-2019 20:22:17 11.6 C 31 %
Sensor: Nr:Datum:Temp:Feuchte:
Aussen-T/F 1276 17-12-2019 20:32:17 11.3 C 33 %
1277 17-12-2019 20:42:17 11.2 C 35 %
1278 17-12-2019 20:52:17 11 C 36 %
1279 17-12-2019 21:02:17 10.9 C 36 %
1280 17-12-2019 21:12:17 10.5 C 38 %
1281 17-12-2019 21:22:17 10.3 C 39 %
1282 17-12-2019 21:32:17 10.4 C 38 %
1283 17-12-2019 21:42:17 11.5 C 31 %
1284 17-12-2019 21:52:17 11.3 C 31 %
1285 17-12-2019 22:02:17 13 C 25 %
1286 17-12-2019 22:12:17 12.5 C 26 %
1287 17-12-2019 22:22:17 13.1 C 25 %
1288 17-12-2019 22:32:17 13.4 C 25 %
1289 17-12-2019 22:42:17 13.2 C 25 %
1290 17-12-2019 22:52:17 13.1 C 25 %
1291 17-12-2019 23:02:17 12.4 C 26 %
1292 17-12-2019 23:12:17 11.9 C 29 %
1293 17-12-2019 23:22:17 11.3 C 30 %
1294 17-12-2019 23:32:17 11.1 C 31 %
1295 17-12-2019 23:42:17 11 C 30 %
1296 17-12-2019 23:52:17 10.8 C 33 %
1297 18-12-2019 00:02:17 10.4 C 35 %
1298 18-12-2019 00:12:17 10.4 C 34 %
1299 18-12-2019 00:22:17 10.5 C 34 %
1300 18-12-2019 00:32:18 10.9 C 31 %
Sensor: Nr:Datum:Temp:Feuchte:
Aussen-T/F 1301 18-12-2019 00:42:18 11 C 30 %
1302 18-12-2019 00:52:17 11 C 30 %
1303 18-12-2019 01:02:17 10.8 C 30 %
1304 18-12-2019 01:12:17 11 C 29 %
1305 18-12-2019 01:22:17 11.1 C 29 %
1306 18-12-2019 01:32:18 10.9 C 30 %
1307 18-12-2019 01:42:18 10.4 C 30 %
1308 18-12-2019 01:52:17 10.8 C 30 %
1309 18-12-2019 02:02:17 11.1 C 30 %
1310 18-12-2019 02:12:17 11.1 C 29 %
1311 18-12-2019 02:22:17 11.2 C 30 %
1312 18-12-2019 02:32:17 11.3 C 29 %
1313 18-12-2019 02:42:18 10.9 C 30 %
1314 18-12-2019 02:52:17 10.9 C 31 %
1315 18-12-2019 03:02:17 10.6 C 33 %
1316 18-12-2019 03:12:17 10.3 C 35 %
1317 18-12-2019 03:22:18 10.3 C 37 %
1318 18-12-2019 03:32:17 10.1 C 37 %
1319 18-12-2019 03:42:17 10 C 38 %
1320 18-12-2019 03:52:18 10.1 C 38 %
1321 18-12-2019 04:02:18 10 C 38 %
1322 18-12-2019 04:12:18 9.9 C 38 %
1323 18-12-2019 04:22:17 9.8 C 35 %
1324 18-12-2019 04:32:18 9.6 C 34 %
1325 18-12-2019 04:42:18 9.5 C 33 %
Sensor: Nr:Datum:Temp:Feuchte:
Aussen-T/F 1326 18-12-2019 04:52:17 9.3 C 33 %
1327 18-12-2019 05:02:18 9.2 C 33 %
1328 18-12-2019 05:12:18 9.1 C 33 %
1329 18-12-2019 05:22:17 8.8 C 35 %
1330 18-12-2019 05:32:17 8.7 C 36 %
1331 18-12-2019 05:42:17 8.2 C 36 %
1332 18-12-2019 05:52:17 8.2 C 39 %
1333 18-12-2019 06:02:18 8.1 C 39 %
1334 18-12-2019 06:12:18 8 C 37 %
1335 18-12-2019 06:22:17 8 C 37 %
1336 18-12-2019 06:32:18 7.9 C 37 %
1337 18-12-2019 06:42:18 7.5 C 37 %
1338 18-12-2019 06:52:17 7.4 C 39 %
1339 18-12-2019 07:02:17 7.2 C 40 %
1340 18-12-2019 07:12:17 7.3 C 40 %
1341 18-12-2019 07:22:17 7.3 C 40 %
1342 18-12-2019 07:32:17 7.1 C 39 %
1343 18-12-2019 07:42:17 6.8 C 40 %
1344 18-12-2019 07:52:17 6.9 C 41 %
1345 18-12-2019 08:02:17 6.7 C 41 %
1346 18-12-2019 08:12:17 6.5 C 41 %
1347 18-12-2019 08:22:17 6.5 C 41 %
1348 18-12-2019 08:32:17 6.3 C 41 %
1349 18-12-2019 08:42:17 6.4 C 42 %
1350 18-12-2019 08:52:17 6.6 C 42 %
Sensor: Nr:Datum:Temp:Feuchte:
Aussen-T/F 1351 18-12-2019 09:02:17 6.5 C 41 %
1352 18-12-2019 09:12:17 6.1 C 40 %
1353 18-12-2019 09:22:17 6 C 41 %
1354 18-12-2019 09:32:17 6.5 C 42 %
1355 18-12-2019 09:42:17 6.7 C 42 %
1356 18-12-2019 09:52:17 6.9 C 41 %
1357 18-12-2019 10:02:17 7 C 40 %
1358 18-12-2019 10:12:18 7.1 C 40 %
1359 18-12-2019 10:22:17 7.5 C 38 %
1360 18-12-2019 10:32:17 7.5 C 36 %
1361 18-12-2019 10:42:17 7.4 C 36 %
1362 18-12-2019 10:52:17 6.9 C 38 %
1363 18-12-2019 11:02:17 6.8 C 38 %
1364 18-12-2019 11:12:17 6.8 C 38 %
1365 18-12-2019 11:22:17 6.6 C 38 %
1366 18-12-2019 11:32:18 6.7 C 39 %
1367 18-12-2019 11:42:18 6.9 C 38 %
1368 18-12-2019 11:52:17 7.6 C 35 %
1369 18-12-2019 12:02:17 8.1 C 33 %
1370 18-12-2019 12:12:17 8 C 32 %
1371 18-12-2019 12:22:17 8.3 C 31 %
1372 18-12-2019 12:32:17 8.6 C 30 %
1373 18-12-2019 12:42:17 8.8 C 29 %
1374 18-12-2019 12:52:17 8.7 C 29 %
1375 18-12-2019 13:02:17 8.4 C 30 %
Sensor: Nr:Datum:Temp:Feuchte:
Aussen-T/F 1376 18-12-2019 13:12:17 8.2 C 30 %
1377 18-12-2019 13:22:17 7.9 C 31 %
1378 18-12-2019 13:32:18 7.8 C 32 %
1379 18-12-2019 13:42:18 7.7 C 33 %
1380 18-12-2019 13:52:17 7.8 C 32 %
1381 18-12-2019 14:02:18 7.8 C 33 %
1382 18-12-2019 14:12:18 7.7 C 33 %
1383 18-12-2019 14:22:17 7.5 C 34 %
1384 18-12-2019 14:32:17 7.3 C 35 %
1385 18-12-2019 14:42:17 7.2 C 35 %
1386 18-12-2019 14:52:17 7.2 C 35 %
1387 18-12-2019 15:02:17 7.2 C 35 %
1388 18-12-2019 15:12:17 7 C 36 %
1389 18-12-2019 15:22:17 7 C 36 %
1390 18-12-2019 15:32:17 6.7 C 37 %
1391 18-12-2019 15:42:17 6.8 C 37 %
1392 18-12-2019 15:52:17 6.7 C 36 %
1393 18-12-2019 16:02:17 6.6 C 36 %
1394 18-12-2019 16:12:17 6.5 C 36 %
1395 18-12-2019 16:22:17 6.4 C 36 %
1396 18-12-2019 16:32:17 6 C 36 %
1397 18-12-2019 16:42:17 5.8 C 37 %
1398 18-12-2019 16:52:17 5.7 C 39 %
1399 18-12-2019 17:02:17 5.3 C 38 %
1400 18-12-2019 17:12:17 4.9 C 40 %
Sensor: Nr:Datum:Temp:Feuchte:
Aussen-T/F 1401 18-12-2019 17:22:17 5 C 42 %
1402 18-12-2019 17:32:17 4.4 C 41 %
1403 18-12-2019 17:42:17 4.2 C 42 %
1404 18-12-2019 17:52:18 4.1 C 42 %
1405 18-12-2019 18:02:17 4.1 C 43 %
1406 18-12-2019 18:12:17 4.1 C 43 %
1407 18-12-2019 18:22:17 4.4 C 43 %
1408 18-12-2019 18:32:17 4.5 C 43 %
1409 18-12-2019 18:42:17 4.3 C 42 %
1410 18-12-2019 18:52:17 4.6 C 43 %
1411 18-12-2019 19:02:17 5 C 42 %
1412 18-12-2019 19:12:17 4.7 C 42 %
1413 18-12-2019 19:22:17 4.3 C 42 %
1414 18-12-2019 19:32:18 4.9 C 43 %
1415 18-12-2019 19:42:18 4.7 C 42 %
1416 18-12-2019 19:52:17 4.6 C 42 %
1417 18-12-2019 20:02:17 5 C 42 %
1418 18-12-2019 20:12:17 5 C 41 %
1419 18-12-2019 20:22:17 4.5 C 41 %
1420 18-12-2019 20:32:17 4.5 C 41 %
1421 18-12-2019 20:42:18 4.1 C 41 %
1422 18-12-2019 20:52:17 3.9 C 42 %
1423 18-12-2019 21:02:17 3.7 C 43 %
1424 18-12-2019 21:12:17 3.6 C 42 %
1425 18-12-2019 21:22:17 3.6 C 43 %
Sensor: Nr:Datum:Temp:Feuchte:
Aussen-T/F 1426 18-12-2019 21:32:17 3.7 C 43 %
1427 18-12-2019 21:42:17 3.6 C 43 %
1428 18-12-2019 21:52:17 3.4 C 43 %
1429 18-12-2019 22:02:17 3.1 C 43 %
1430 18-12-2019 22:12:17 3.1 C 43 %
1431 18-12-2019 22:22:17 2.7 C 43 %
1432 18-12-2019 22:32:17 2.6 C 43 %
1433 18-12-2019 22:42:17 2.5 C 43 %
1434 18-12-2019 22:52:17 2.4 C 43 %
1435 18-12-2019 23:02:17 2.4 C 43 %
1436 18-12-2019 23:12:17 2.3 C 43 %
1437 18-12-2019 23:22:18 2.3 C 43 %
1438 18-12-2019 23:32:17 2 C 43 %
1439 18-12-2019 23:42:17 2 C 43 %
1440 18-12-2019 23:52:17 2 C 43 %
1441 19-12-2019 00:02:18 2.3 C 44 %
1442 19-12-2019 00:12:18 2 C 43 %
1443 19-12-2019 00:22:17 2 C 43 %
1444 19-12-2019 00:32:17 2.1 C 43 %
1445 19-12-2019 00:42:17 2.4 C 44 %
1446 19-12-2019 00:52:18 2.3 C 43 %
1447 19-12-2019 01:02:17 2.1 C 43 %
1448 19-12-2019 01:12:17 2 C 43 %
1449 19-12-2019 01:22:17 2 C 43 %
1450 19-12-2019 01:32:18 1.6 C 44 %
Sensor: Nr:Datum:Temp:Feuchte:
Aussen-T/F 1451 19-12-2019 01:42:18 1.9 C 44 %
1452 19-12-2019 01:52:17 2.3 C 43 %
1453 19-12-2019 02:02:17 2.2 C 43 %
1454 19-12-2019 02:12:17 2 C 43 %
1455 19-12-2019 02:22:17 2 C 43 %
1456 19-12-2019 02:32:18 2 C 43 %
1457 19-12-2019 02:42:18 1.8 C 44 %
1458 19-12-2019 02:52:17 2.1 C 43 %
1459 19-12-2019 03:02:18 1.5 C 44 %
1460 19-12-2019 03:12:18 1.6 C 44 %
1461 19-12-2019 03:22:17 1.6 C 44 %
1462 19-12-2019 03:32:17 1.8 C 44 %
1463 19-12-2019 03:42:17 1.7 C 44 %
1464 19-12-2019 03:52:17 1.7 C 44 %
1465 19-12-2019 04:02:17 1.6 C 44 %
1466 19-12-2019 04:12:17 1.5 C 44 %
1467 19-12-2019 04:22:18 1.5 C 44 %
1468 19-12-2019 04:32:17 1.5 C 44 %
1469 19-12-2019 04:42:17 1.4 C 44 %
1470 19-12-2019 04:52:18 1.6 C 44 %
1471 19-12-2019 05:02:17 1.4 C 44 %
1472 19-12-2019 05:12:17 1.5 C 44 %
1473 19-12-2019 05:22:17 1.4 C 44 %
1474 19-12-2019 05:32:17 1.3 C 44 %
1475 19-12-2019 05:42:17 1.3 C 44 %
Sensor: Nr:Datum:Temp:Feuchte:
Aussen-T/F 1476 19-12-2019 05:52:17 1.1 C 44 %
1477 19-12-2019 06:02:17 1.1 C 44 %
1478 19-12-2019 06:12:17 1.2 C 44 %
1479 19-12-2019 06:22:17 1 C 44 %
1480 19-12-2019 06:32:17 1.1 C 44 %
1481 19-12-2019 06:42:18 1 C 43 %
1482 19-12-2019 06:52:17 0.7 C 45 %
1483 19-12-2019 07:02:17 1 C 44 %
1484 19-12-2019 07:12:17 0.9 C 45 %
1485 19-12-2019 07:22:17 1.7 C 44 %
1486 19-12-2019 07:32:17 3.5 C 43 %
1487 19-12-2019 07:42:18 3.2 C 42 %
1488 19-12-2019 07:52:17 3.1 C 42 %
1489 19-12-2019 08:02:18 4.6 C 42 %
1490 19-12-2019 08:12:18 3.8 C 42 %
1491 19-12-2019 08:22:17 3.7 C 42 %
1492 19-12-2019 08:32:18 4.6 C 41 %
1493 19-12-2019 08:42:18 4 C 41 %
1494 19-12-2019 08:52:17 3.3 C 41 %
1495 19-12-2019 09:02:17 4 C 41 %
1496 19-12-2019 09:12:17 4.4 C 41 %
1497 19-12-2019 09:22:17 4.1 C 41 %
1498 19-12-2019 09:32:17 4.6 C 41 %
1499 19-12-2019 09:42:17 4.4 C 41 %
1500 19-12-2019 09:52:17 4.5 C 41 %
Sensor: Nr:Datum:Temp:Feuchte:
Aussen-T/F 1501 19-12-2019 10:02:17 4.7 C 41 %
1502 19-12-2019 10:12:17 4.9 C 41 %
1503 19-12-2019 10:22:17 5.2 C 41 %
1504 19-12-2019 10:32:17 7 C 40 %
1505 19-12-2019 10:42:17 7.2 C 40 %
1506 19-12-2019 10:52:18 6.7 C 40 %
1507 19-12-2019 11:02:17 6.4 C 39 %
1508 19-12-2019 11:12:17 6.3 C 39 %
1509 19-12-2019 11:22:17 6.3 C 40 %
1510 19-12-2019 11:32:17 6.4 C 40 %
1511 19-12-2019 11:42:17 6.6 C 40 %
1512 19-12-2019 11:52:18 6.7 C 40 %
1513 19-12-2019 12:02:17 6.6 C 40 %
1514 19-12-2019 12:12:17 6.7 C 40 %
1515 19-12-2019 12:22:17 6.7 C 40 %
1516 19-12-2019 12:32:17 7 C 39 %
1517 19-12-2019 12:42:17 7 C 39 %
1518 19-12-2019 12:52:17 7.1 C 39 %
1519 19-12-2019 13:02:17 7.3 C 39 %
1520 19-12-2019 13:12:17 7.1 C 38 %
1521 19-12-2019 13:22:17 7.2 C 39 %
1522 19-12-2019 13:32:17 7.2 C 39 %
1523 19-12-2019 13:42:17 7.3 C 38 %
1524 19-12-2019 13:52:17 7.3 C 38 %
1525 19-12-2019 14:02:17 7.3 C 38 %
Sensor: Nr:Datum:Temp:Feuchte:
Aussen-T/F 1526 19-12-2019 14:12:17 7.1 C 38 %
1527 19-12-2019 14:22:17 7.1 C 38 %
1528 19-12-2019 14:32:17 7.2 C 38 %
1529 19-12-2019 14:42:17 7.3 C 37 %
1530 19-12-2019 14:52:17 7.9 C 36 %
1531 19-12-2019 15:02:17 8.1 C 34 %
1532 19-12-2019 15:12:17 8.1 C 33 %
1533 19-12-2019 15:22:17 8.4 C 32 %
1534 19-12-2019 15:32:18 8.6 C 32 %
1535 19-12-2019 15:42:18 8.7 C 31 %
1536 19-12-2019 15:52:17 8.8 C 31 %
1537 19-12-2019 16:02:17 8.7 C 30 %
1538 19-12-2019 16:12:17 8.3 C 31 %
1539 19-12-2019 16:22:18 8.1 C 31 %
1540 19-12-2019 16:32:17 7.9 C 32 %
1541 19-12-2019 16:42:17 7.9 C 31 %
1542 19-12-2019 16:52:17 7.6 C 32 %
1543 19-12-2019 17:02:17 7.4 C 32 %
1544 19-12-2019 17:12:17 6 C 35 %
1545 19-12-2019 17:22:17 5.7 C 37 %
1546 19-12-2019 17:32:17 5.5 C 39 %
1547 19-12-2019 17:42:17 5 C 39 %
1548 19-12-2019 17:52:17 4.9 C 41 %
1549 19-12-2019 18:02:17 5.2 C 42 %
1550 19-12-2019 18:12:18 4.9 C 42 %
Sensor: Nr:Datum:Temp:Feuchte:
Aussen-T/F 1551 19-12-2019 18:22:17 5.2 C 42 %
1552 19-12-2019 18:32:17 5 C 41 %
1553 19-12-2019 18:42:17 5 C 41 %
1554 19-12-2019 18:52:18 5.8 C 42 %
1555 19-12-2019 19:02:17 5.7 C 41 %
1556 19-12-2019 19:12:17 5.2 C 39 %
1557 19-12-2019 19:22:18 4.7 C 40 %
1558 19-12-2019 19:32:17 4.9 C 42 %
1559 19-12-2019 19:42:17 4.7 C 42 %
1560 19-12-2019 19:52:17 4.8 C 42 %
1561 19-12-2019 20:02:17 5 C 42 %
1562 19-12-2019 20:12:17 5 C 41 %
1563 19-12-2019 20:22:17 4.8 C 42 %
1564 19-12-2019 20:32:17 5.1 C 42 %
1565 19-12-2019 20:42:17 6 C 41 %
1566 19-12-2019 20:52:17 6 C 38 %
1567 19-12-2019 21:02:17 5.8 C 38 %
1568 19-12-2019 21:12:18 5.8 C 39 %
1569 19-12-2019 21:22:17 5.7 C 39 %
1570 19-12-2019 21:32:17 5.8 C 40 %
1571 19-12-2019 21:42:17 6 C 40 %
1572 19-12-2019 21:52:17 5.7 C 40 %
1573 19-12-2019 22:02:17 5.6 C 40 %
1574 19-12-2019 22:12:17 5.8 C 41 %
1575 19-12-2019 22:22:18 6.2 C 41 %
Sensor: Nr:Datum:Temp:Feuchte:
Aussen-T/F 1576 19-12-2019 22:32:18 5.9 C 40 %
1577 19-12-2019 22:42:18 5.1 C 38 %
1578 19-12-2019 22:52:17 5 C 41 %
1579 19-12-2019 23:02:17 5.4 C 43 %
1580 19-12-2019 23:12:17 5.5 C 42 %
1581 19-12-2019 23:22:17 5.5 C 42 %
1582 19-12-2019 23:32:17 5.4 C 42 %
1583 19-12-2019 23:42:17 5.4 C 42 %
1584 19-12-2019 23:52:17 5.1 C 41 %
1585 20-12-2019 00:02:17 4.8 C 42 %
1586 20-12-2019 00:12:17 4.3 C 41 %
1587 20-12-2019 00:22:17 4 C 41 %
1588 20-12-2019 00:32:17 3.9 C 43 %
1589 20-12-2019 00:42:17 3.7 C 42 %
1590 20-12-2019 00:52:17 3.4 C 43 %
1591 20-12-2019 01:02:17 3.1 C 42 %
1592 20-12-2019 01:12:17 3 C 43 %
1593 20-12-2019 01:22:17 3.3 C 44 %
1594 20-12-2019 01:32:17 3.1 C 43 %
1595 20-12-2019 01:42:17 3.1 C 43 %
1596 20-12-2019 01:52:17 2.8 C 44 %
1597 20-12-2019 02:02:17 2.8 C 44 %
1598 20-12-2019 02:12:17 2.6 C 44 %
1599 20-12-2019 02:22:17 2.5 C 44 %
1600 20-12-2019 02:32:18 3.2 C 44 %
Sensor: Nr:Datum:Temp:Feuchte:
Aussen-T/F 1601 20-12-2019 02:42:18 3.4 C 44 %
1602 20-12-2019 02:52:17 3.8 C 44 %
1603 20-12-2019 03:02:17 4.7 C 42 %
1604 20-12-2019 03:12:17 4.2 C 41 %
1605 20-12-2019 03:22:17 4.6 C 41 %
1606 20-12-2019 03:32:17 4.4 C 40 %
1607 20-12-2019 03:42:17 4.4 C 40 %
1608 20-12-2019 03:52:17 4.6 C 41 %
1609 20-12-2019 04:02:17 4.4 C 40 %
1610 20-12-2019 04:12:17 4.2 C 40 %
1611 20-12-2019 04:22:17 4 C 41 %
1612 20-12-2019 04:32:18 4.8 C 42 %
1613 20-12-2019 04:42:18 4.5 C 41 %
1614 20-12-2019 04:52:17 4.7 C 40 %
1615 20-12-2019 05:02:17 4.7 C 40 %
1616 20-12-2019 05:12:17 5.3 C 38 %
1617 20-12-2019 05:22:17 5.2 C 36 %
1618 20-12-2019 05:32:17 5.3 C 36 %
1619 20-12-2019 05:42:17 5.4 C 35 %
1620 20-12-2019 05:52:18 5.5 C 35 %
1621 20-12-2019 06:02:18 5.2 C 35 %
1622 20-12-2019 06:12:18 5.3 C 35 %
1623 20-12-2019 06:22:17 5.6 C 35 %
1624 20-12-2019 06:32:17 6 C 32 %
1625 20-12-2019 06:42:17 6 C 31 %
Sensor: Nr:Datum:Temp:Feuchte:
Aussen-T/F 1626 20-12-2019 06:52:17 5.7 C 32 %
1627 20-12-2019 07:02:17 5.8 C 31 %
1628 20-12-2019 07:12:17 5.9 C 31 %
1629 20-12-2019 07:22:17 6.1 C 31 %
1630 20-12-2019 07:32:17 5.9 C 33 %
1631 20-12-2019 07:42:17 6.4 C 31 %
1632 20-12-2019 07:52:17 6.8 C 30 %
1633 20-12-2019 08:02:17 7.1 C 27 %
1634 20-12-2019 08:12:17 6.4 C 31 %
1635 20-12-2019 08:22:17 6.4 C 32 %
1636 20-12-2019 08:32:18 6.5 C 32 %
1637 20-12-2019 08:42:18 6.3 C 32 %
1638 20-12-2019 08:52:17 6.3 C 33 %
1639 20-12-2019 09:02:17 6.5 C 33 %
1640 20-12-2019 09:12:17 6.7 C 31 %
1641 20-12-2019 09:22:17 6.5 C 33 %
1642 20-12-2019 09:32:17 6.4 C 35 %
1643 20-12-2019 09:42:17 6.5 C 35 %
1644 20-12-2019 09:52:17 6.5 C 34 %
1645 20-12-2019 10:02:17 6.2 C 31 %
1646 20-12-2019 10:12:17 6 C 33 %
1647 20-12-2019 10:22:17 5.7 C 35 %
1648 20-12-2019 10:32:17 5.8 C 40 %
1649 20-12-2019 10:42:17 5.9 C 42 %
1650 20-12-2019 10:52:17 6 C 42 %
Sensor: Nr:Datum:Temp:Feuchte:
Aussen-T/F 1651 20-12-2019 11:02:17 6.1 C 42 %
1652 20-12-2019 11:12:17 6 C 42 %
1653 20-12-2019 11:22:17 6.3 C 42 %
1654 20-12-2019 11:32:17 6.5 C 42 %
1655 20-12-2019 11:42:17 6.7 C 41 %
1656 20-12-2019 11:52:17 6.8 C 40 %
1657 20-12-2019 12:02:18 7 C 39 %
1658 20-12-2019 12:12:18 7.3 C 39 %
1659 20-12-2019 12:22:18 7.5 C 39 %
1660 20-12-2019 12:32:17 7.7 C 39 %
1661 20-12-2019 12:42:18 8 C 39 %
1662 20-12-2019 12:52:17 8.1 C 38 %
1663 20-12-2019 13:02:18 8.1 C 39 %
1664 20-12-2019 13:12:18 8.2 C 39 %
1665 20-12-2019 13:22:17 8.3 C 37 %
1666 20-12-2019 13:32:17 8.4 C 36 %
1667 20-12-2019 13:42:17 8.6 C 37 %
1668 20-12-2019 13:52:17 8.5 C 36 %
1669 20-12-2019 14:02:17 8.6 C 36 %
1670 20-12-2019 14:12:17 8.6 C 35 %
1671 20-12-2019 14:22:17 8.7 C 36 %
1672 20-12-2019 14:32:17 8.7 C 36 %
1673 20-12-2019 14:42:17 8.5 C 35 %
1674 20-12-2019 14:52:18 8.3 C 36 %
1675 20-12-2019 15:02:17 8.2 C 37 %
Sensor: Nr:Datum:Temp:Feuchte:
Aussen-T/F 1676 20-12-2019 15:12:17 8.3 C 38 %
1677 20-12-2019 15:22:17 8.3 C 39 %
1678 20-12-2019 15:32:17 8.2 C 40 %
1679 20-12-2019 15:42:17 8.3 C 41 %
1680 20-12-2019 15:52:17 8.2 C 40 %
1681 20-12-2019 16:02:17 8.2 C 40 %
1682 20-12-2019 16:12:18 8.3 C 40 %
1683 20-12-2019 16:22:17 8.3 C 41 %
1684 20-12-2019 16:32:17 8.4 C 41 %
1685 20-12-2019 16:42:17 8.4 C 41 %
1686 20-12-2019 16:52:18 8.6 C 41 %
1687 20-12-2019 17:02:17 9 C 41 %
1688 20-12-2019 17:12:18 9 C 40 %
1689 20-12-2019 17:22:17 9.1 C 36 %
1690 20-12-2019 17:32:17 8.7 C 38 %
1691 20-12-2019 17:42:17 8.8 C 37 %
1692 20-12-2019 17:52:18 8.7 C 38 %
1693 20-12-2019 18:02:17 8.9 C 37 %
1694 20-12-2019 18:12:17 8.9 C 36 %
1695 20-12-2019 18:22:17 8.9 C 37 %
1696 20-12-2019 18:32:17 8.9 C 37 %
1697 20-12-2019 18:42:17 9.7 C 33 %
1698 20-12-2019 18:52:18 9.5 C 31 %
1699 20-12-2019 19:02:17 9.8 C 30 %
1700 20-12-2019 19:12:17 10.1 C 28 %
Sensor: Nr:Datum:Temp:Feuchte:
Aussen-T/F 1701 20-12-2019 19:22:17 9.9 C 29 %
1702 20-12-2019 19:32:17 9.8 C 29 %
1703 20-12-2019 19:42:17 10 C 27 %
1704 20-12-2019 19:52:18 9.7 C 29 %
1705 20-12-2019 20:02:18 9.6 C 28 %
1706 20-12-2019 20:12:18 9.5 C 28 %
1707 20-12-2019 20:22:17 9.5 C 27 %
1708 20-12-2019 20:32:18 9 C 28 %
1709 20-12-2019 20:42:18 9 C 27 %
1710 20-12-2019 20:52:17 8.9 C 28 %
1711 20-12-2019 21:02:18 8.5 C 28 %
1712 20-12-2019 21:12:18 8.6 C 28 %
1713 20-12-2019 21:22:17 8.9 C 27 %
1714 20-12-2019 21:32:17 8.7 C 27 %
1715 20-12-2019 21:42:17 8.3 C 28 %
1716 20-12-2019 21:52:17 8.3 C 28 %
1717 20-12-2019 22:02:17 8.3 C 28 %
1718 20-12-2019 22:12:17 8.1 C 28 %
1719 20-12-2019 22:22:17 8.7 C 27 %
1720 20-12-2019 22:32:17 8.9 C 26 %
1721 20-12-2019 22:42:17 8.7 C 27 %
1722 20-12-2019 22:52:17 8.7 C 27 %
1723 20-12-2019 23:02:17 8.5 C 27 %
1724 20-12-2019 23:12:17 8.4 C 27 %
1725 20-12-2019 23:22:17 8.2 C 28 %
Sensor: Nr:Datum:Temp:Feuchte:
Aussen-T/F 1726 20-12-2019 23:32:17 8 C 28 %
1727 20-12-2019 23:42:17 8.3 C 27 %
1728 20-12-2019 23:52:18 8.1 C 27 %
1729 21-12-2019 00:02:17 7.9 C 28 %
1730 21-12-2019 00:12:17 7.7 C 28 %
1731 21-12-2019 00:22:17 7.5 C 30 %
1732 21-12-2019 00:32:17 7.5 C 30 %
1733 21-12-2019 00:42:17 7.2 C 30 %
1734 21-12-2019 00:52:18 7 C 30 %
1735 21-12-2019 01:02:17 6.9 C 32 %
1736 21-12-2019 01:12:17 7.3 C 31 %
1737 21-12-2019 01:22:17 7.4 C 31 %
1738 21-12-2019 01:32:17 7.3 C 32 %
1739 21-12-2019 01:42:17 7.5 C 31 %
1740 21-12-2019 01:52:17 7.5 C 32 %
1741 21-12-2019 02:02:17 7.9 C 30 %
1742 21-12-2019 02:12:17 8 C 29 %
1743 21-12-2019 02:22:17 8.2 C 28 %
1744 21-12-2019 02:32:18 7.8 C 30 %
1745 21-12-2019 02:42:18 7.8 C 30 %
1746 21-12-2019 02:52:17 7.8 C 30 %
1747 21-12-2019 03:02:17 7.5 C 30 %
1748 21-12-2019 03:12:17 7.5 C 31 %
1749 21-12-2019 03:22:17 7.4 C 31 %
1750 21-12-2019 03:32:18 7.3 C 31 %
Sensor: Nr:Datum:Temp:Feuchte:
Aussen-T/F 1751 21-12-2019 03:42:18 7.1 C 31 %
1752 21-12-2019 03:52:17 7.1 C 32 %
1753 21-12-2019 04:02:17 6.9 C 33 %
1754 21-12-2019 04:12:17 6.7 C 36 %
1755 21-12-2019 04:22:17 6.4 C 37 %
1756 21-12-2019 04:32:18 6 C 38 %
1757 21-12-2019 04:42:18 5.9 C 38 %
1758 21-12-2019 04:52:17 5.7 C 40 %
1759 21-12-2019 05:02:17 6 C 40 %
1760 21-12-2019 05:12:17 5.6 C 39 %
1761 21-12-2019 05:22:17 5.4 C 38 %
1762 21-12-2019 05:32:18 5.4 C 38 %
1763 21-12-2019 05:42:18 5.1 C 38 %
1764 21-12-2019 05:52:17 5.3 C 40 %
1765 21-12-2019 06:02:17 4.9 C 41 %
1766 21-12-2019 06:12:17 4.8 C 41 %
1767 21-12-2019 06:22:18 4.3 C 40 %
1768 21-12-2019 06:32:17 4.3 C 42 %
1769 21-12-2019 06:42:17 5 C 40 %
1770 21-12-2019 06:52:18 3.8 C 41 %
1771 21-12-2019 07:02:17 3.8 C 43 %
1772 21-12-2019 07:12:18 3.5 C 42 %
1773 21-12-2019 07:22:17 3.4 C 43 %
1774 21-12-2019 07:32:17 3.3 C 43 %
1775 21-12-2019 07:42:17 3 C 42 %
Sensor: Nr:Datum:Temp:Feuchte:
Aussen-T/F 1776 21-12-2019 07:52:17 3 C 43 %
1777 21-12-2019 08:02:17 3.1 C 44 %
1778 21-12-2019 08:12:17 3.6 C 44 %
1779 21-12-2019 08:22:17 3.7 C 44 %
1780 21-12-2019 08:32:17 3.9 C 43 %
1781 21-12-2019 08:42:17 4.6 C 43 %
1782 21-12-2019 08:52:17 4.9 C 42 %
1783 21-12-2019 09:02:17 5 C 39 %
1784 21-12-2019 09:12:17 4.5 C 38 %
1785 21-12-2019 09:22:17 4.4 C 38 %
1786 21-12-2019 09:32:17 4.4 C 39 %
1787 21-12-2019 09:42:17 4.6 C 40 %
1788 21-12-2019 09:52:17 4.6 C 38 %
1789 21-12-2019 10:02:17 4.8 C 38 %
1790 21-12-2019 10:12:17 4.8 C 37 %
1791 21-12-2019 10:22:17 5.1 C 37 %
1792 21-12-2019 10:32:17 5.2 C 36 %
1793 21-12-2019 10:42:17 5.1 C 37 %
1794 21-12-2019 10:52:17 5.2 C 37 %
1795 21-12-2019 11:02:17 5.3 C 37 %
1796 21-12-2019 11:12:17 5.3 C 37 %
1797 21-12-2019 11:22:17 5.4 C 37 %
1798 21-12-2019 11:32:17 5.8 C 37 %
1799 21-12-2019 11:42:17 5.9 C 37 %
1800 21-12-2019 11:52:17 5.8 C 37 %
Sensor: Nr:Datum:Temp:Feuchte:
Aussen-T/F 1801 21-12-2019 12:02:17 5.8 C 36 %
1802 21-12-2019 12:12:17 6.2 C 36 %
1803 21-12-2019 12:22:17 6.2 C 35 %
1804 21-12-2019 12:32:17 7 C 32 %
1805 21-12-2019 12:42:17 6.8 C 33 %
1806 21-12-2019 12:52:17 8 C 30 %
1807 21-12-2019 13:02:17 7.8 C 30 %
1808 21-12-2019 13:12:17 7.1 C 30 %
1809 21-12-2019 13:22:17 6.9 C 31 %
1810 21-12-2019 13:32:17 7.2 C 30 %
1811 21-12-2019 13:42:17 8 C 28 %
1812 21-12-2019 13:52:18 7.7 C 28 %
1813 21-12-2019 14:02:17 8.3 C 27 %
1814 21-12-2019 14:12:17 8.8 C 26 %
1815 21-12-2019 14:22:17 8.2 C 27 %
1816 21-12-2019 14:32:18 8.2 C 27 %
1817 21-12-2019 14:42:18 8.5 C 27 %
1818 21-12-2019 14:52:17 8.8 C 26 %
1819 21-12-2019 15:02:18 9 C 25 %
1820 21-12-2019 15:12:18 8.7 C 26 %
1821 21-12-2019 15:22:18 8.8 C 25 %
1822 21-12-2019 15:32:17 8.7 C 25 %
1823 21-12-2019 15:42:17 8 C 26 %
1824 21-12-2019 15:52:17 7.5 C 28 %
1825 21-12-2019 16:02:17 7.7 C 27 %
Sensor: Nr:Datum:Temp:Feuchte:
Aussen-T/F 1826 21-12-2019 16:12:17 7.6 C 29 %
1827 21-12-2019 16:22:17 7.4 C 30 %
1828 21-12-2019 16:32:17 7.4 C 30 %
1829 21-12-2019 16:42:17 7.7 C 28 %
1830 21-12-2019 16:52:17 7.9 C 27 %
1831 21-12-2019 17:02:17 7.6 C 29 %
1832 21-12-2019 17:12:17 7.3 C 30 %
1833 21-12-2019 17:22:17 7.2 C 30 %
1834 21-12-2019 17:32:17 7.3 C 30 %
1835 21-12-2019 17:42:17 7.3 C 29 %
1836 21-12-2019 17:52:17 7.2 C 29 %
1837 21-12-2019 18:02:17 7.6 C 27 %
1838 21-12-2019 18:12:17 7.6 C 27 %
1839 21-12-2019 18:22:17 7.6 C 26 %
1840 21-12-2019 18:32:18 7.9 C 25 %
1841 21-12-2019 18:42:18 7.7 C 26 %
1842 21-12-2019 18:52:17 7.5 C 26 %
1843 21-12-2019 19:02:17 7.3 C 27 %
1844 21-12-2019 19:12:17 7 C 27 %
1845 21-12-2019 19:22:17 7 C 27 %
1846 21-12-2019 19:32:17 6.9 C 30 %
1847 21-12-2019 19:42:17 6.8 C 30 %
1848 21-12-2019 19:52:17 7 C 27 %
1849 21-12-2019 20:02:17 7.1 C 26 %
1850 21-12-2019 20:12:17 7.1 C 26 %
Sensor: Nr:Datum:Temp:Feuchte:
Aussen-T/F 1851 21-12-2019 20:22:17 7.1 C 26 %
1852 21-12-2019 20:32:17 6.9 C 28 %
1853 21-12-2019 20:42:17 7 C 27 %
1854 21-12-2019 20:52:17 6.8 C 27 %
1855 21-12-2019 21:02:18 6.4 C 29 %
1856 21-12-2019 21:12:18 6.1 C 30 %
1857 21-12-2019 21:22:17 6.1 C 31 %
1858 21-12-2019 21:32:17 6.3 C 31 %
1859 21-12-2019 21:42:17 5.9 C 31 %
1860 21-12-2019 21:52:18 5.1 C 34 %
1861 21-12-2019 22:02:18 4.9 C 36 %
1862 21-12-2019 22:12:18 5.2 C 34 %
1863 21-12-2019 22:22:17 5.7 C 30 %
1864 21-12-2019 22:32:17 6.1 C 27 %
1865 21-12-2019 22:42:17 6.1 C 27 %
1866 21-12-2019 22:52:17 6 C 27 %
1867 21-12-2019 23:02:17 5.8 C 27 %
1868 21-12-2019 23:12:17 5.8 C 27 %
1869 21-12-2019 23:22:17 6.3 C 26 %
1870 21-12-2019 23:32:18 6.5 C 25 %
1871 21-12-2019 23:42:18 6.7 C 25 %
1872 21-12-2019 23:52:17 6.3 C 26 %
1873 22-12-2019 00:02:17 6.8 C 26 %
1874 22-12-2019 00:12:17 6.9 C 26 %
1875 22-12-2019 00:22:17 6.8 C 26 %
Sensor: Nr:Datum:Temp:Feuchte:
Aussen-T/F 1876 22-12-2019 00:32:17 6.8 C 26 %
1877 22-12-2019 00:42:17 6.7 C 27 %
1878 22-12-2019 00:52:17 6.3 C 30 %
1879 22-12-2019 01:02:17 6.2 C 30 %
1880 22-12-2019 01:12:18 5.8 C 35 %
1881 22-12-2019 01:22:17 5.8 C 36 %
1882 22-12-2019 01:32:17 5.8 C 39 %
1883 22-12-2019 01:42:17 5.7 C 40 %
1884 22-12-2019 01:52:17 5.7 C 40 %
1885 22-12-2019 02:02:17 5.7 C 38 %
1886 22-12-2019 02:12:18 5.7 C 38 %
1887 22-12-2019 02:22:17 5.8 C 38 %
1888 22-12-2019 02:32:17 5.9 C 37 %
1889 22-12-2019 02:42:17 5.9 C 36 %
1890 22-12-2019 02:52:18 6 C 35 %
1891 22-12-2019 03:02:17 6.1 C 35 %
1892 22-12-2019 03:12:17 6.2 C 34 %
1893 22-12-2019 03:22:17 6.2 C 35 %
1894 22-12-2019 03:32:17 6.2 C 34 %
1895 22-12-2019 03:42:17 6.1 C 35 %
1896 22-12-2019 03:52:17 6.2 C 35 %
1897 22-12-2019 04:02:18 6.2 C 35 %
1898 22-12-2019 04:12:18 6 C 35 %
1899 22-12-2019 04:22:17 6.2 C 34 %
1900 22-12-2019 04:32:17 6.2 C 34 %
Sensor: Nr:Datum:Temp:Feuchte:
Aussen-T/F 1901 22-12-2019 04:42:17 6.3 C 33 %
1902 22-12-2019 04:52:17 6.3 C 33 %
1903 22-12-2019 05:02:17 6.2 C 34 %
1904 22-12-2019 05:12:17 5.8 C 34 %
1905 22-12-2019 05:22:17 5.4 C 36 %
1906 22-12-2019 05:32:17 5.7 C 40 %
1907 22-12-2019 05:42:17 6.1 C 38 %
1908 22-12-2019 05:52:17 5.5 C 35 %
1909 22-12-2019 06:02:17 5.1 C 39 %
1910 22-12-2019 06:12:17 5.3 C 41 %
1911 22-12-2019 06:22:17 4.9 C 41 %
1912 22-12-2019 06:32:17 5.4 C 42 %
1913 22-12-2019 06:42:17 5.9 C 41 %
1914 22-12-2019 06:52:17 6.2 C 39 %
1915 22-12-2019 07:02:17 6.2 C 38 %
1916 22-12-2019 07:12:17 6 C 38 %
1917 22-12-2019 07:22:17 5.7 C 38 %
1918 22-12-2019 07:32:17 5.4 C 39 %
1919 22-12-2019 07:42:17 6 C 42 %
1920 22-12-2019 07:52:17 6.1 C 41 %
1921 22-12-2019 08:02:18 6.3 C 41 %
1922 22-12-2019 08:12:18 6.2 C 40 %
1923 22-12-2019 08:22:17 5.9 C 40 %
1924 22-12-2019 08:32:17 5.8 C 41 %
1925 22-12-2019 08:42:17 6.3 C 41 %
Sensor: Nr:Datum:Temp:Feuchte:
Aussen-T/F 1926 22-12-2019 08:52:18 6.2 C 39 %
1927 22-12-2019 09:02:17 6 C 39 %
1928 22-12-2019 09:12:17 6.2 C 40 %
1929 22-12-2019 09:22:17 6.4 C 39 %
1930 22-12-2019 09:32:17 6.3 C 39 %
1931 22-12-2019 09:42:17 6.8 C 39 %
1932 22-12-2019 09:52:17 7 C 37 %
1933 22-12-2019 10:02:17 7.1 C 37 %
1934 22-12-2019 10:12:17 7.9 C 33 %
1935 22-12-2019 10:22:17 8.1 C 33 %
1936 22-12-2019 10:32:17 8.8 C 30 %
1937 22-12-2019 10:42:17 9 C 29 %
1938 22-12-2019 10:52:17 9.3 C 28 %
1939 22-12-2019 11:02:17 9.5 C 28 %
1940 22-12-2019 11:12:17 10 C 26 %
1941 22-12-2019 11:22:17 10 C 26 %
1942 22-12-2019 11:32:18 10.4 C 26 %
1943 22-12-2019 11:42:18 10.2 C 26 %
1944 22-12-2019 11:52:17 10.4 C 26 %
1945 22-12-2019 12:02:17 10.5 C 25 %
1946 22-12-2019 12:12:17 10.5 C 26 %
1947 22-12-2019 12:22:17 10.5 C 25 %
1948 22-12-2019 12:32:17 10.7 C 26 %
1949 22-12-2019 12:42:17 10.8 C 26 %
1950 22-12-2019 12:52:17 11.2 C 25 %
Sensor: Nr:Datum:Temp:Feuchte:
Aussen-T/F 1951 22-12-2019 13:02:17 11.1 C 25 %
1952 22-12-2019 13:12:17 10.8 C 25 %
1953 22-12-2019 13:22:17 10.7 C 25 %
1954 22-12-2019 13:32:17 10.7 C 25 %
1955 22-12-2019 13:42:17 10.7 C 25 %
1956 22-12-2019 13:52:17 10.8 C 25 %
1957 22-12-2019 14:02:17 11.1 C 23 %
1958 22-12-2019 14:12:17 11 C 23 %
1959 22-12-2019 14:22:17 10.8 C 23 %
1960 22-12-2019 14:32:17 10.9 C 23 %
1961 22-12-2019 14:42:17 10.8 C 23 %
1962 22-12-2019 14:52:17 10.7 C 25 %
1963 22-12-2019 15:02:17 10.6 C 25 %
1964 22-12-2019 15:12:17 10.3 C 25 %
1965 22-12-2019 15:22:17 10.1 C 25 %
1966 22-12-2019 15:32:17 9.9 C 26 %
1967 22-12-2019 15:42:17 9.7 C 26 %
1968 22-12-2019 15:52:18 9.6 C 25 %
1969 22-12-2019 16:02:18 9.6 C 25 %
1970 22-12-2019 16:12:18 9.3 C 25 %
1971 22-12-2019 16:22:17 8.9 C 26 %
1972 22-12-2019 16:32:17 8.3 C 26 %
1973 22-12-2019 16:42:17 8.4 C 27 %
1974 22-12-2019 16:52:17 7.9 C 28 %
1975 22-12-2019 17:02:18 7.5 C 30 %
Sensor: Nr:Datum:Temp:Feuchte:
Aussen-T/F 1976 22-12-2019 17:12:18 7.5 C 30 %
1977 22-12-2019 17:22:17 7.4 C 30 %
1978 22-12-2019 17:32:17 7.5 C 29 %
1979 22-12-2019 17:42:17 7.5 C 28 %
1980 22-12-2019 17:52:17 7.2 C 28 %
1981 22-12-2019 18:02:17 7.2 C 30 %
1982 22-12-2019 18:12:17 7.1 C 30 %
1983 22-12-2019 18:22:17 7.3 C 30 %
1984 22-12-2019 18:32:17 7.4 C 29 %
1985 22-12-2019 18:42:17 7.5 C 29 %
1986 22-12-2019 18:52:17 7.2 C 29 %
1987 22-12-2019 19:02:17 7.1 C 30 %
1988 22-12-2019 19:12:17 7 C 31 %
1989 22-12-2019 19:22:17 7 C 32 %
1990 22-12-2019 19:32:17 7.1 C 31 %
1991 22-12-2019 19:42:17 7.5 C 30 %
1992 22-12-2019 19:52:17 8 C 27 %
1993 22-12-2019 20:02:17 7.9 C 27 %
1994 22-12-2019 20:12:17 8.1 C 26 %
1995 22-12-2019 20:22:17 8.3 C 25 %
1996 22-12-2019 20:32:17 8.2 C 25 %
1997 22-12-2019 20:42:17 8 C 25 %
1998 22-12-2019 20:52:17 8 C 25 %
1999 22-12-2019 21:02:17 8.1 C 25 %
2000 22-12-2019 21:12:17 8.1 C 25 %
Sensor: Nr:Datum:Temp:Feuchte:
Aussen-T/F 2001 22-12-2019 21:22:17 7.8 C 25 %
2002 22-12-2019 21:32:17 8.1 C 25 %
2003 22-12-2019 21:42:17 7.8 C 26 %
2004 22-12-2019 21:52:17 7.7 C 26 %
2005 22-12-2019 22:02:17 7.9 C 26 %
2006 22-12-2019 22:12:17 7.6 C 26 %
2007 22-12-2019 22:22:17 7.5 C 26 %
2008 22-12-2019 22:32:17 7.1 C 27 %
2009 22-12-2019 22:42:17 6.9 C 28 %
2010 22-12-2019 22:52:17 6.7 C 29 %
2011 22-12-2019 23:02:17 6.2 C 31 %
2012 22-12-2019 23:12:17 6.4 C 31 %
2013 22-12-2019 23:22:17 6.6 C 31 %
2014 22-12-2019 23:32:17 6.6 C 31 %
2015 22-12-2019 23:42:17 6.7 C 31 %
2016 22-12-2019 23:52:17 6.7 C 31 %
2017 23-12-2019 00:02:17 6.6 C 32 %
2018 23-12-2019 00:12:17 6.5 C 31 %
2019 23-12-2019 00:22:17 6.4 C 32 %
2020 23-12-2019 00:32:17 6.6 C 31 %
2021 23-12-2019 00:42:17 7 C 30 %
2022 23-12-2019 00:52:17 6.9 C 30 %
2023 23-12-2019 01:02:17 6.8 C 30 %
2024 23-12-2019 01:12:17 7.1 C 28 %
2025 23-12-2019 01:22:17 7 C 28 %
Sensor: Nr:Datum:Temp:Feuchte:
Aussen-T/F 2026 23-12-2019 01:32:17 7.1 C 28 %
2027 23-12-2019 01:42:17 7.4 C 27 %
2028 23-12-2019 01:52:17 7.4 C 27 %
2029 23-12-2019 02:02:17 6.8 C 29 %
2030 23-12-2019 02:12:17 6.5 C 30 %
2031 23-12-2019 02:22:17 6.8 C 29 %
2032 23-12-2019 02:32:17 6.9 C 29 %
2033 23-12-2019 02:42:17 7.3 C 28 %
2034 23-12-2019 02:52:17 6.9 C 30 %
2035 23-12-2019 03:02:17 6.8 C 31 %
2036 23-12-2019 03:12:17 6.4 C 31 %
2037 23-12-2019 03:22:17 6.5 C 30 %
2038 23-12-2019 03:32:17 7 C 28 %
2039 23-12-2019 03:42:17 6.6 C 29 %
2040 23-12-2019 03:52:17 7 C 28 %
2041 23-12-2019 04:02:17 6.9 C 30 %
2042 23-12-2019 04:12:17 7.1 C 28 %
2043 23-12-2019 04:22:17 6.8 C 30 %
2044 23-12-2019 04:32:17 6.9 C 31 %
2045 23-12-2019 04:42:17 6.5 C 31 %
2046 23-12-2019 04:52:17 6.1 C 31 %
2047 23-12-2019 05:02:17 6.4 C 32 %
2048 23-12-2019 05:12:17 7 C 30 %
2049 23-12-2019 05:22:17 7.1 C 30 %
2050 23-12-2019 05:32:17 7 C 30 %
Sensor: Nr:Datum:Temp:Feuchte:
Aussen-T/F 2051 23-12-2019 05:42:17 6.8 C 31 %
2052 23-12-2019 05:52:17 6.3 C 32 %
2053 23-12-2019 06:02:18 6.3 C 34 %
2054 23-12-2019 06:12:18 6.6 C 33 %
2055 23-12-2019 06:22:17 6.9 C 31 %
2056 23-12-2019 06:32:18 7.1 C 30 %
2057 23-12-2019 06:42:18 6.9 C 31 %
2058 23-12-2019 06:52:17 6.9 C 31 %
2059 23-12-2019 07:02:17 6.8 C 32 %
2060 23-12-2019 07:12:17 6.8 C 34 %
2061 23-12-2019 07:22:17 6.8 C 32 %
2062 23-12-2019 07:32:17 7.1 C 30 %
2063 23-12-2019 07:42:17 7.4 C 29 %
2064 23-12-2019 07:52:17 7.1 C 30 %
2065 23-12-2019 08:02:17 7.3 C 30 %
2066 23-12-2019 08:12:17 7.4 C 28 %
2067 23-12-2019 08:22:17 7.5 C 28 %
2068 23-12-2019 08:32:18 7.5 C 28 %
2069 23-12-2019 08:42:18 7.6 C 28 %
2070 23-12-2019 08:52:17 7.6 C 27 %
2071 23-12-2019 09:02:17 7.6 C 27 %
2072 23-12-2019 09:12:18 7.7 C 27 %
2073 23-12-2019 09:22:17 7.8 C 27 %
2074 23-12-2019 09:32:18 7.8 C 27 %
2075 23-12-2019 09:42:18 7.8 C 27 %
Sensor: Nr:Datum:Temp:Feuchte:
Aussen-T/F 2076 23-12-2019 09:52:18 7.9 C 26 %
2077 23-12-2019 10:02:17 7.3 C 30 %
2078 23-12-2019 10:12:18 7 C 33 %
2079 23-12-2019 10:22:17 7 C 35 %
2080 23-12-2019 10:32:18 6.8 C 35 %
2081 23-12-2019 10:42:18 6.9 C 34 %
2082 23-12-2019 10:52:17 7.4 C 30 %
2083 23-12-2019 11:02:18 7.8 C 28 %
2084 23-12-2019 11:12:18 8.1 C 28 %
2085 23-12-2019 11:22:17 8.4 C 26 %
2086 23-12-2019 11:32:18 8.3 C 26 %
2087 23-12-2019 11:42:18 8.6 C 26 %
2088 23-12-2019 11:52:17 8.9 C 25 %
2089 23-12-2019 12:02:18 9.1 C 25 %
2090 23-12-2019 12:12:18 9.1 C 25 %
2091 23-12-2019 12:22:17 8.9 C 25 %
2092 23-12-2019 12:32:17 9 C 25 %
2093 23-12-2019 12:42:17 9.3 C 25 %
2094 23-12-2019 12:52:17 8.4 C 26 %
2095 23-12-2019 13:02:17 8.4 C 26 %
2096 23-12-2019 13:12:17 8.3 C 27 %
2097 23-12-2019 13:22:17 8.2 C 27 %
2098 23-12-2019 13:32:18 8.1 C 29 %
2099 23-12-2019 13:42:18 8.2 C 28 %
2100 23-12-2019 13:52:17 8.5 C 28 %
Sensor: Nr:Datum:Temp:Feuchte:
Aussen-T/F 2101 23-12-2019 14:02:17 8.9 C 27 %
2102 23-12-2019 14:12:17 8.9 C 26 %
2103 23-12-2019 14:22:18 9 C 25 %
2104 23-12-2019 14:32:17 9.1 C 25 %
2105 23-12-2019 14:42:17 9.1 C 25 %
2106 23-12-2019 14:52:17 8.9 C 25 %
2107 23-12-2019 15:02:18 8.7 C 26 %
2108 23-12-2019 15:12:18 9.1 C 25 %
2109 23-12-2019 15:22:17 9.1 C 25 %
2110 23-12-2019 15:32:17 9 C 25 %
2111 23-12-2019 15:42:17 9 C 25 %
2112 23-12-2019 15:52:17 8.8 C 25 %
2113 23-12-2019 16:02:17 8.8 C 25 %
2114 23-12-2019 16:12:17 8.6 C 26 %
2115 23-12-2019 16:22:18 8.5 C 25 %
2116 23-12-2019 16:32:17 8.4 C 25 %
2117 23-12-2019 16:42:17 8.5 C 25 %
2118 23-12-2019 16:52:18 8.5 C 25 %
2119 23-12-2019 17:02:17 8.2 C 25 %
2120 23-12-2019 17:12:17 8.4 C 25 %
2121 23-12-2019 17:22:17 8 C 25 %
2122 23-12-2019 17:32:17 7.9 C 25 %
2123 23-12-2019 17:42:18 7.8 C 25 %
2124 23-12-2019 17:52:17 7.8 C 25 %
2125 23-12-2019 18:02:17 7.9 C 25 %
Sensor: Nr:Datum:Temp:Feuchte:
Aussen-T/F 2126 23-12-2019 18:12:17 8 C 23 %
2127 23-12-2019 18:22:17 7.9 C 23 %
2128 23-12-2019 18:32:17 7.9 C 25 %
2129 23-12-2019 18:42:17 7.6 C 25 %
2130 23-12-2019 18:52:17 7.5 C 26 %
2131 23-12-2019 19:02:17 7.3 C 26 %
2132 23-12-2019 19:12:17 6.7 C 29 %
2133 23-12-2019 19:22:17 6.4 C 30 %
2134 23-12-2019 19:32:17 7.4 C 26 %
2135 23-12-2019 19:42:17 7 C 26 %
2136 23-12-2019 19:52:17 7 C 27 %
2137 23-12-2019 20:02:17 7 C 28 %
2138 23-12-2019 20:12:17 6.5 C 30 %
2139 23-12-2019 20:22:17 6.8 C 30 %
2140 23-12-2019 20:32:18 6.8 C 30 %
2141 23-12-2019 20:42:18 6.9 C 30 %
2142 23-12-2019 20:52:17 6.9 C 30 %
2143 23-12-2019 21:02:18 6.7 C 30 %
2144 23-12-2019 21:12:18 7.1 C 28 %
2145 23-12-2019 21:22:17 7 C 28 %
2146 23-12-2019 21:32:17 6.7 C 31 %
2147 23-12-2019 21:42:17 6.5 C 31 %
2148 23-12-2019 21:52:17 6.5 C 32 %
2149 23-12-2019 22:02:18 6.4 C 31 %
2150 23-12-2019 22:12:18 5.8 C 32 %
Sensor: Nr:Datum:Temp:Feuchte:
Aussen-T/F 2151 23-12-2019 22:22:17 5.4 C 37 %
2152 23-12-2019 22:32:17 5.7 C 33 %
2153 23-12-2019 22:42:17 5.3 C 34 %
2154 23-12-2019 22:52:17 5.5 C 34 %
2155 23-12-2019 23:02:17 5.4 C 33 %
2156 23-12-2019 23:12:17 5.5 C 32 %
2157 23-12-2019 23:22:18 5.4 C 30 %
2158 23-12-2019 23:32:17 5.8 C 30 %
2159 23-12-2019 23:42:17 4.8 C 33 %
2160 23-12-2019 23:52:17 4.8 C 36 %
2161 24-12-2019 00:02:17 5.6 C 35 %
2162 24-12-2019 00:12:17 5.8 C 32 %
2163 24-12-2019 00:22:17 5.7 C 32 %
2164 24-12-2019 00:32:18 6 C 32 %
2165 24-12-2019 00:42:18 6.1 C 31 %
2166 24-12-2019 00:52:17 6.3 C 31 %
2167 24-12-2019 01:02:17 5.6 C 32 %
2168 24-12-2019 01:12:17 5.9 C 32 %
2169 24-12-2019 01:22:17 6.1 C 30 %
2170 24-12-2019 01:32:17 6.3 C 30 %
2171 24-12-2019 01:42:17 5.9 C 31 %
2172 24-12-2019 01:52:17 5.7 C 33 %
2173 24-12-2019 02:02:17 5.7 C 35 %
2174 24-12-2019 02:12:17 5.8 C 35 %
2175 24-12-2019 02:22:17 5.6 C 35 %
Sensor: Nr:Datum:Temp:Feuchte:
Aussen-T/F 2176 24-12-2019 02:32:18 5.5 C 36 %
2177 24-12-2019 02:42:18 5.5 C 36 %
2178 24-12-2019 02:52:17 6.6 C 30 %
2179 24-12-2019 03:02:18 6.7 C 29 %
2180 24-12-2019 03:12:18 6.3 C 30 %
2181 24-12-2019 03:22:17 5.7 C 31 %
2182 24-12-2019 03:32:17 5.5 C 31 %
2183 24-12-2019 03:42:17 5.7 C 31 %
2184 24-12-2019 03:52:17 5 C 32 %
2185 24-12-2019 04:02:17 5 C 38 %
2186 24-12-2019 04:12:17 5.2 C 37 %
2187 24-12-2019 04:22:17 5.2 C 36 %
2188 24-12-2019 04:32:17 4.8 C 37 %
2189 24-12-2019 04:42:17 4.8 C 39 %
2190 24-12-2019 04:52:17 5.3 C 38 %
2191 24-12-2019 05:02:18 5.4 C 35 %
2192 24-12-2019 05:12:18 5.2 C 35 %
2193 24-12-2019 05:22:17 4.7 C 37 %
2194 24-12-2019 05:32:18 5 C 37 %
2195 24-12-2019 05:42:18 4.6 C 36 %
2196 24-12-2019 05:52:17 4.9 C 37 %
2197 24-12-2019 06:02:18 4.3 C 36 %
2198 24-12-2019 06:12:18 4.6 C 39 %
2199 24-12-2019 06:22:17 4.6 C 38 %
2200 24-12-2019 06:32:17 4.6 C 39 %
Sensor: Nr:Datum:Temp:Feuchte:
Aussen-T/F 2201 24-12-2019 06:42:17 4.5 C 38 %
2202 24-12-2019 06:52:17 4.5 C 39 %
2203 24-12-2019 07:02:17 4.8 C 37 %
2204 24-12-2019 07:12:17 5 C 36 %
2205 24-12-2019 07:22:17 5.4 C 34 %
2206 24-12-2019 07:32:17 5.6 C 33 %
2207 24-12-2019 07:42:17 5.6 C 32 %
2208 24-12-2019 07:52:17 5.8 C 32 %
2209 24-12-2019 08:02:17 5.8 C 31 %
2210 24-12-2019 08:12:17 6 C 30 %
2211 24-12-2019 08:22:17 6.2 C 29 %
2212 24-12-2019 08:32:17 6.2 C 30 %
2213 24-12-2019 08:42:17 6.3 C 30 %
2214 24-12-2019 08:52:18 6.4 C 30 %
2215 24-12-2019 09:02:17 6.5 C 29 %
2216 24-12-2019 09:12:17 6.8 C 29 %
2217 24-12-2019 09:22:17 6.8 C 28 %
2218 24-12-2019 09:32:17 6.8 C 29 %
2219 24-12-2019 09:42:17 6.8 C 28 %
2220 24-12-2019 09:52:17 6.5 C 30 %
2221 24-12-2019 10:02:17 6.4 C 30 %
2222 24-12-2019 10:12:17 6.2 C 31 %
2223 24-12-2019 10:22:17 6.2 C 33 %
2224 24-12-2019 10:32:17 6.3 C 37 %
2225 24-12-2019 10:42:17 6.8 C 37 %
Sensor: Nr:Datum:Temp:Feuchte:
Aussen-T/F 2226 24-12-2019 10:52:17 6.7 C 33 %
2227 24-12-2019 11:02:17 6.8 C 35 %
2228 24-12-2019 11:12:17 6.9 C 34 %
2229 24-12-2019 11:22:17 7.5 C 32 %
2230 24-12-2019 11:32:17 8 C 30 %
2231 24-12-2019 11:42:17 8.2 C 29 %
2232 24-12-2019 11:52:18 8 C 29 %
2233 24-12-2019 12:02:17 7.8 C 30 %
2234 24-12-2019 12:12:17 7.6 C 30 %
2235 24-12-2019 12:22:17 8 C 28 %
2236 24-12-2019 12:32:17 8.2 C 27 %
2237 24-12-2019 12:42:17 8.4 C 27 %
2238 24-12-2019 12:52:18 8.9 C 27 %
2239 24-12-2019 13:02:17 9.2 C 25 %
2240 24-12-2019 13:12:17 9.3 C 25 %
2241 24-12-2019 13:22:17 9.3 C 25 %
2242 24-12-2019 13:32:17 9.2 C 26 %
2243 24-12-2019 13:42:17 9.3 C 26 %
2244 24-12-2019 13:52:17 9.3 C 26 %
2245 24-12-2019 14:02:18 9.4 C 25 %
2246 24-12-2019 14:12:18 9.5 C 25 %
2247 24-12-2019 14:22:17 9.6 C 25 %
2248 24-12-2019 14:32:18 9.7 C 25 %
2249 24-12-2019 14:42:18 9.3 C 26 %
2250 24-12-2019 14:52:17 9.2 C 27 %
Sensor: Nr:Datum:Temp:Feuchte:
Aussen-T/F 2251 24-12-2019 15:02:18 9.1 C 27 %
2252 24-12-2019 15:12:18 9.5 C 26 %
2253 24-12-2019 15:22:17 9.8 C 25 %
2254 24-12-2019 15:32:17 10 C 22 %
2255 24-12-2019 15:42:17 10.1 C 20 %
2256 24-12-2019 15:52:17 10.5 C 20 %
2257 24-12-2019 16:02:17 10.1 C 20 %
2258 24-12-2019 16:12:17 10 C 20 %
2259 24-12-2019 16:22:17 10.2 C 20 %
2260 24-12-2019 16:32:17 9.8 C 20 %
2261 24-12-2019 16:42:17 9.7 C 21 %
2262 24-12-2019 16:52:17 10.1 C 20 %
2263 24-12-2019 17:02:17 9.8 C 20 %
2264 24-12-2019 17:12:17 9.4 C 20 %
2265 24-12-2019 17:22:18 9.6 C 20 %
2266 24-12-2019 17:32:17 8.8 C 20 %
2267 24-12-2019 17:42:17 9.1 C 20 %
2268 24-12-2019 17:52:17 9.3 C 20 %
2269 24-12-2019 18:02:17 9 C 20 %
2270 24-12-2019 18:12:17 8.5 C 26 %
2271 24-12-2019 18:22:17 8.9 C 25 %
2272 24-12-2019 18:32:17 8.2 C 28 %
2273 24-12-2019 18:42:17 7.8 C 31 %
2274 24-12-2019 18:52:17 7.5 C 35 %
2275 24-12-2019 19:02:17 7.6 C 31 %
Sensor: Nr:Datum:Temp:Feuchte:
Aussen-T/F 2276 24-12-2019 19:12:17 7.3 C 31 %
2277 24-12-2019 19:22:17 6.7 C 35 %
2278 24-12-2019 19:32:17 6.5 C 40 %
2279 24-12-2019 19:42:17 6.5 C 36 %
2280 24-12-2019 19:52:17 6.2 C 36 %
2281 24-12-2019 20:02:17 6.7 C 35 %
2282 24-12-2019 20:12:17 7.3 C 30 %
2283 24-12-2019 20:22:17 7.2 C 32 %
2284 24-12-2019 20:32:18 7.1 C 30 %
2285 24-12-2019 20:42:18 7.3 C 31 %
2286 24-12-2019 20:52:17 7.3 C 30 %
2287 24-12-2019 21:02:17 7.1 C 31 %
2288 24-12-2019 21:12:17 7.7 C 30 %
2289 24-12-2019 21:22:17 7.4 C 30 %
2290 24-12-2019 21:32:17 7.6 C 30 %
2291 24-12-2019 21:42:17 7.9 C 29 %
2292 24-12-2019 21:52:17 8.1 C 28 %
2293 24-12-2019 22:02:17 8.6 C 26 %
2294 24-12-2019 22:12:17 8.5 C 26 %
2295 24-12-2019 22:22:17 8.3 C 26 %
2296 24-12-2019 22:32:17 8.4 C 26 %
2297 24-12-2019 22:42:17 8.2 C 27 %
2298 24-12-2019 22:52:17 8 C 28 %
2299 24-12-2019 23:02:17 8.4 C 27 %
2300 24-12-2019 23:12:17 8.4 C 27 %
Sensor: Nr:Datum:Temp:Feuchte:
Aussen-T/F 2301 24-12-2019 23:22:17 8.4 C 27 %
2302 24-12-2019 23:32:17 8.5 C 27 %
2303 24-12-2019 23:42:17 8.5 C 27 %
2304 24-12-2019 23:52:17 8.4 C 27 %
2305 25-12-2019 00:02:17 8.4 C 27 %
2306 25-12-2019 00:12:17 8.4 C 27 %
2307 25-12-2019 00:22:17 8.4 C 28 %
2308 25-12-2019 00:32:17 8.3 C 28 %
2309 25-12-2019 00:42:18 8.2 C 29 %
2310 25-12-2019 00:52:17 8.2 C 29 %
2311 25-12-2019 01:02:17 7.8 C 32 %
2312 25-12-2019 01:12:17 7.7 C 33 %
2313 25-12-2019 01:22:17 7.5 C 35 %
2314 25-12-2019 01:32:18 7.3 C 35 %
2315 25-12-2019 01:42:18 7.5 C 35 %
2316 25-12-2019 01:52:17 7.6 C 33 %
2317 25-12-2019 02:02:17 7.7 C 32 %
2318 25-12-2019 02:12:17 8 C 31 %
2319 25-12-2019 02:22:17 7.9 C 31 %
2320 25-12-2019 02:32:18 7.9 C 31 %
2321 25-12-2019 02:42:18 7.9 C 31 %
2322 25-12-2019 02:52:17 7.9 C 31 %
2323 25-12-2019 03:02:17 7.8 C 31 %
2324 25-12-2019 03:12:17 7.9 C 32 %
2325 25-12-2019 03:22:17 8.1 C 31 %
Sensor: Nr:Datum:Temp:Feuchte:
Aussen-T/F 2326 25-12-2019 03:32:17 8.3 C 30 %
2327 25-12-2019 03:42:17 8.2 C 30 %
2328 25-12-2019 03:52:18 8.2 C 30 %
2329 25-12-2019 04:02:17 7.9 C 34 %
2330 25-12-2019 04:12:17 8 C 34 %
2331 25-12-2019 04:22:18 7.9 C 35 %
2332 25-12-2019 04:32:17 7.9 C 36 %
2333 25-12-2019 04:42:17 7.9 C 38 %
2334 25-12-2019 04:52:17 7.9 C 36 %
2335 25-12-2019 05:02:17 7.9 C 37 %
2336 25-12-2019 05:12:17 7.8 C 37 %
2337 25-12-2019 05:22:18 7.6 C 38 %
2338 25-12-2019 05:32:17 8 C 36 %
2339 25-12-2019 05:42:17 7.9 C 35 %
2340 25-12-2019 05:52:17 7.5 C 35 %
2341 25-12-2019 06:02:18 7.5 C 35 %
2342 25-12-2019 06:12:18 7.2 C 36 %
2343 25-12-2019 06:22:17 7.2 C 37 %
2344 25-12-2019 06:32:18 7.3 C 37 %
2345 25-12-2019 06:42:18 7.3 C 36 %
2346 25-12-2019 06:52:17 7.1 C 39 %
2347 25-12-2019 07:02:18 7.3 C 33 %
2348 25-12-2019 07:12:18 7.1 C 32 %
2349 25-12-2019 07:22:17 6.9 C 35 %
2350 25-12-2019 07:32:18 6.8 C 38 %
Sensor: Nr:Datum:Temp:Feuchte:
Aussen-T/F 2351 25-12-2019 07:42:18 6.9 C 38 %
2352 25-12-2019 07:52:17 7 C 35 %
2353 25-12-2019 08:02:18 6.8 C 32 %
2354 25-12-2019 08:12:18 6.4 C 32 %
2355 25-12-2019 08:22:17 6.2 C 33 %
2356 25-12-2019 08:32:17 6.2 C 32 %
2357 25-12-2019 08:42:17 6.5 C 32 %
2358 25-12-2019 08:52:17 6.7 C 31 %
2359 25-12-2019 09:02:17 6.9 C 30 %
2360 25-12-2019 09:12:17 6.9 C 30 %
2361 25-12-2019 09:22:18 6.8 C 30 %
2362 25-12-2019 09:32:17 7.3 C 28 %
2363 25-12-2019 09:42:17 7.3 C 27 %
2364 25-12-2019 09:52:17 7.3 C 27 %
2365 25-12-2019 10:02:17 7.1 C 29 %
2366 25-12-2019 10:12:17 7.3 C 27 %
2367 25-12-2019 10:22:18 7.6 C 26 %
2368 25-12-2019 10:32:17 7.7 C 26 %
2369 25-12-2019 10:42:17 7.8 C 25 %
2370 25-12-2019 10:52:17 7.5 C 26 %
2371 25-12-2019 11:02:17 7.5 C 26 %
2372 25-12-2019 11:12:17 7.5 C 26 %
2373 25-12-2019 11:22:17 7.7 C 26 %
2374 25-12-2019 11:32:17 7.4 C 26 %
2375 25-12-2019 11:42:17 7.4 C 27 %
Sensor: Nr:Datum:Temp:Feuchte:
Aussen-T/F 2376 25-12-2019 11:52:18 7.1 C 28 %
2377 25-12-2019 12:02:17 7.1 C 29 %
2378 25-12-2019 12:12:17 7.6 C 27 %
2379 25-12-2019 12:22:17 7.6 C 27 %
2380 25-12-2019 12:32:17 7.7 C 27 %
2381 25-12-2019 12:42:17 7.8 C 27 %
2382 25-12-2019 12:52:18 7.6 C 27 %
2383 25-12-2019 13:02:17 7.1 C 29 %
2384 25-12-2019 13:12:17 7 C 31 %
2385 25-12-2019 13:22:18 6.9 C 31 %
2386 25-12-2019 13:32:17 7.1 C 30 %
2387 25-12-2019 13:42:17 7 C 30 %
2388 25-12-2019 13:52:17 6.9 C 30 %
2389 25-12-2019 14:02:17 7.1 C 30 %
2390 25-12-2019 14:12:17 7.4 C 29 %
2391 25-12-2019 14:22:18 7.6 C 28 %
2392 25-12-2019 14:32:17 7.7 C 29 %
2393 25-12-2019 14:42:17 7.6 C 29 %
2394 25-12-2019 14:52:17 7.1 C 31 %
2395 25-12-2019 15:02:17 7.1 C 32 %
2396 25-12-2019 15:12:17 7.1 C 30 %
2397 25-12-2019 15:22:18 7.1 C 31 %
2398 25-12-2019 15:32:17 7.4 C 30 %
2399 25-12-2019 15:42:17 7.3 C 31 %
2400 25-12-2019 15:52:17 7.2 C 30 %
Sensor: Nr:Datum:Temp:Feuchte:
Aussen-T/F 2401 25-12-2019 16:02:17 7.2 C 30 %
2402 25-12-2019 16:12:17 6.9 C 31 %
2403 25-12-2019 16:22:17 6.8 C 32 %
2404 25-12-2019 16:32:17 6.7 C 35 %
2405 25-12-2019 16:42:17 6.9 C 32 %
2406 25-12-2019 16:52:17 6.9 C 31 %
2407 25-12-2019 17:02:17 6.8 C 30 %
2408 25-12-2019 17:12:17 6.7 C 30 %
2409 25-12-2019 17:22:18 6.6 C 31 %
2410 25-12-2019 17:32:17 6.2 C 31 %
2411 25-12-2019 17:42:17 5.7 C 35 %
2412 25-12-2019 17:52:18 5.9 C 35 %
2413 25-12-2019 18:02:17 6 C 33 %
2414 25-12-2019 18:12:17 6.1 C 32 %
2415 25-12-2019 18:22:17 6.2 C 33 %
2416 25-12-2019 18:32:17 6.2 C 33 %
2417 25-12-2019 18:42:17 6.2 C 32 %
2418 25-12-2019 18:52:17 6.2 C 32 %
2419 25-12-2019 19:02:17 6 C 33 %
2420 25-12-2019 19:12:17 5.9 C 33 %
2421 25-12-2019 19:22:17 6.1 C 32 %
2422 25-12-2019 19:32:18 6.1 C 32 %
2423 25-12-2019 19:42:18 6 C 33 %
2424 25-12-2019 19:52:17 5.9 C 33 %
2425 25-12-2019 20:02:17 5.8 C 35 %
Sensor: Nr:Datum:Temp:Feuchte:
Aussen-T/F 2426 25-12-2019 20:12:17 5.9 C 35 %
2427 25-12-2019 20:22:18 5.9 C 34 %
2428 25-12-2019 20:32:17 5.8 C 34 %
2429 25-12-2019 20:42:17 5.6 C 37 %
2430 25-12-2019 20:52:17 5.5 C 38 %
2431 25-12-2019 21:02:18 5.5 C 38 %
2432 25-12-2019 21:12:18 5.4 C 40 %
2433 25-12-2019 21:22:17 5.3 C 41 %
2434 25-12-2019 21:32:17 5.3 C 43 %
2435 25-12-2019 21:42:17 5.3 C 42 %
2436 25-12-2019 21:52:17 5.2 C 42 %
2437 25-12-2019 22:02:18 5.2 C 42 %
2438 25-12-2019 22:12:18 5.1 C 43 %
2439 25-12-2019 22:22:17 5.2 C 42 %
2440 25-12-2019 22:32:18 5.1 C 41 %
2441 25-12-2019 22:42:18 5.1 C 42 %
2442 25-12-2019 22:52:17 5.2 C 42 %
2443 25-12-2019 23:02:18 5.2 C 42 %
2444 25-12-2019 23:12:18 5.2 C 42 %
2445 25-12-2019 23:22:17 5.2 C 42 %
2446 25-12-2019 23:32:17 5.1 C 42 %
2447 25-12-2019 23:42:17 4.7 C 42 %
2448 25-12-2019 23:52:17 4.5 C 42 %
2449 26-12-2019 00:02:17 4.6 C 43 %
2450 26-12-2019 00:12:18 4 C 42 %
Sensor: Nr:Datum:Temp:Feuchte:
Aussen-T/F 2451 26-12-2019 00:22:17 3.6 C 42 %
2452 26-12-2019 00:32:18 3.9 C 44 %
2453 26-12-2019 00:42:18 3.9 C 44 %
2454 26-12-2019 00:52:17 4.1 C 43 %
2455 26-12-2019 01:02:18 4.4 C 43 %
2456 26-12-2019 01:12:18 4.3 C 43 %
2457 26-12-2019 01:22:17 4.3 C 43 %
2458 26-12-2019 01:32:17 4.4 C 43 %
2459 26-12-2019 01:42:17 4.4 C 43 %
2460 26-12-2019 01:52:17 4.3 C 42 %
2461 26-12-2019 02:02:18 4.3 C 42 %
2462 26-12-2019 02:12:18 4.4 C 42 %
2463 26-12-2019 02:22:17 4.2 C 42 %
2464 26-12-2019 02:32:17 4 C 42 %
2465 26-12-2019 02:42:17 4 C 42 %
2466 26-12-2019 02:52:17 4.2 C 42 %
2467 26-12-2019 03:02:18 4.2 C 42 %
2468 26-12-2019 03:12:18 4.1 C 42 %
2469 26-12-2019 03:22:17 4.1 C 42 %
2470 26-12-2019 03:32:17 4.1 C 42 %
2471 26-12-2019 03:42:17 4.1 C 42 %
2472 26-12-2019 03:52:17 3.9 C 43 %
2473 26-12-2019 04:02:17 3.6 C 42 %
2474 26-12-2019 04:12:17 3.6 C 42 %
2475 26-12-2019 04:22:18 3.4 C 42 %
Sensor: Nr:Datum:Temp:Feuchte:
Aussen-T/F 2476 26-12-2019 04:32:17 3 C 42 %
2477 26-12-2019 04:42:17 3.1 C 42 %
2478 26-12-2019 04:52:17 3.1 C 43 %
2479 26-12-2019 05:02:17 3.3 C 43 %
2480 26-12-2019 05:12:17 3.5 C 43 %
2481 26-12-2019 05:22:17 3.4 C 43 %
2482 26-12-2019 05:32:18 3.5 C 43 %
2483 26-12-2019 05:42:18 3.4 C 43 %
2484 26-12-2019 05:52:17 3.5 C 43 %
2485 26-12-2019 06:02:17 3.6 C 43 %
2486 26-12-2019 06:12:18 3.6 C 43 %
2487 26-12-2019 06:22:17 3.5 C 43 %
2488 26-12-2019 06:32:18 3.6 C 43 %
2489 26-12-2019 06:42:18 3.5 C 43 %
2490 26-12-2019 06:52:17 3.5 C 43 %
2491 26-12-2019 07:02:18 3.5 C 43 %
2492 26-12-2019 07:12:18 3.5 C 43 %
2493 26-12-2019 07:22:17 3.4 C 43 %
2494 26-12-2019 07:32:17 3.4 C 43 %
2495 26-12-2019 07:42:17 3.4 C 43 %
2496 26-12-2019 07:52:17 3.4 C 43 %
2497 26-12-2019 08:02:18 3.4 C 43 %
2498 26-12-2019 08:12:18 3.4 C 43 %
2499 26-12-2019 08:22:17 3.5 C 43 %
2500 26-12-2019 08:32:17 3.4 C 43 %
Sensor: Nr:Datum:Temp:Feuchte:
Aussen-T/F 2501 26-12-2019 08:42:17 3.4 C 43 %
2502 26-12-2019 08:52:17 3.5 C 43 %
2503 26-12-2019 09:02:17 3.5 C 43 %
2504 26-12-2019 09:12:17 3.5 C 43 %
2505 26-12-2019 09:22:17 3.4 C 42 %
2506 26-12-2019 09:32:17 3.5 C 43 %
2507 26-12-2019 09:42:17 3.6 C 42 %
2508 26-12-2019 09:52:18 3.6 C 42 %
2509 26-12-2019 10:02:17 3.6 C 42 %
2510 26-12-2019 10:12:17 3.6 C 42 %
2511 26-12-2019 10:22:18 3.8 C 42 %
2512 26-12-2019 10:32:17 4 C 41 %
2513 26-12-2019 10:42:17 4.3 C 41 %
2514 26-12-2019 10:52:18 4.5 C 41 %
2515 26-12-2019 11:02:17 4.7 C 41 %
2516 26-12-2019 11:12:17 4.8 C 41 %
2517 26-12-2019 11:22:17 5 C 40 %
2518 26-12-2019 11:32:17 5.4 C 40 %
2519 26-12-2019 11:42:17 5.5 C 39 %
2520 26-12-2019 11:52:17 5.6 C 37 %
2521 26-12-2019 12:02:17 5.7 C 36 %
2522 26-12-2019 12:12:17 5.7 C 36 %
2523 26-12-2019 12:22:17 5.7 C 35 %
2524 26-12-2019 12:32:18 5.9 C 35 %
2525 26-12-2019 12:42:18 6 C 35 %
Sensor: Nr:Datum:Temp:Feuchte:
Aussen-T/F 2526 26-12-2019 12:52:17 6 C 36 %
2527 26-12-2019 13:02:18 5.9 C 36 %
2528 26-12-2019 13:12:18 5.9 C 37 %
2529 26-12-2019 13:22:17 5.8 C 36 %
2530 26-12-2019 13:32:18 5.8 C 36 %
2531 26-12-2019 13:42:18 5.7 C 36 %
2532 26-12-2019 13:52:17 5.7 C 36 %
2533 26-12-2019 14:02:18 5.7 C 36 %
2534 26-12-2019 14:12:18 5.8 C 35 %
2535 26-12-2019 14:22:17 6 C 35 %
2536 26-12-2019 14:32:17 6 C 35 %
2537 26-12-2019 14:42:17 5.7 C 35 %
2538 26-12-2019 14:52:17 5.6 C 36 %
2539 26-12-2019 15:02:17 5.5 C 36 %
2540 26-12-2019 15:12:17 5.4 C 36 %
2541 26-12-2019 15:22:17 5.1 C 38 %
2542 26-12-2019 15:32:17 5 C 37 %
2543 26-12-2019 15:42:17 4.8 C 39 %
2544 26-12-2019 15:52:18 4.8 C 39 %
2545 26-12-2019 16:02:17 4.7 C 38 %
2546 26-12-2019 16:12:17 4.6 C 39 %
2547 26-12-2019 16:22:17 4.5 C 40 %
2548 26-12-2019 16:32:17 4.4 C 41 %
2549 26-12-2019 16:42:18 4.4 C 40 %
2550 26-12-2019 16:53:17 4.3 C 41 %
Sensor: Nr:Datum:Temp:Feuchte:
Aussen-T/F 2551 26-12-2019 17:02:17 4.4 C 40 %
2552 26-12-2019 17:12:17 4.3 C 40 %
2553 26-12-2019 17:22:17 4.3 C 40 %
2554 26-12-2019 17:32:17 4.4 C 40 %
2555 26-12-2019 17:42:17 4.1 C 40 %
2556 26-12-2019 17:52:17 4.1 C 40 %
2557 26-12-2019 18:02:17 4 C 40 %
2558 26-12-2019 18:12:17 4 C 41 %
2559 26-12-2019 18:22:17 4.1 C 41 %
2560 26-12-2019 18:32:17 4.1 C 41 %
2561 26-12-2019 18:42:18 4.1 C 40 %
2562 26-12-2019 18:53:17 4.1 C 40 %
2563 26-12-2019 19:02:17 4 C 40 %
2564 26-12-2019 19:12:17 4 C 41 %
2565 26-12-2019 19:23:17 4 C 41 %
2566 26-12-2019 19:32:17 3.8 C 41 %
2567 26-12-2019 19:42:17 4 C 41 %
2568 26-12-2019 19:53:17 3.8 C 41 %
2569 26-12-2019 20:02:17 3.8 C 42 %
2570 26-12-2019 20:12:17 3.9 C 42 %
2571 26-12-2019 20:23:17 4 C 41 %
2572 26-12-2019 20:32:17 4.1 C 40 %
2573 26-12-2019 20:42:17 4.2 C 39 %
2574 26-12-2019 20:53:17 4.1 C 38 %
2575 26-12-2019 21:02:17 4.3 C 37 %
Sensor: Nr:Datum:Temp:Feuchte:
Aussen-T/F 2576 26-12-2019 21:12:17 4.2 C 38 %
2577 26-12-2019 21:23:17 4.1 C 38 %
2578 26-12-2019 21:32:18 4.1 C 38 %
2579 26-12-2019 21:42:18 4.2 C 37 %
2580 26-12-2019 21:52:17 4.3 C 37 %
2581 26-12-2019 22:02:18 4.1 C 39 %
2582 26-12-2019 22:12:18 4.1 C 41 %
2583 26-12-2019 22:22:17 4.1 C 41 %
2584 26-12-2019 22:33:17 4.1 C 41 %
2585 26-12-2019 22:43:17 4.1 C 42 %
2586 26-12-2019 22:52:17 4.1 C 42 %
2587 26-12-2019 23:03:17 4.1 C 43 %
2588 26-12-2019 23:13:17 4.1 C 43 %
2589 26-12-2019 23:23:17 4 C 43 %
2590 26-12-2019 23:32:17 4 C 43 %
2591 26-12-2019 23:42:17 4 C 42 %
2592 26-12-2019 23:53:17 4 C 42 %
2593 27-12-2019 00:02:17 4 C 42 %
2594 27-12-2019 00:12:17 4 C 42 %
2595 27-12-2019 00:23:17 4 C 42 %
2596 27-12-2019 00:32:17 4 C 42 %
2597 27-12-2019 00:42:18 4.1 C 42 %
2598 27-12-2019 00:53:17 4.1 C 42 %
2599 27-12-2019 01:03:18 4.1 C 42 %
2600 27-12-2019 01:13:18 4.1 C 42 %
Sensor: Nr:Datum:Temp:Feuchte:
Aussen-T/F 2601 27-12-2019 01:23:17 4.1 C 42 %
2602 27-12-2019 01:33:17 4.1 C 42 %
2603 27-12-2019 01:43:17 4.1 C 42 %
2604 27-12-2019 01:53:18 4.1 C 42 %
2605 27-12-2019 02:03:17 4.1 C 42 %
2606 27-12-2019 02:13:17 4.1 C 42 %
2607 27-12-2019 02:23:17 4.1 C 42 %
2608 27-12-2019 02:33:18 4.1 C 42 %
2609 27-12-2019 02:43:19 4.1 C 42 %
2610 27-12-2019 02:53:17 4.2 C 42 %
2611 27-12-2019 03:03:17 4.3 C 42 %
2612 27-12-2019 03:13:17 4.2 C 42 %
2613 27-12-2019 03:23:17 4.3 C 42 %
2614 27-12-2019 03:33:17 4.3 C 42 %
2615 27-12-2019 03:43:18 4.3 C 42 %
2616 27-12-2019 03:53:17 4.3 C 42 %
2617 27-12-2019 04:03:17 4.3 C 42 %
2618 27-12-2019 04:13:17 4.3 C 42 %
2619 27-12-2019 04:23:17 4.3 C 42 %
2620 27-12-2019 04:33:17 4.3 C 42 %
2621 27-12-2019 04:43:17 4.3 C 42 %
2622 27-12-2019 04:53:18 4.4 C 42 %
2623 27-12-2019 05:03:17 4.4 C 42 %
2624 27-12-2019 05:13:17 4.4 C 42 %
2625 27-12-2019 05:23:17 4.4 C 42 %
Sensor: Nr:Datum:Temp:Feuchte:
Aussen-T/F 2626 27-12-2019 05:33:17 4.3 C 42 %
2627 27-12-2019 05:43:17 4.4 C 42 %
2628 27-12-2019 05:53:17 4.4 C 42 %
2629 27-12-2019 06:03:17 4.4 C 42 %
2630 27-12-2019 06:13:17 4.4 C 42 %
2631 27-12-2019 06:23:17 4.4 C 42 %
2632 27-12-2019 06:33:17 4.4 C 42 %
2633 27-12-2019 06:43:17 4.4 C 42 %
2634 27-12-2019 06:53:17 4.4 C 42 %
2635 27-12-2019 07:03:17 4.5 C 42 %
2636 27-12-2019 07:13:17 4.4 C 42 %
2637 27-12-2019 07:23:18 4.4 C 42 %
2638 27-12-2019 07:33:17 4.4 C 42 %
2639 27-12-2019 07:43:17 4.4 C 42 %
2640 27-12-2019 07:53:17 4.3 C 42 %
2641 27-12-2019 08:03:17 4.3 C 42 %
2642 27-12-2019 08:13:17 4.3 C 42 %
2643 27-12-2019 08:23:17 4.3 C 42 %
2644 27-12-2019 08:33:17 4.3 C 42 %
2645 27-12-2019 08:43:17 4.3 C 42 %
2646 27-12-2019 08:53:18 4.3 C 42 %
2647 27-12-2019 09:03:17 4.4 C 42 %
2648 27-12-2019 09:13:17 4.4 C 42 %
2649 27-12-2019 09:23:17 4.3 C 42 %
2650 27-12-2019 09:33:17 4.5 C 42 %
Sensor: Nr:Datum:Temp:Feuchte:
Aussen-T/F 2651 27-12-2019 09:43:17 4.6 C 42 %
2652 27-12-2019 09:53:17 4.8 C 41 %
2653 27-12-2019 10:03:17 4.9 C 41 %
2654 27-12-2019 10:13:17 4.8 C 40 %
2655 27-12-2019 10:23:17 4.8 C 40 %
2656 27-12-2019 10:33:18 4.9 C 40 %
2657 27-12-2019 10:43:18 4.9 C 40 %
2658 27-12-2019 10:53:17 5 C 38 %
2659 27-12-2019 11:03:18 5 C 38 %
2660 27-12-2019 11:13:18 5.1 C 37 %
2661 27-12-2019 11:23:17 5.1 C 37 %
2662 27-12-2019 11:33:17 5.2 C 36 %
2663 27-12-2019 11:43:17 5.7 C 33 %
2664 27-12-2019 11:53:17 6 C 31 %
2665 27-12-2019 12:03:17 6.1 C 31 %
2666 27-12-2019 12:13:17 5.9 C 31 %
2667 27-12-2019 12:23:17 5.9 C 31 %
2668 27-12-2019 12:33:17 6 C 31 %
2669 27-12-2019 12:43:17 6 C 31 %
2670 27-12-2019 12:53:17 5.9 C 31 %
2671 27-12-2019 13:03:17 5.7 C 31 %
2672 27-12-2019 13:13:17 5.7 C 31 %
2673 27-12-2019 13:23:17 5.6 C 31 %
2674 27-12-2019 13:33:17 5.7 C 31 %
2675 27-12-2019 13:43:17 5.7 C 30 %
Sensor: Nr:Datum:Temp:Feuchte:
Aussen-T/F 2676 27-12-2019 13:53:17 5.8 C 30 %
2677 27-12-2019 14:03:18 5.9 C 30 %
2678 27-12-2019 14:13:18 6.1 C 29 %
2679 27-12-2019 14:23:18 5.9 C 29 %
2680 27-12-2019 14:33:17 6 C 30 %
2681 27-12-2019 14:43:17 5.9 C 28 %
2682 27-12-2019 14:53:18 5.8 C 26 %
2683 27-12-2019 15:03:17 5.7 C 27 %
2684 27-12-2019 15:13:17 5.7 C 28 %
2685 27-12-2019 15:23:18 5.6 C 29 %
2686 27-12-2019 15:33:17 5.6 C 29 %
2687 27-12-2019 15:43:17 5.4 C 30 %
2688 27-12-2019 15:53:17 5.3 C 31 %
2689 27-12-2019 16:03:17 5.1 C 33 %
2690 27-12-2019 16:13:17 4.9 C 33 %
2691 27-12-2019 16:23:17 4.9 C 33 %
2692 27-12-2019 16:33:17 4.8 C 34 %
2693 27-12-2019 16:43:17 4.7 C 33 %
2694 27-12-2019 16:53:17 4.6 C 34 %
2695 27-12-2019 17:03:17 4.5 C 34 %
2696 27-12-2019 17:13:17 4.5 C 35 %
2697 27-12-2019 17:23:17 4.5 C 33 %
2698 27-12-2019 17:33:18 4.5 C 34 %
2699 27-12-2019 17:43:18 4.5 C 34 %
2700 27-12-2019 17:53:17 4.4 C 34 %
Sensor: Nr:Datum:Temp:Feuchte:
Aussen-T/F 2701 27-12-2019 18:03:18 4.4 C 33 %
2702 27-12-2019 18:13:18 4.4 C 33 %
2703 27-12-2019 18:23:17 4.4 C 32 %
2704 27-12-2019 18:33:18 4.4 C 34 %
2705 27-12-2019 18:43:18 4.3 C 34 %
2706 27-12-2019 18:53:17 4.2 C 33 %
2707 27-12-2019 19:03:17 4.2 C 33 %
2708 27-12-2019 19:13:17 4.2 C 33 %
2709 27-12-2019 19:23:17 4.3 C 32 %
2710 27-12-2019 19:33:17 4.2 C 33 %
2711 27-12-2019 19:43:17 4.1 C 34 %
2712 27-12-2019 19:53:18 3.9 C 35 %
2713 27-12-2019 20:03:17 3.8 C 34 %
2714 27-12-2019 20:13:17 4 C 32 %
2715 27-12-2019 20:23:17 4 C 32 %
2716 27-12-2019 20:33:18 4 C 32 %
2717 27-12-2019 20:43:18 4 C 31 %
2718 27-12-2019 20:53:17 4.1 C 31 %
2719 27-12-2019 21:03:18 4.1 C 31 %
2720 27-12-2019 21:13:18 4 C 31 %
2721 27-12-2019 21:23:17 4 C 31 %
2722 27-12-2019 21:33:18 3.9 C 33 %
2723 27-12-2019 21:43:18 3.9 C 32 %
2724 27-12-2019 21:53:17 3.7 C 32 %
2725 27-12-2019 22:03:17 3.6 C 32 %
Sensor: Nr:Datum:Temp:Feuchte:
Aussen-T/F 2726 27-12-2019 22:13:17 3.3 C 32 %
2727 27-12-2019 22:23:17 3.2 C 32 %
2728 27-12-2019 22:33:17 2.7 C 33 %
2729 27-12-2019 22:43:17 2.2 C 34 %
2730 27-12-2019 22:53:17 2 C 35 %
2731 27-12-2019 23:03:18 1.7 C 38 %
2732 27-12-2019 23:13:18 1.3 C 39 %
2733 27-12-2019 23:23:17 1.2 C 41 %
2734 27-12-2019 23:33:17 0.9 C 42 %
2735 27-12-2019 23:43:17 0.8 C 41 %
2736 27-12-2019 23:53:17 0.7 C 41 %
2737 28-12-2019 00:03:17 0.5 C 40 %
2738 28-12-2019 00:13:17 0.4 C 41 %
2739 28-12-2019 00:23:18 0.4 C 41 %
2740 28-12-2019 00:33:17 0.3 C 41 %
2741 28-12-2019 00:43:17 0.3 C 41 %
2742 28-12-2019 00:53:17 0.2 C 40 %
2743 28-12-2019 01:03:17 0.1 C 40 %
2744 28-12-2019 01:13:17 -0.2 C 43 %
2745 28-12-2019 01:23:17 -0.5 C 43 %
2746 28-12-2019 01:33:17 -0.3 C 44 %
2747 28-12-2019 01:43:17 -0.7 C 42 %
2748 28-12-2019 01:53:17 -1.1 C 43 %
2749 28-12-2019 02:03:17 -1.3 C 45 %
2750 28-12-2019 02:13:17 -1.5 C 44 %
Sensor: Nr:Datum:Temp:Feuchte:
Aussen-T/F 2751 28-12-2019 02:23:17 -1.7 C 44 %
2752 28-12-2019 02:33:18 -1.5 C 45 %
2753 28-12-2019 02:43:18 -1.5 C 45 %
2754 28-12-2019 02:53:17 -1.6 C 45 %
2755 28-12-2019 03:03:17 -1.9 C 45 %
2756 28-12-2019 03:13:18 -1.7 C 45 %
2757 28-12-2019 03:23:17 -2.1 C 45 %
2758 28-12-2019 03:33:17 -2.1 C 45 %
2759 28-12-2019 03:43:17 -2.1 C 45 %
2760 28-12-2019 03:53:18 -2.4 C 45 %
2761 28-12-2019 04:03:17 -2.4 C 45 %
2762 28-12-2019 04:13:17 -2.4 C 45 %
2763 28-12-2019 04:23:17 -2.3 C 45 %
2764 28-12-2019 04:33:17 -2.4 C 45 %
2765 28-12-2019 04:43:18 -2.3 C 45 %
2766 28-12-2019 04:53:17 -2.4 C 45 %
2767 28-12-2019 05:03:18 -2.6 C 44 %
2768 28-12-2019 05:13:18 -2.7 C 44 %
2769 28-12-2019 05:23:17 -2.5 C 45 %
2770 28-12-2019 05:33:18 -2.5 C 45 %
2771 28-12-2019 05:43:18 -2.1 C 45 %
2772 28-12-2019 05:53:17 -2.3 C 45 %
2773 28-12-2019 06:03:17 -1.8 C 45 %
2774 28-12-2019 06:13:18 -2.1 C 44 %
2775 28-12-2019 06:23:17 -2.2 C 43 %
Sensor: Nr:Datum:Temp:Feuchte:
Aussen-T/F 2776 28-12-2019 06:33:17 -2 C 44 %
2777 28-12-2019 06:43:18 -1.9 C 44 %
2778 28-12-2019 06:53:17 -2.1 C 43 %
2779 28-12-2019 07:03:18 -2 C 43 %
2780 28-12-2019 07:13:18 -2.3 C 43 %
2781 28-12-2019 07:23:17 -2.8 C 42 %
2782 28-12-2019 07:33:17 -2.3 C 43 %
2783 28-12-2019 07:43:17 -2.4 C 43 %
2784 28-12-2019 07:53:17 -2.2 C 44 %
2785 28-12-2019 08:03:17 -2.6 C 43 %
2786 28-12-2019 08:13:17 -3 C 42 %
2787 28-12-2019 08:23:18 -3.1 C 42 %
2788 28-12-2019 08:33:17 -3.2 C 42 %
2789 28-12-2019 08:43:17 -3.2 C 42 %
2790 28-12-2019 08:53:17 -2.9 C 43 %
2791 28-12-2019 09:03:18 -2.9 C 43 %
2792 28-12-2019 09:13:18 -2.8 C 43 %
2793 28-12-2019 09:23:17 -2.7 C 43 %
2794 28-12-2019 09:33:17 -2.5 C 43 %
2795 28-12-2019 09:43:17 -1.9 C 45 %
2796 28-12-2019 09:53:17 -1.7 C 45 %
2797 28-12-2019 10:03:17 -1.6 C 45 %
2798 28-12-2019 10:13:17 -1.4 C 45 %
2799 28-12-2019 10:23:17 -1.5 C 45 %
2800 28-12-2019 10:33:18 -1.3 C 45 %
Sensor: Nr:Datum:Temp:Feuchte:
Aussen-T/F 2801 28-12-2019 10:43:18 -1.3 C 45 %
2802 28-12-2019 10:53:17 -1.1 C 45 %
2803 28-12-2019 11:03:18 -1 C 44 %
2804 28-12-2019 11:13:18 -0.9 C 44 %
2805 28-12-2019 11:23:17 -0.6 C 44 %
2806 28-12-2019 11:33:17 -0.5 C 43 %
2807 28-12-2019 11:43:18 -0.3 C 42 %
2808 28-12-2019 11:53:17 -0.2 C 42 %
2809 28-12-2019 12:03:17 -0.2 C 41 %
2810 28-12-2019 12:13:17 0 C 41 %
2811 28-12-2019 12:23:17 0.2 C 41 %
2812 28-12-2019 12:33:17 0.3 C 41 %
2813 28-12-2019 12:43:18 0.4 C 40 %
2814 28-12-2019 12:53:17 0.5 C 40 %
2815 28-12-2019 13:03:18 0.7 C 40 %
2816 28-12-2019 13:13:18 0.8 C 40 %
2817 28-12-2019 13:23:17 0.8 C 40 %
2818 28-12-2019 13:33:17 0.9 C 40 %
2819 28-12-2019 13:43:17 0.8 C 40 %
2820 28-12-2019 13:53:17 0.6 C 40 %
2821 28-12-2019 14:03:17 0.6 C 41 %
2822 28-12-2019 14:13:17 0.7 C 41 %
2823 28-12-2019 14:23:17 0.8 C 40 %
2824 28-12-2019 14:33:17 0.7 C 40 %
2825 28-12-2019 14:43:17 0.6 C 40 %
Sensor: Nr:Datum:Temp:Feuchte:
Aussen-T/F 2826 28-12-2019 14:53:17 0.5 C 40 %
2827 28-12-2019 15:03:17 0.5 C 40 %
2828 28-12-2019 15:13:18 0.5 C 40 %
2829 28-12-2019 15:23:17 0.2 C 40 %
2830 28-12-2019 15:33:17 0.4 C 40 %
2831 28-12-2019 15:43:17 0.3 C 39 %
2832 28-12-2019 15:53:18 0.4 C 39 %
2833 28-12-2019 16:03:17 0.3 C 38 %
2834 28-12-2019 16:13:17 0.2 C 38 %
2835 28-12-2019 16:23:17 0 C 39 %
2836 28-12-2019 16:33:17 0 C 39 %
2837 28-12-2019 16:43:17 -0.1 C 38 %
2838 28-12-2019 16:53:17 -0.3 C 39 %
2839 28-12-2019 17:03:17 -0.4 C 39 %
2840 28-12-2019 17:13:17 -0.4 C 40 %
2841 28-12-2019 17:23:17 -0.5 C 40 %
2842 28-12-2019 17:33:18 -0.6 C 40 %
2843 28-12-2019 17:43:18 -0.7 C 41 %
2844 28-12-2019 17:53:17 -1.3 C 41 %
2845 28-12-2019 18:03:17 -1.2 C 44 %
2846 28-12-2019 18:13:17 -1.1 C 43 %
2847 28-12-2019 18:23:17 -1.1 C 43 %
2848 28-12-2019 18:33:17 -0.9 C 43 %
2849 28-12-2019 18:43:17 -1.2 C 43 %
2850 28-12-2019 18:53:17 -0.9 C 43 %
Sensor: Nr:Datum:Temp:Feuchte:
Aussen-T/F 2851 28-12-2019 19:03:17 -1.2 C 42 %
2852 28-12-2019 19:13:18 -1.7 C 42 %
2853 28-12-2019 19:23:17 -1.9 C 43 %
2854 28-12-2019 19:33:18 -1.9 C 44 %
2855 28-12-2019 19:43:18 -1.9 C 44 %
2856 28-12-2019 19:53:17 -1.8 C 44 %
2857 28-12-2019 20:03:17 -1.9 C 44 %
2858 28-12-2019 20:13:17 -1.7 C 45 %
2859 28-12-2019 20:23:17 -1.2 C 45 %
2860 28-12-2019 20:33:18 -1.2 C 43 %
2861 28-12-2019 20:43:18 -1.4 C 43 %
2862 28-12-2019 20:53:18 -1.2 C 44 %
2863 28-12-2019 21:03:17 -1.6 C 43 %
2864 28-12-2019 21:13:17 -1.3 C 44 %
2865 28-12-2019 21:23:17 -1.4 C 41 %
2866 28-12-2019 21:33:17 -1.8 C 41 %
2867 28-12-2019 21:43:18 -1.6 C 43 %
2868 28-12-2019 21:53:17 -1.7 C 42 %
2869 28-12-2019 22:03:18 -1.7 C 42 %
2870 28-12-2019 22:13:18 -2.2 C 41 %
2871 28-12-2019 22:23:17 -2.3 C 42 %
2872 28-12-2019 22:33:17 -2.3 C 42 %
2873 28-12-2019 22:43:17 -2.5 C 42 %
2874 28-12-2019 22:53:17 -2.2 C 43 %
2875 28-12-2019 23:03:17 -2.5 C 42 %
Sensor: Nr:Datum:Temp:Feuchte:
Aussen-T/F 2876 28-12-2019 23:13:17 -2.3 C 43 %
2877 28-12-2019 23:23:17 -2.3 C 43 %
2878 28-12-2019 23:33:17 -2.7 C 42 %
2879 28-12-2019 23:43:17 -2.6 C 43 %
2880 28-12-2019 23:53:17 -2.9 C 42 %
2881 29-12-2019 00:03:18 -2.6 C 43 %
2882 29-12-2019 00:13:18 -2.9 C 43 %
2883 29-12-2019 00:23:17 -3.1 C 42 %
2884 29-12-2019 00:33:17 -3.2 C 43 %
2885 29-12-2019 00:43:17 -3.1 C 43 %
2886 29-12-2019 00:53:17 -3.1 C 43 %
2887 29-12-2019 01:03:17 -3.3 C 42 %
2888 29-12-2019 01:13:17 -3.3 C 43 %
2889 29-12-2019 01:23:17 -3.5 C 42 %
2890 29-12-2019 01:33:17 -3.7 C 42 %
2891 29-12-2019 01:43:17 -3 C 44 %
2892 29-12-2019 01:53:17 -3.5 C 42 %
2893 29-12-2019 02:03:17 -3.7 C 41 %
2894 29-12-2019 02:13:17 -3.8 C 42 %
2895 29-12-2019 02:23:17 -3.3 C 43 %
2896 29-12-2019 02:33:17 -3.7 C 41 %
2897 29-12-2019 02:43:17 -3.7 C 42 %
2898 29-12-2019 02:53:18 -3.8 C 41 %
2899 29-12-2019 03:03:17 -4 C 41 %
2900 29-12-2019 03:13:17 -4 C 42 %
Sensor: Nr:Datum:Temp:Feuchte:
Aussen-T/F 2901 29-12-2019 03:23:17 -4 C 41 %
2902 29-12-2019 03:33:17 -4.1 C 41 %
2903 29-12-2019 03:43:17 -4.1 C 41 %
2904 29-12-2019 03:53:18 -4 C 42 %
2905 29-12-2019 04:03:17 -4.2 C 41 %
2906 29-12-2019 04:13:17 -3.9 C 42 %
2907 29-12-2019 04:23:17 -4.1 C 41 %
2908 29-12-2019 04:33:17 -4.1 C 41 %
2909 29-12-2019 04:43:17 -4.4 C 41 %
2910 29-12-2019 04:53:17 -4.2 C 41 %
2911 29-12-2019 05:03:17 -4.3 C 41 %
2912 29-12-2019 05:13:17 -4.5 C 41 %
2913 29-12-2019 05:23:17 -4.5 C 41 %
2914 29-12-2019 05:33:18 -4.4 C 41 %
2915 29-12-2019 05:43:18 -4.5 C 41 %
2916 29-12-2019 05:53:17 -4.7 C 41 %
2917 29-12-2019 06:03:17 -4.6 C 41 %
2918 29-12-2019 06:13:17 -4.7 C 41 %
2919 29-12-2019 06:23:17 -4.8 C 41 %
2920 29-12-2019 06:33:17 -4.8 C 41 %
2921 29-12-2019 06:43:17 -4.8 C 41 %
2922 29-12-2019 06:53:17 -4.8 C 41 %
2923 29-12-2019 07:03:17 -4.9 C 41 %
2924 29-12-2019 07:13:17 -4.9 C 41 %
2925 29-12-2019 07:23:17 -5 C 41 %
Sensor: Nr:Datum:Temp:Feuchte:
Aussen-T/F 2926 29-12-2019 07:33:17 -4.5 C 42 %
2927 29-12-2019 07:43:17 -4.7 C 41 %
2928 29-12-2019 07:53:17 -4.7 C 41 %
2929 29-12-2019 08:03:17 -4.4 C 42 %
2930 29-12-2019 08:13:17 -4.3 C 42 %
2931 29-12-2019 08:23:18 -3.9 C 43 %
2932 29-12-2019 08:33:17 -4.1 C 41 %
2933 29-12-2019 08:43:17 -4.3 C 41 %
2934 29-12-2019 08:53:17 -4.5 C 40 %
2935 29-12-2019 09:03:17 -4.1 C 42 %
2936 29-12-2019 09:13:17 -3.9 C 42 %
2937 29-12-2019 09:23:18 -4 C 41 %
2938 29-12-2019 09:33:17 -4.1 C 41 %
2939 29-12-2019 09:43:17 -4 C 41 %
2940 29-12-2019 09:53:17 -4 C 41 %
2941 29-12-2019 10:03:18 -4 C 40 %
2942 29-12-2019 10:13:18 -3.9 C 41 %
2943 29-12-2019 10:23:17 -3.5 C 42 %
2944 29-12-2019 10:33:17 -3.3 C 42 %
2945 29-12-2019 10:43:17 -3.1 C 42 %
2946 29-12-2019 10:53:17 -2.6 C 43 %
2947 29-12-2019 11:03:17 -2.1 C 43 %
2948 29-12-2019 11:13:17 -1.8 C 42 %
2949 29-12-2019 11:23:17 -1.4 C 43 %
2950 29-12-2019 11:33:17 -1.3 C 42 %
Sensor: Nr:Datum:Temp:Feuchte:
Aussen-T/F 2951 29-12-2019 11:43:18 -0.8 C 43 %
2952 29-12-2019 11:53:17 -0.4 C 42 %
2953 29-12-2019 12:03:18 -0.5 C 41 %
2954 29-12-2019 12:13:18 -0.3 C 41 %
2955 29-12-2019 12:23:17 0.1 C 40 %
2956 29-12-2019 12:33:17 0.3 C 40 %
2957 29-12-2019 12:43:17 0.5 C 40 %
2958 29-12-2019 12:53:17 0.4 C 40 %
2959 29-12-2019 13:03:17 0.7 C 38 %
2960 29-12-2019 13:13:17 1 C 37 %
2961 29-12-2019 13:23:17 1 C 37 %
2962 29-12-2019 13:33:18 1.4 C 36 %
2963 29-12-2019 13:43:18 1.4 C 38 %
2964 29-12-2019 13:53:17 1.5 C 37 %
2965 29-12-2019 14:03:17 1.5 C 36 %
2966 29-12-2019 14:13:17 1.4 C 37 %
2967 29-12-2019 14:23:17 1.7 C 36 %
2968 29-12-2019 14:33:18 1.9 C 36 %
2969 29-12-2019 14:43:18 2.2 C 34 %
2970 29-12-2019 14:53:17 2.1 C 33 %
2971 29-12-2019 15:03:17 1.9 C 34 %
2972 29-12-2019 15:13:18 2 C 31 %
2973 29-12-2019 15:23:17 2 C 27 %
2974 29-12-2019 15:33:17 1.9 C 30 %
2975 29-12-2019 15:43:17 1.5 C 32 %
Sensor: Nr:Datum:Temp:Feuchte:
Aussen-T/F 2976 29-12-2019 15:53:18 1.1 C 32 %
2977 29-12-2019 16:03:17 0.5 C 35 %
2978 29-12-2019 16:13:17 0.2 C 38 %
2979 29-12-2019 16:23:17 0.2 C 39 %
2980 29-12-2019 16:33:18 -0.3 C 39 %
2981 29-12-2019 16:43:18 -0.1 C 40 %
2982 29-12-2019 16:53:17 -0.2 C 40 %
2983 29-12-2019 17:03:17 -0.2 C 40 %
2984 29-12-2019 17:13:17 -0.3 C 39 %
2985 29-12-2019 17:23:17 -0.3 C 37 %
2986 29-12-2019 17:33:17 -0.3 C 37 %
2987 29-12-2019 17:43:17 -0.1 C 36 %
2988 29-12-2019 17:53:17 -0.2 C 38 %
2989 29-12-2019 18:03:17 -0.1 C 37 %
2990 29-12-2019 18:13:17 0.1 C 37 %
2991 29-12-2019 18:23:17 0.2 C 36 %
2992 29-12-2019 18:33:17 -0.2 C 38 %
2993 29-12-2019 18:43:17 -0.5 C 40 %
2994 29-12-2019 18:53:17 -0.8 C 40 %
2995 29-12-2019 19:03:17 -0.5 C 41 %
2996 29-12-2019 19:13:17 -0.7 C 38 %
2997 29-12-2019 19:23:18 -0.6 C 37 %
2998 29-12-2019 19:33:18 -0.6 C 35 %
2999 29-12-2019 19:43:18 -1 C 35 %
3000 29-12-2019 19:53:17 -1.1 C 36 %
Sensor: Nr:Datum:Temp:Feuchte:
Aussen-T/F 3001 29-12-2019 20:03:18 -0.9 C 34 %
3002 29-12-2019 20:13:18 -1.2 C 36 %
3003 29-12-2019 20:23:17 -0.7 C 35 %
3004 29-12-2019 20:33:17 -1.3 C 37 %
3005 29-12-2019 20:43:17 -0.9 C 39 %
3006 29-12-2019 20:53:17 -1.5 C 39 %
3007 29-12-2019 21:03:17 -1.2 C 38 %
3008 29-12-2019 21:13:17 -1.8 C 37 %
3009 29-12-2019 21:23:17 -1.8 C 40 %
3010 29-12-2019 21:33:18 -1.8 C 41 %
3011 29-12-2019 21:43:18 -2.1 C 42 %
3012 29-12-2019 21:53:17 -2.3 C 42 %
3013 29-12-2019 22:03:17 -2.2 C 43 %
3014 29-12-2019 22:13:17 -2.1 C 43 %
3015 29-12-2019 22:23:17 -2.4 C 42 %
3016 29-12-2019 22:33:17 -2.7 C 42 %
3017 29-12-2019 22:43:18 -2.7 C 43 %
3018 29-12-2019 22:53:17 -2.7 C 43 %
3019 29-12-2019 23:03:17 -2.8 C 43 %
3020 29-12-2019 23:13:17 -2.7 C 44 %
3021 29-12-2019 23:23:17 -2.8 C 43 %
3022 29-12-2019 23:33:18 -3 C 43 %
3023 29-12-2019 23:43:18 -3 C 43 %
3024 29-12-2019 23:53:17 -3 C 42 %
3025 30-12-2019 00:03:17 -3 C 42 %
Sensor: Nr:Datum:Temp:Feuchte:
Aussen-T/F 3026 30-12-2019 00:13:17 -3.1 C 41 %
3027 30-12-2019 00:23:17 -3.1 C 41 %
3028 30-12-2019 00:33:17 -3 C 42 %
3029 30-12-2019 00:43:17 -3.2 C 42 %
3030 30-12-2019 00:53:17 -3.2 C 42 %
3031 30-12-2019 01:03:17 -3.2 C 42 %
3032 30-12-2019 01:13:18 -3.1 C 44 %
3033 30-12-2019 01:23:17 -3.1 C 43 %
3034 30-12-2019 01:33:18 -3.2 C 42 %
3035 30-12-2019 01:43:18 -3.4 C 42 %
3036 30-12-2019 01:53:17 -3.5 C 42 %
3037 30-12-2019 02:03:17 -3.2 C 43 %
3038 30-12-2019 02:13:17 -3.4 C 43 %
3039 30-12-2019 02:23:17 -3.4 C 43 %
3040 30-12-2019 02:33:18 -3.4 C 43 %
3041 30-12-2019 02:43:18 -3.4 C 43 %
3042 30-12-2019 02:53:17 -3.4 C 43 %
3043 30-12-2019 03:03:17 -3.3 C 43 %
3044 30-12-2019 03:13:17 -3.4 C 43 %
3045 30-12-2019 03:23:17 -3.1 C 43 %
3046 30-12-2019 03:33:18 -3.2 C 43 %
3047 30-12-2019 03:43:18 -3.3 C 43 %
3048 30-12-2019 03:53:17 -3.5 C 43 %
3049 30-12-2019 04:03:17 -3.7 C 42 %
3050 30-12-2019 04:13:17 -3.8 C 42 %
Sensor: Nr:Datum:Temp:Feuchte:
Aussen-T/F 3051 30-12-2019 04:23:17 -3.8 C 42 %
3052 30-12-2019 04:33:17 -3.9 C 42 %
3053 30-12-2019 04:43:17 -3.9 C 42 %
3054 30-12-2019 04:53:17 -4 C 42 %
3055 30-12-2019 05:03:17 -3.9 C 42 %
3056 30-12-2019 05:13:17 -3.8 C 42 %
3057 30-12-2019 05:23:17 -3.9 C 42 %
3058 30-12-2019 05:33:17 -3.7 C 43 %
3059 30-12-2019 05:43:17 -3.8 C 43 %
3060 30-12-2019 05:53:18 -4 C 42 %
3061 30-12-2019 06:03:17 -4 C 42 %
3062 30-12-2019 06:13:17 -4 C 42 %
3063 30-12-2019 06:23:17 -3.9 C 42 %
3064 30-12-2019 06:33:17 -3.7 C 43 %
3065 30-12-2019 06:43:17 -3.9 C 42 %
3066 30-12-2019 06:53:17 -4 C 42 %
3067 30-12-2019 07:03:17 -4 C 42 %
3068 30-12-2019 07:13:17 -4.2 C 41 %
3069 30-12-2019 07:23:17 -4.4 C 42 %
3070 30-12-2019 07:33:18 -4.4 C 41 %
3071 30-12-2019 07:43:18 -4.4 C 42 %
3072 30-12-2019 07:53:17 -4.2 C 42 %
3073 30-12-2019 08:03:17 -4.4 C 41 %
3074 30-12-2019 08:13:17 -4.3 C 42 %
3075 30-12-2019 08:23:17 -4.4 C 42 %
Sensor: Nr:Datum:Temp:Feuchte:
Aussen-T/F 3076 30-12-2019 08:33:17 -4.5 C 41 %
3077 30-12-2019 08:43:17 -4 C 43 %
3078 30-12-2019 08:53:17 -4.2 C 41 %
3079 30-12-2019 09:03:18 -4.1 C 42 %
3080 30-12-2019 09:13:18 -3.9 C 42 %
3081 30-12-2019 09:23:17 -3.8 C 42 %
3082 30-12-2019 09:33:17 -3.6 C 43 %
3083 30-12-2019 09:43:17 -3.7 C 42 %
3084 30-12-2019 09:53:17 -3.7 C 42 %
3085 30-12-2019 10:03:17 -3.5 C 42 %
3086 30-12-2019 10:13:17 -3.3 C 43 %
3087 30-12-2019 10:23:17 -3.3 C 42 %
3088 30-12-2019 10:33:17 -3.3 C 42 %
3089 30-12-2019 10:43:17 -3 C 43 %
3090 30-12-2019 10:53:17 -2.9 C 42 %
3091 30-12-2019 11:03:17 -2.9 C 42 %
3092 30-12-2019 11:13:17 -2.8 C 42 %
3093 30-12-2019 11:23:17 -2.4 C 43 %
3094 30-12-2019 11:33:17 -2.1 C 42 %
3095 30-12-2019 11:43:17 -2 C 41 %
3096 30-12-2019 11:53:18 -2.1 C 40 %
3097 30-12-2019 12:03:17 -1.7 C 41 %
3098 30-12-2019 12:13:17 -1.5 C 40 %
3099 30-12-2019 12:23:17 -1.6 C 40 %
3100 30-12-2019 12:33:17 -1.4 C 41 %
Sensor: Nr:Datum:Temp:Feuchte:
Aussen-T/F 3101 30-12-2019 12:43:17 -0.7 C 39 %
3102 30-12-2019 12:53:17 -0.8 C 39 %
3103 30-12-2019 13:03:17 -0.8 C 38 %
3104 30-12-2019 13:13:17 -1 C 40 %
3105 30-12-2019 13:23:17 -1 C 41 %
3106 30-12-2019 13:33:17 -1 C 42 %
3107 30-12-2019 13:43:17 -0.6 C 42 %
3108 30-12-2019 13:53:17 -0.2 C 41 %
3109 30-12-2019 14:03:17 0.3 C 37 %
3110 30-12-2019 14:13:17 0.1 C 35 %
3111 30-12-2019 14:23:17 0.6 C 35 %
3112 30-12-2019 14:33:17 0.5 C 35 %
3113 30-12-2019 14:43:17 1 C 32 %
3114 30-12-2019 14:53:17 0.6 C 35 %
3115 30-12-2019 15:03:17 0.9 C 36 %
3116 30-12-2019 15:13:17 1.1 C 33 %
3117 30-12-2019 15:23:17 0.6 C 35 %
3118 30-12-2019 15:33:18 0.6 C 36 %
3119 30-12-2019 15:43:18 0.7 C 35 %
3120 30-12-2019 15:53:17 1.6 C 32 %
3121 30-12-2019 16:03:18 1.7 C 32 %
3122 30-12-2019 16:13:18 1.9 C 31 %
3123 30-12-2019 16:23:18 1.6 C 33 %
3124 30-12-2019 16:33:17 1.1 C 35 %
3125 30-12-2019 16:43:17 0.8 C 37 %
Sensor: Nr:Datum:Temp:Feuchte:
Aussen-T/F 3126 30-12-2019 16:53:17 0.6 C 40 %
3127 30-12-2019 17:03:17 0.7 C 40 %
3128 30-12-2019 17:13:17 0.7 C 40 %
3129 30-12-2019 17:23:18 0.6 C 40 %
3130 30-12-2019 17:33:17 0.5 C 40 %
3131 30-12-2019 17:43:17 0.5 C 40 %
3132 30-12-2019 17:53:17 0.5 C 37 %
3133 30-12-2019 18:03:17 0.3 C 36 %
3134 30-12-2019 18:13:17 -0.3 C 36 %
3135 30-12-2019 18:23:18 -0.7 C 37 %
3136 30-12-2019 18:33:18 -0.4 C 36 %
3137 30-12-2019 18:43:18 -0.2 C 36 %
3138 30-12-2019 18:53:17 -0.6 C 34 %
3139 30-12-2019 19:03:17 -1.3 C 36 %
3140 30-12-2019 19:13:17 -1 C 36 %
3141 30-12-2019 19:23:18 -1.4 C 36 %
3142 30-12-2019 19:33:17 -1.4 C 39 %
3143 30-12-2019 19:43:17 -0.4 C 33 %
3144 30-12-2019 19:53:18 0 C 32 %
3145 30-12-2019 20:03:17 -0.3 C 31 %
3146 30-12-2019 20:13:17 -1.2 C 32 %
3147 30-12-2019 20:23:17 -1.6 C 35 %
3148 30-12-2019 20:33:17 -1.6 C 36 %
3149 30-12-2019 20:43:17 -1.7 C 36 %
3150 30-12-2019 20:53:17 -1.5 C 37 %
Sensor: Nr:Datum:Temp:Feuchte:
Aussen-T/F 3151 30-12-2019 21:03:17 -1.9 C 37 %
3152 30-12-2019 21:13:17 -0.8 C 35 %
3153 30-12-2019 21:23:17 -1.1 C 35 %
3154 30-12-2019 21:33:17 -0.9 C 35 %
3155 30-12-2019 21:43:17 -0.8 C 36 %
3156 30-12-2019 21:53:17 -1.1 C 33 %
3157 30-12-2019 22:03:17 -1.5 C 35 %
3158 30-12-2019 22:13:17 -1.7 C 35 %
3159 30-12-2019 22:23:17 -1.7 C 35 %
3160 30-12-2019 22:33:17 -2.3 C 35 %
3161 30-12-2019 22:43:17 -1.8 C 35 %
3162 30-12-2019 22:53:17 -2 C 36 %
3163 30-12-2019 23:03:17 -2.3 C 36 %
3164 30-12-2019 23:13:17 -1.5 C 36 %
3165 30-12-2019 23:23:17 -0.9 C 32 %
3166 30-12-2019 23:33:17 -0.3 C 31 %
3167 30-12-2019 23:43:17 -0.9 C 31 %
3168 30-12-2019 23:53:17 -1 C 31 %
3169 31-12-2019 00:03:17 -1.2 C 32 %
3170 31-12-2019 00:13:18 -1.4 C 34 %
3171 31-12-2019 00:23:17 -1.6 C 36 %
3172 31-12-2019 00:33:18 -1.2 C 35 %
3173 31-12-2019 00:43:18 -1.5 C 35 %
3174 31-12-2019 00:53:17 -1.5 C 36 %
3175 31-12-2019 01:03:17 -1.5 C 36 %
Sensor: Nr:Datum:Temp:Feuchte:
Aussen-T/F 3176 31-12-2019 01:13:17 -0.8 C 34 %
3177 31-12-2019 01:23:18 -1.3 C 34 %
3178 31-12-2019 01:33:17 -1.6 C 37 %
3179 31-12-2019 01:43:17 -2 C 37 %
3180 31-12-2019 01:53:17 -2.3 C 38 %
3181 31-12-2019 02:03:17 -2.5 C 40 %
3182 31-12-2019 02:13:17 -2.7 C 40 %
3183 31-12-2019 02:23:18 -2.8 C 41 %
3184 31-12-2019 02:33:17 -3 C 41 %
3185 31-12-2019 02:43:17 -2.9 C 43 %
3186 31-12-2019 02:53:17 -2 C 45 %
3187 31-12-2019 03:03:17 -1.7 C 42 %
3188 31-12-2019 03:13:18 -2 C 40 %
3189 31-12-2019 03:23:17 -2.4 C 40 %
3190 31-12-2019 03:33:18 -2.5 C 41 %
3191 31-12-2019 03:43:18 -2.9 C 41 %
3192 31-12-2019 03:53:17 -2.8 C 42 %
3193 31-12-2019 04:03:17 -2.6 C 43 %
3194 31-12-2019 04:13:17 -3.1 C 42 %
3195 31-12-2019 04:23:17 -3.2 C 42 %
3196 31-12-2019 04:33:17 -3.3 C 42 %
3197 31-12-2019 04:43:18 -3.3 C 42 %
3198 31-12-2019 04:53:17 -3.2 C 43 %
3199 31-12-2019 05:03:17 -3.3 C 42 %
3200 31-12-2019 05:13:17 -3.6 C 42 %
Sensor: Nr:Datum:Temp:Feuchte:
Aussen-T/F 3201 31-12-2019 05:23:17 -3.4 C 43 %
3202 31-12-2019 05:33:17 -3.1 C 44 %
3203 31-12-2019 05:43:17 -3 C 44 %
3204 31-12-2019 05:53:17 -2.9 C 44 %
3205 31-12-2019 06:03:17 -3.1 C 43 %
3206 31-12-2019 06:13:17 -3.3 C 43 %
3207 31-12-2019 06:23:17 -3.2 C 43 %
3208 31-12-2019 06:33:17 -3.3 C 43 %
3209 31-12-2019 06:43:17 -3.4 C 43 %
3210 31-12-2019 06:53:18 -3.2 C 44 %
3211 31-12-2019 07:03:17 -3.2 C 44 %
3212 31-12-2019 07:13:17 -3 C 44 %
3213 31-12-2019 07:23:17 -3.1 C 44 %
3214 31-12-2019 07:33:17 -3 C 44 %
3215 31-12-2019 07:43:17 -2.6 C 45 %
3216 31-12-2019 07:53:18 -2.1 C 45 %
3217 31-12-2019 08:03:17 -2 C 45 %
3218 31-12-2019 08:13:17 -2 C 45 %
3219 31-12-2019 08:23:17 -1.3 C 45 %
3220 31-12-2019 08:33:17 -1 C 44 %
3221 31-12-2019 08:43:17 -1 C 43 %
3222 31-12-2019 08:53:17 -1.1 C 42 %
3223 31-12-2019 09:03:17 -1 C 43 %
3224 31-12-2019 09:13:17 -0.9 C 44 %
3225 31-12-2019 09:23:17 -1.1 C 42 %
Sensor: Nr:Datum:Temp:Feuchte:
Aussen-T/F 3226 31-12-2019 09:33:17 -1.1 C 42 %
3227 31-12-2019 09:43:17 -1.1 C 42 %
3228 31-12-2019 09:53:17 -0.9 C 43 %
3229 31-12-2019 10:03:17 -0.6 C 44 %
3230 31-12-2019 10:13:17 -0.2 C 43 %
3231 31-12-2019 10:23:17 0.1 C 41 %
3232 31-12-2019 10:33:17 0.3 C 40 %
3233 31-12-2019 10:43:17 0.3 C 38 %
3234 31-12-2019 10:53:18 0.5 C 40 %
3235 31-12-2019 11:03:17 0.8 C 41 %
3236 31-12-2019 11:13:17 0.7 C 41 %
3237 31-12-2019 11:23:17 1.2 C 40 %
3238 31-12-2019 11:33:17 1.1 C 38 %
3239 31-12-2019 11:43:17 1.5 C 40 %
3240 31-12-2019 11:53:17 1.5 C 40 %
3241 31-12-2019 12:03:18 1.8 C 31 %
3242 31-12-2019 12:13:18 2.4 C 35 %
3243 31-12-2019 12:23:17 2.6 C 33 %
3244 31-12-2019 12:33:18 2.4 C 32 %
3245 31-12-2019 12:43:18 2.8 C 30 %
3246 31-12-2019 12:53:17 2.3 C 29 %
3247 31-12-2019 13:03:18 2.4 C 28 %
3248 31-12-2019 13:13:18 2.4 C 27 %
3249 31-12-2019 13:23:17 2.8 C 27 %
3250 31-12-2019 13:33:17 2.8 C 26 %
Sensor: Nr:Datum:Temp:Feuchte:
Aussen-T/F 3251 31-12-2019 13:43:17 3.3 C 26 %
3252 31-12-2019 13:53:17 2.9 C 26 %
3253 31-12-2019 14:03:18 2.7 C 27 %
3254 31-12-2019 14:13:18 2.9 C 27 %
3255 31-12-2019 14:23:17 3.1 C 26 %
3256 31-12-2019 14:33:17 3.4 C 26 %
3257 31-12-2019 14:43:17 3.2 C 26 %
3258 31-12-2019 14:53:17 3 C 26 %
3259 31-12-2019 15:03:17 2.8 C 27 %
3260 31-12-2019 15:13:17 2.9 C 27 %
3261 31-12-2019 15:23:18 3 C 27 %
3262 31-12-2019 15:33:17 3 C 27 %
3263 31-12-2019 15:43:17 2.9 C 28 %
3264 31-12-2019 15:53:17 2.7 C 29 %
3265 31-12-2019 16:03:17 2.1 C 30 %
3266 31-12-2019 16:13:17 0.9 C 35 %
3267 31-12-2019 16:23:18 0.6 C 38 %
3268 31-12-2019 16:33:17 0.3 C 40 %
3269 31-12-2019 16:43:17 0.2 C 39 %
3270 31-12-2019 16:53:18 0.2 C 40 %
3271 31-12-2019 17:03:17 -0.1 C 41 %
3272 31-12-2019 17:13:17 -0.4 C 41 %
3273 31-12-2019 17:23:17 -0.3 C 40 %
3274 31-12-2019 17:33:17 -0.3 C 41 %
3275 31-12-2019 17:43:17 -0.6 C 43 %
Sensor: Nr:Datum:Temp:Feuchte:
Aussen-T/F 3276 31-12-2019 17:53:18 -0.7 C 43 %
3277 31-12-2019 18:03:17 -1.1 C 43 %
3278 31-12-2019 18:13:17 -1.2 C 45 %
3279 31-12-2019 18:23:17 -0.9 C 45 %
3280 31-12-2019 18:33:17 -0.8 C 45 %
3281 31-12-2019 18:43:17 -0.4 C 46 %
3282 31-12-2019 18:53:18 -0.4 C 46 %
3283 31-12-2019 19:03:17 -0.3 C 45 %
3284 31-12-2019 19:13:17 -0.1 C 46 %
3285 31-12-2019 19:23:18 0 C 45 %
3286 31-12-2019 19:33:17 0.1 C 45 %
3287 31-12-2019 19:43:17 0.2 C 45 %
3288 31-12-2019 19:53:17 0.4 C 45 %
3289 31-12-2019 20:03:18 0.5 C 45 %
3290 31-12-2019 20:13:18 0.5 C 45 %
3291 31-12-2019 20:23:17 0.4 C 45 %
3292 31-12-2019 20:33:17 0.4 C 45 %
3293 31-12-2019 20:43:17 0.3 C 43 %
3294 31-12-2019 20:53:17 0.2 C 43 %
3295 31-12-2019 21:03:17 0.2 C 43 %
3296 31-12-2019 21:13:17 0.4 C 44 %
3297 31-12-2019 21:23:18 0.4 C 44 %
3298 31-12-2019 21:33:17 0.5 C 44 %
3299 31-12-2019 21:43:17 0.6 C 43 %
3300 31-12-2019 21:53:17 0.5 C 43 %
Sensor: Nr:Datum:Temp:Feuchte:
Aussen-T/F 3301 31-12-2019 22:03:17 0.6 C 42 %
3302 31-12-2019 22:13:17 0.5 C 42 %
3303 31-12-2019 22:23:18 0.2 C 41 %
3304 31-12-2019 22:33:17 0 C 41 %
3305 31-12-2019 22:43:17 -0.2 C 42 %
3306 31-12-2019 22:53:17 -0.4 C 43 %
3307 31-12-2019 23:03:17 -0.3 C 44 %
3308 31-12-2019 23:13:17 -0.1 C 45 %
3309 31-12-2019 23:23:18 0 C 45 %
3310 31-12-2019 23:33:17 0 C 45 %
3311 31-12-2019 23:43:17 0.4 C 45 %
3312 31-12-2019 23:53:18 0.3 C 45 %
3313 01-01-2020 00:03:17 0.4 C 45 %
3314 01-01-2020 00:13:17 0.4 C 45 %
3315 01-01-2020 00:23:17 0.3 C 45 %
3316 01-01-2020 00:33:17 -0.9 C 41 %
3317 01-01-2020 00:43:17 -0.3 C 45 %
3318 01-01-2020 00:53:18 -0.5 C 44 %
3319 01-01-2020 01:03:17 -0.5 C 44 %
3320 01-01-2020 01:13:17 -0.6 C 44 %
3321 01-01-2020 01:23:17 -0.6 C 45 %
3322 01-01-2020 01:33:17 -0.7 C 45 %
3323 01-01-2020 01:43:17 -1.1 C 44 %
3324 01-01-2020 01:53:18 -0.9 C 45 %
3325 01-01-2020 02:03:17 -0.9 C 45 %
Sensor: Nr:Datum:Temp:Feuchte:
Aussen-T/F 3326 01-01-2020 02:13:17 -0.5 C 46 %
3327 01-01-2020 02:23:17 -0.2 C 45 %
3328 01-01-2020 02:33:18 -0.1 C 45 %
3329 01-01-2020 02:43:18 0 C 45 %
3330 01-01-2020 02:53:17 0.1 C 45 %
3331 01-01-2020 03:03:17 0.1 C 45 %
3332 01-01-2020 03:13:18 0.1 C 45 %
3333 01-01-2020 03:23:17 0.2 C 45 %
3334 01-01-2020 03:33:18 0.1 C 45 %
3335 01-01-2020 03:43:18 0.1 C 45 %
3336 01-01-2020 03:53:17 0.1 C 45 %
3337 01-01-2020 04:03:18 0.2 C 45 %
3338 01-01-2020 04:13:18 0.2 C 45 %
3339 01-01-2020 04:23:17 0.3 C 45 %
3340 01-01-2020 04:33:18 0.3 C 45 %
3341 01-01-2020 04:43:18 0.3 C 44 %
3342 01-01-2020 04:53:17 0.3 C 44 %
3343 01-01-2020 05:03:18 0.4 C 44 %
3344 01-01-2020 05:13:18 0.5 C 44 %
3345 01-01-2020 05:23:17 0.4 C 44 %
3346 01-01-2020 05:33:18 0.4 C 44 %
3347 01-01-2020 05:43:18 0.4 C 44 %
3348 01-01-2020 05:53:17 0.4 C 43 %
3349 01-01-2020 06:03:17 0.4 C 43 %
3350 01-01-2020 06:13:17 0.5 C 43 %
Sensor: Nr:Datum:Temp:Feuchte:
Aussen-T/F 3351 01-01-2020 06:23:17 0.4 C 42 %
3352 01-01-2020 06:33:17 0.6 C 42 %
3353 01-01-2020 06:43:17 0.6 C 42 %
3354 01-01-2020 06:53:17 0.6 C 42 %
3355 01-01-2020 07:03:18 0.6 C 41 %
3356 01-01-2020 07:13:18 0.6 C 41 %
3357 01-01-2020 07:23:17 0.6 C 41 %
3358 01-01-2020 07:33:17 0.6 C 41 %
3359 01-01-2020 07:43:17 0.6 C 41 %
3360 01-01-2020 07:53:17 0.6 C 41 %
3361 01-01-2020 08:03:17 0.6 C 41 %
3362 01-01-2020 08:13:17 0.6 C 41 %
3363 01-01-2020 08:23:18 0.7 C 40 %
3364 01-01-2020 08:33:17 0.7 C 40 %
3365 01-01-2020 08:43:17 0.7 C 40 %
3366 01-01-2020 08:53:17 0.8 C 40 %
3367 01-01-2020 09:03:17 0.8 C 40 %
3368 01-01-2020 09:13:17 1.1 C 38 %
3369 01-01-2020 09:23:17 1.3 C 38 %
3370 01-01-2020 09:33:17 1.4 C 37 %
3371 01-01-2020 09:43:17 1.5 C 37 %
3372 01-01-2020 09:53:17 1.7 C 36 %
3373 01-01-2020 10:03:18 1.9 C 36 %
3374 01-01-2020 10:13:18 2 C 34 %
3375 01-01-2020 10:23:17 2.1 C 33 %
Sensor: Nr:Datum:Temp:Feuchte:
Aussen-T/F 3376 01-01-2020 10:33:17 2.2 C 32 %
3377 01-01-2020 10:43:17 2.3 C 32 %
3378 01-01-2020 10:53:17 2.4 C 32 %
3379 01-01-2020 11:03:17 2.4 C 31 %
3380 01-01-2020 11:13:17 2.7 C 31 %
3381 01-01-2020 11:23:18 2.7 C 30 %
3382 01-01-2020 11:33:17 2.7 C 30 %
3383 01-01-2020 11:43:17 2.8 C 30 %
3384 01-01-2020 11:53:18 2.9 C 30 %
3385 01-01-2020 12:03:17 3.2 C 28 %
3386 01-01-2020 12:13:17 3 C 29 %
3387 01-01-2020 12:23:18 2.7 C 30 %
3388 01-01-2020 12:33:17 2.7 C 30 %
3389 01-01-2020 12:43:17 2.5 C 30 %
3390 01-01-2020 12:53:18 2.1 C 32 %
3391 01-01-2020 13:03:17 1.6 C 36 %
3392 01-01-2020 13:13:17 1.6 C 37 %
3393 01-01-2020 13:23:18 1.4 C 37 %
3394 01-01-2020 13:33:17 1.5 C 38 %
3395 01-01-2020 13:43:17 1.5 C 38 %
3396 01-01-2020 13:53:17 1.6 C 39 %
3397 01-01-2020 14:03:17 1.6 C 39 %
3398 01-01-2020 14:13:17 1.6 C 39 %
3399 01-01-2020 14:23:17 1.6 C 40 %
3400 01-01-2020 14:33:17 1.4 C 40 %
Sensor: Nr:Datum:Temp:Feuchte:
Aussen-T/F 3401 01-01-2020 14:43:17 1.3 C 41 %
3402 01-01-2020 14:53:17 1.2 C 41 %
3403 01-01-2020 15:03:17 1.3 C 41 %
3404 01-01-2020 15:13:17 1.2 C 41 %
3405 01-01-2020 15:23:17 1.6 C 41 %
3406 01-01-2020 15:33:17 1.7 C 38 %
3407 01-01-2020 15:43:17 1.1 C 38 %
3408 01-01-2020 15:53:17 0.7 C 40 %
3409 01-01-2020 16:03:17 0.5 C 43 %
3410 01-01-2020 16:13:17 -0.1 C 43 %
3411 01-01-2020 16:23:17 -0.3 C 44 %
3412 01-01-2020 16:33:18 -0.7 C 44 %
3413 01-01-2020 16:43:18 -0.7 C 45 %
3414 01-01-2020 16:53:17 -0.8 C 45 %
3415 01-01-2020 17:03:17 -1 C 45 %
3416 01-01-2020 17:13:17 -1.3 C 45 %
3417 01-01-2020 17:23:18 -1.5 C 45 %
3418 01-01-2020 17:33:17 -1.8 C 45 %
3419 01-01-2020 17:43:17 -1.9 C 45 %
3420 01-01-2020 17:53:18 -1.8 C 45 %
3421 01-01-2020 18:03:17 -1.9 C 45 %
3422 01-01-2020 18:13:17 -1.9 C 45 %
3423 01-01-2020 18:23:17 -2.1 C 45 %
3424 01-01-2020 18:33:17 -2.1 C 45 %
3425 01-01-2020 18:43:18 -2.1 C 45 %
Sensor: Nr:Datum:Temp:Feuchte:
Aussen-T/F 3426 01-01-2020 18:53:17 -2.2 C 45 %
3427 01-01-2020 19:03:17 -2.4 C 45 %
3428 01-01-2020 19:13:18 -2.5 C 45 %
3429 01-01-2020 19:23:17 -2.4 C 45 %
3430 01-01-2020 19:33:17 -2.3 C 45 %
3431 01-01-2020 19:43:17 -2.2 C 45 %
3432 01-01-2020 19:53:17 -2.4 C 45 %
3433 01-01-2020 20:03:17 -2.2 C 45 %
3434 01-01-2020 20:13:17 -2.1 C 45 %
3435 01-01-2020 20:23:18 -2.3 C 45 %
3436 01-01-2020 20:33:17 -2.1 C 45 %
3437 01-01-2020 20:43:17 -2.6 C 43 %
3438 01-01-2020 20:53:17 -2.8 C 43 %
3439 01-01-2020 21:03:17 -2.8 C 43 %
3440 01-01-2020 21:13:17 -3 C 43 %
3441 01-01-2020 21:23:18 -3.1 C 43 %
3442 01-01-2020 21:33:17 -3.1 C 43 %
3443 01-01-2020 21:43:17 -3.2 C 42 %
3444 01-01-2020 21:53:17 -2.8 C 43 %
3445 01-01-2020 22:03:17 -3.1 C 42 %
3446 01-01-2020 22:13:17 -3.2 C 42 %
3447 01-01-2020 22:23:17 -3 C 43 %
3448 01-01-2020 22:33:17 -2.8 C 43 %
3449 01-01-2020 22:43:17 -2.8 C 43 %
3450 01-01-2020 22:53:17 -3.2 C 42 %
Sensor: Nr:Datum:Temp:Feuchte:
Aussen-T/F 3451 01-01-2020 23:03:17 -3.2 C 42 %
3452 01-01-2020 23:13:17 -2.7 C 44 %
3453 01-01-2020 23:23:17 -2.3 C 45 %
3454 01-01-2020 23:33:17 -2.4 C 44 %
3455 01-01-2020 23:43:17 -2.2 C 45 %
3456 01-01-2020 23:53:17 -2.2 C 45 %
3457 02-01-2020 00:03:17 -2.3 C 44 %
3458 02-01-2020 00:13:17 -2.4 C 44 %
3459 02-01-2020 00:23:17 -2.6 C 43 %
3460 02-01-2020 00:33:17 -2.4 C 43 %
3461 02-01-2020 00:43:17 -2.4 C 44 %
3462 02-01-2020 00:53:17 -2.6 C 43 %
3463 02-01-2020 01:03:17 -2.3 C 44 %
3464 02-01-2020 01:13:17 -2.1 C 45 %
3465 02-01-2020 01:23:17 -1.9 C 45 %
3466 02-01-2020 01:33:17 -1.9 C 45 %
3467 02-01-2020 01:43:17 -1.8 C 45 %
3468 02-01-2020 01:53:17 -1.7 C 45 %
3469 02-01-2020 02:03:17 -1.6 C 45 %
3470 02-01-2020 02:13:17 -1.5 C 45 %
3471 02-01-2020 02:23:17 -1.4 C 45 %
3472 02-01-2020 02:33:17 -1.3 C 45 %
3473 02-01-2020 02:43:17 -1.3 C 45 %
3474 02-01-2020 02:53:17 -1.3 C 45 %
3475 02-01-2020 03:03:17 -1.2 C 45 %
Sensor: Nr:Datum:Temp:Feuchte:
Aussen-T/F 3476 02-01-2020 03:13:18 -1.1 C 45 %
3477 02-01-2020 03:23:17 -1.1 C 45 %
3478 02-01-2020 03:33:18 -1 C 45 %
3479 02-01-2020 03:43:18 -0.9 C 45 %
3480 02-01-2020 03:53:17 -0.9 C 45 %
3481 02-01-2020 04:03:18 -0.8 C 45 %
3482 02-01-2020 04:13:18 -0.7 C 45 %
3483 02-01-2020 04:23:17 -0.7 C 45 %
3484 02-01-2020 04:33:17 -0.7 C 45 %
3485 02-01-2020 04:43:17 -0.7 C 45 %
3486 02-01-2020 04:53:17 -0.8 C 45 %
3487 02-01-2020 05:03:17 -0.9 C 45 %
3488 02-01-2020 05:13:17 -0.9 C 45 %
3489 02-01-2020 05:23:18 -0.9 C 45 %
3490 02-01-2020 05:33:17 -0.9 C 45 %
3491 02-01-2020 05:43:17 -0.8 C 44 %
3492 02-01-2020 05:53:18 -0.8 C 44 %
3493 02-01-2020 06:03:17 -0.9 C 44 %
3494 02-01-2020 06:13:17 -0.9 C 43 %
3495 02-01-2020 06:23:17 -0.9 C 43 %
3496 02-01-2020 06:33:18 -0.7 C 42 %
3497 02-01-2020 06:43:18 -0.7 C 41 %
3498 02-01-2020 06:53:17 -0.7 C 40 %
3499 02-01-2020 07:03:18 -0.7 C 40 %
3500 02-01-2020 07:13:18 -0.7 C 40 %
Sensor: Nr:Datum:Temp:Feuchte:
Aussen-T/F 3501 02-01-2020 07:23:17 -0.7 C 39 %
3502 02-01-2020 07:33:17 -0.7 C 39 %
3503 02-01-2020 07:43:17 -0.7 C 40 %
3504 02-01-2020 07:53:17 -0.6 C 41 %
3505 02-01-2020 08:03:18 -0.6 C 41 %
3506 02-01-2020 08:13:18 -0.5 C 41 %
3507 02-01-2020 08:23:17 -0.4 C 41 %
3508 02-01-2020 08:33:17 -0.3 C 40 %
3509 02-01-2020 08:43:17 -0.3 C 41 %
3510 02-01-2020 08:53:17 -0.2 C 42 %
3511 02-01-2020 09:03:17 -0.1 C 42 %
3512 02-01-2020 09:13:17 0.1 C 42 %
3513 02-01-2020 09:23:17 0.1 C 40 %
3514 02-01-2020 09:33:18 0.4 C 38 %
3515 02-01-2020 09:43:18 0.5 C 37 %
3516 02-01-2020 09:53:17 0.4 C 39 %
3517 02-01-2020 10:03:17 0.4 C 40 %
3518 02-01-2020 10:13:18 0.7 C 41 %
3519 02-01-2020 10:23:17 1.1 C 42 %
3520 02-01-2020 10:33:18 1.1 C 39 %
3521 02-01-2020 10:43:18 1.3 C 39 %
3522 02-01-2020 10:53:17 1.5 C 38 %
3523 02-01-2020 11:03:18 1.7 C 38 %
3524 02-01-2020 11:13:18 1.6 C 35 %
3525 02-01-2020 11:23:17 1.9 C 37 %
Sensor: Nr:Datum:Temp:Feuchte:
Aussen-T/F 3526 02-01-2020 11:33:17 2.1 C 36 %
3527 02-01-2020 11:43:17 2.1 C 35 %
3528 02-01-2020 11:53:17 2.1 C 34 %
3529 02-01-2020 12:03:17 2.2 C 34 %
3530 02-01-2020 12:13:17 2.3 C 35 %
3531 02-01-2020 12:23:17 2.3 C 35 %
3532 02-01-2020 12:33:17 2.6 C 34 %
3533 02-01-2020 12:43:17 3 C 35 %
3534 02-01-2020 12:53:17 2.8 C 32 %
3535 02-01-2020 13:03:17 2.9 C 31 %
3536 02-01-2020 13:13:17 3.1 C 30 %
3537 02-01-2020 13:23:17 3.3 C 29 %
3538 02-01-2020 13:33:17 3.6 C 29 %
3539 02-01-2020 13:43:17 3.3 C 29 %
3540 02-01-2020 13:53:18 3.1 C 30 %
3541 02-01-2020 14:03:17 3.4 C 30 %
3542 02-01-2020 14:13:17 3.4 C 30 %
3543 02-01-2020 14:23:18 3.5 C 30 %
3544 02-01-2020 14:33:17 3.4 C 30 %
3545 02-01-2020 14:43:17 3.7 C 30 %
3546 02-01-2020 14:53:17 3.4 C 30 %
3547 02-01-2020 15:03:17 3.1 C 31 %
3548 02-01-2020 15:13:17 3 C 31 %
3549 02-01-2020 15:23:18 2.7 C 32 %
3550 02-01-2020 15:33:17 2.5 C 33 %
Sensor: Nr:Datum:Temp:Feuchte:
Aussen-T/F 3551 02-01-2020 15:43:17 2.5 C 34 %
3552 02-01-2020 15:53:17 2.4 C 35 %
3553 02-01-2020 16:03:17 2.4 C 35 %
3554 02-01-2020 16:13:17 2.3 C 35 %
3555 02-01-2020 16:23:18 2.2 C 36 %
3556 02-01-2020 16:33:17 2.2 C 37 %
3557 02-01-2020 16:43:17 2.3 C 37 %
3558 02-01-2020 16:53:17 2.2 C 37 %
3559 02-01-2020 17:03:17 2.1 C 38 %
3560 02-01-2020 17:13:17 2 C 38 %
3561 02-01-2020 17:23:18 2.1 C 40 %
3562 02-01-2020 17:33:17 2.1 C 40 %
3563 02-01-2020 17:43:17 2.1 C 40 %
3564 02-01-2020 17:53:17 2.1 C 40 %
3565 02-01-2020 18:03:17 2.1 C 40 %
3566 02-01-2020 18:13:17 2.1 C 40 %
3567 02-01-2020 18:23:17 2.1 C 40 %
3568 02-01-2020 18:33:17 2.1 C 40 %
3569 02-01-2020 18:43:18 2.2 C 39 %
3570 02-01-2020 18:53:17 2.3 C 40 %
3571 02-01-2020 19:03:17 2.2 C 40 %
3572 02-01-2020 19:13:18 2.2 C 40 %
3573 02-01-2020 19:23:17 2.3 C 40 %
3574 02-01-2020 19:33:17 2.3 C 40 %
3575 02-01-2020 19:43:18 2.3 C 40 %
Sensor: Nr:Datum:Temp:Feuchte:
Aussen-T/F 3576 02-01-2020 19:53:17 2.3 C 40 %
3577 02-01-2020 20:03:18 2.3 C 40 %
3578 02-01-2020 20:13:18 2.4 C 40 %
3579 02-01-2020 20:23:17 2.5 C 40 %
3580 02-01-2020 20:33:17 2.6 C 40 %
3581 02-01-2020 20:43:17 2.6 C 40 %
3582 02-01-2020 20:53:17 2.5 C 39 %
3583 02-01-2020 21:03:18 2.5 C 40 %
3584 02-01-2020 21:13:18 2.5 C 40 %
3585 02-01-2020 21:23:17 2.5 C 40 %
3586 02-01-2020 21:33:18 2.5 C 40 %
3587 02-01-2020 21:43:18 2.3 C 40 %
3588 02-01-2020 21:53:17 1.9 C 42 %
3589 02-01-2020 22:03:17 2.3 C 43 %
3590 02-01-2020 22:13:17 2.4 C 43 %
3591 02-01-2020 22:23:17 2.5 C 43 %
3592 02-01-2020 22:33:17 2.6 C 43 %
3593 02-01-2020 22:43:18 2.7 C 43 %
3594 02-01-2020 22:53:17 2.7 C 42 %
3595 02-01-2020 23:03:17 2.8 C 42 %
3596 02-01-2020 23:13:17 2.8 C 42 %
3597 02-01-2020 23:23:17 2.8 C 41 %
3598 02-01-2020 23:33:18 2.8 C 42 %
3599 02-01-2020 23:43:18 2.9 C 42 %
3600 02-01-2020 23:53:17 2.8 C 41 %
Sensor: Nr:Datum:Temp:Feuchte:
Aussen-T/F 3601 03-01-2020 00:03:18 2.9 C 42 %
3602 03-01-2020 00:13:18 3 C 41 %
3603 03-01-2020 00:23:17 3.1 C 41 %
3604 03-01-2020 00:33:17 3.2 C 41 %
3605 03-01-2020 00:43:17 3.2 C 41 %
3606 03-01-2020 00:53:17 3.4 C 42 %
3607 03-01-2020 01:03:17 3.4 C 42 %
3608 03-01-2020 01:13:17 3.5 C 42 %
3609 03-01-2020 01:23:18 3.5 C 42 %
3610 03-01-2020 01:33:17 3.5 C 42 %
3611 03-01-2020 01:43:17 3.6 C 42 %
3612 03-01-2020 01:53:18 3.6 C 42 %
3613 03-01-2020 02:03:17 3.7 C 42 %
3614 03-01-2020 02:13:17 3.7 C 42 %
3615 03-01-2020 02:23:17 3.9 C 42 %
3616 03-01-2020 02:33:17 3.7 C 42 %
3617 03-01-2020 02:43:18 3.7 C 43 %
3618 03-01-2020 02:53:17 3.9 C 44 %
3619 03-01-2020 03:03:17 3.8 C 44 %
3620 03-01-2020 03:13:17 3.8 C 44 %
3621 03-01-2020 03:23:17 3.8 C 44 %
3622 03-01-2020 03:33:17 3.9 C 44 %
3623 03-01-2020 03:43:17 3.9 C 44 %
3624 03-01-2020 03:53:18 3.9 C 44 %
3625 03-01-2020 04:03:17 4 C 43 %
Sensor: Nr:Datum:Temp:Feuchte:
Aussen-T/F 3626 03-01-2020 04:13:17 4 C 43 %
3627 03-01-2020 04:23:18 4 C 42 %
3628 03-01-2020 04:33:17 4.1 C 42 %
3629 03-01-2020 04:43:17 4.1 C 42 %
3630 03-01-2020 04:53:17 4.2 C 42 %
3631 03-01-2020 05:03:17 4.2 C 41 %
3632 03-01-2020 05:13:17 4.3 C 40 %
3633 03-01-2020 05:23:17 4.3 C 40 %
3634 03-01-2020 05:33:17 4.4 C 40 %
3635 03-01-2020 05:43:17 4.4 C 40 %
3636 03-01-2020 05:53:17 4.4 C 40 %
3637 03-01-2020 06:03:17 4.4 C 40 %
3638 03-01-2020 06:13:17 4.4 C 40 %
3639 03-01-2020 06:23:18 4.4 C 40 %
3640 03-01-2020 06:33:17 4.7 C 40 %
3641 03-01-2020 06:43:17 5.3 C 40 %
3642 03-01-2020 06:53:18 6.7 C 34 %
3643 03-01-2020 07:03:18 7.1 C 31 %
3644 03-01-2020 07:13:18 7.7 C 30 %
3645 03-01-2020 07:23:17 8 C 29 %
3646 03-01-2020 07:33:17 7.9 C 30 %
3647 03-01-2020 07:43:17 7.8 C 30 %
3648 03-01-2020 07:53:17 7.9 C 29 %
3649 03-01-2020 08:03:18 7.9 C 30 %
3650 03-01-2020 08:13:18 8 C 29 %
Sensor: Nr:Datum:Temp:Feuchte:
Aussen-T/F 3651 03-01-2020 08:23:17 7.9 C 29 %
3652 03-01-2020 08:33:18 7.8 C 29 %
3653 03-01-2020 08:43:18 7.9 C 29 %
3654 03-01-2020 08:53:17 8 C 29 %
3655 03-01-2020 09:03:17 8.2 C 28 %
3656 03-01-2020 09:13:17 8.2 C 28 %
3657 03-01-2020 09:23:17 8.2 C 28 %
3658 03-01-2020 09:33:17 8.4 C 28 %
3659 03-01-2020 09:43:17 8.4 C 27 %
3660 03-01-2020 09:53:17 8.4 C 27 %
3661 03-01-2020 10:03:17 8.6 C 27 %
3662 03-01-2020 10:13:17 8.6 C 27 %
3663 03-01-2020 10:23:17 8.6 C 27 %
3664 03-01-2020 10:33:17 8.6 C 27 %
3665 03-01-2020 10:43:18 8.6 C 27 %
3666 03-01-2020 10:53:17 8.6 C 27 %
3667 03-01-2020 11:03:18 8.3 C 27 %
3668 03-01-2020 11:13:18 8.5 C 27 %
3669 03-01-2020 11:23:18 8.6 C 27 %
3670 03-01-2020 11:33:17 8.9 C 27 %
3671 03-01-2020 11:43:17 8.9 C 27 %
3672 03-01-2020 11:53:17 8.7 C 27 %
3673 03-01-2020 12:03:17 8.6 C 27 %
3674 03-01-2020 12:13:17 8.4 C 27 %
3675 03-01-2020 12:23:17 8.6 C 27 %
Sensor: Nr:Datum:Temp:Feuchte:
Aussen-T/F 3676 03-01-2020 12:33:17 8.7 C 27 %
3677 03-01-2020 12:43:17 8.5 C 27 %
3678 03-01-2020 12:53:17 8.6 C 27 %
3679 03-01-2020 13:03:17 8.5 C 27 %
3680 03-01-2020 13:13:18 8.5 C 28 %
3681 03-01-2020 13:23:17 8.6 C 28 %
3682 03-01-2020 13:33:17 8.8 C 27 %
3683 03-01-2020 13:43:18 8.8 C 28 %
3684 03-01-2020 13:53:17 8.7 C 28 %
3685 03-01-2020 14:03:17 8.7 C 28 %
3686 03-01-2020 14:13:17 8.5 C 28 %
3687 03-01-2020 14:23:18 8.5 C 29 %
3688 03-01-2020 14:33:17 8.5 C 29 %
3689 03-01-2020 14:43:17 8.5 C 29 %
3690 03-01-2020 14:53:17 8.5 C 30 %
3691 03-01-2020 15:03:17 9 C 28 %
3692 03-01-2020 15:13:17 9 C 28 %
3693 03-01-2020 15:23:17 9 C 28 %
3694 03-01-2020 15:33:17 9.1 C 28 %
3695 03-01-2020 15:43:18 9.2 C 28 %
3696 03-01-2020 15:53:17 9 C 28 %
3697 03-01-2020 16:03:17 9 C 28 %
3698 03-01-2020 16:13:17 9 C 29 %
3699 03-01-2020 16:23:17 8.9 C 30 %
3700 03-01-2020 16:33:17 9 C 29 %
Sensor: Nr:Datum:Temp:Feuchte:
Aussen-T/F 3701 03-01-2020 16:43:17 9 C 29 %
3702 03-01-2020 16:53:17 9 C 29 %
3703 03-01-2020 17:03:17 8.6 C 31 %
3704 03-01-2020 17:13:17 8.6 C 31 %
3705 03-01-2020 17:23:17 8.9 C 31 %
3706 03-01-2020 17:33:17 8.8 C 30 %
3707 03-01-2020 17:43:17 8.9 C 30 %
3708 03-01-2020 17:53:17 9 C 30 %
3709 03-01-2020 18:03:17 9 C 30 %
3710 03-01-2020 18:13:18 9.1 C 30 %
3711 03-01-2020 18:23:18 9.3 C 30 %
3712 03-01-2020 18:33:18 9.3 C 30 %
3713 03-01-2020 18:43:18 9.2 C 30 %
3714 03-01-2020 18:53:17 9.3 C 30 %
3715 03-01-2020 19:03:18 9.2 C 30 %
3716 03-01-2020 19:13:18 8.9 C 32 %
3717 03-01-2020 19:23:17 8.9 C 32 %
3718 03-01-2020 19:33:17 9.2 C 31 %
3719 03-01-2020 19:43:17 9.3 C 31 %
3720 03-01-2020 19:53:17 9.2 C 31 %
3721 03-01-2020 20:03:18 9 C 31 %
3722 03-01-2020 20:13:18 8.9 C 35 %
3723 03-01-2020 20:23:17 8.9 C 35 %
3724 03-01-2020 20:33:17 8.8 C 35 %
3725 03-01-2020 20:43:17 8.7 C 36 %
Sensor: Nr:Datum:Temp:Feuchte:
Aussen-T/F 3726 03-01-2020 20:53:18 8.6 C 39 %
3727 03-01-2020 21:03:17 8.2 C 37 %
3728 03-01-2020 21:13:17 7.8 C 35 %
3729 03-01-2020 21:23:17 7.5 C 35 %
3730 03-01-2020 21:33:18 7.4 C 36 %
3731 03-01-2020 21:43:18 7.2 C 35 %
3732 03-01-2020 21:53:17 6.8 C 35 %
3733 03-01-2020 22:03:18 6.8 C 34 %
3734 03-01-2020 22:13:18 6.7 C 35 %
3735 03-01-2020 22:23:17 6.5 C 33 %
3736 03-01-2020 22:33:17 6.4 C 34 %
3737 03-01-2020 22:43:17 6 C 33 %
3738 03-01-2020 22:53:17 6 C 34 %
3739 03-01-2020 23:03:17 5.7 C 35 %
3740 03-01-2020 23:13:17 5.9 C 34 %
3741 03-01-2020 23:23:17 5.8 C 35 %
3742 03-01-2020 23:33:17 5.8 C 33 %
3743 03-01-2020 23:43:17 5.7 C 35 %
3744 03-01-2020 23:53:17 5.8 C 35 %
3745 04-01-2020 00:03:18 5.7 C 35 %
3746 04-01-2020 00:13:18 5.6 C 35 %
3747 04-01-2020 00:23:17 5.4 C 35 %
3748 04-01-2020 00:33:17 5.6 C 33 %
3749 04-01-2020 00:43:17 5.6 C 33 %
3750 04-01-2020 00:53:17 5.4 C 34 %
Sensor: Nr:Datum:Temp:Feuchte:
Aussen-T/F 3751 04-01-2020 01:03:17 5.3 C 34 %
3752 04-01-2020 01:13:17 4.6 C 36 %
3753 04-01-2020 01:23:17 4.6 C 36 %
3754 04-01-2020 01:33:17 4.6 C 36 %
3755 04-01-2020 01:43:17 3.6 C 37 %
3756 04-01-2020 01:53:18 3.6 C 41 %
3757 04-01-2020 02:03:17 3.5 C 41 %
3758 04-01-2020 02:13:17 3.9 C 37 %
3759 04-01-2020 02:23:17 3.8 C 35 %
3760 04-01-2020 02:33:17 3.5 C 37 %
3761 04-01-2020 02:43:17 3.4 C 40 %
3762 04-01-2020 02:53:17 3.8 C 39 %
3763 04-01-2020 03:03:18 3.7 C 39 %
3764 04-01-2020 03:13:18 3.9 C 40 %
3765 04-01-2020 03:23:17 3.3 C 39 %
3766 04-01-2020 03:33:17 3 C 41 %
3767 04-01-2020 03:43:17 3.4 C 42 %
3768 04-01-2020 03:53:17 3.7 C 36 %
3769 04-01-2020 04:03:17 3.7 C 35 %
3770 04-01-2020 04:13:17 3.4 C 35 %
3771 04-01-2020 04:23:17 3.3 C 36 %
3772 04-01-2020 04:33:17 3.1 C 37 %
3773 04-01-2020 04:43:17 2.8 C 38 %
3774 04-01-2020 04:53:17 2.6 C 39 %
3775 04-01-2020 05:03:17 2.9 C 40 %
Sensor: Nr:Datum:Temp:Feuchte:
Aussen-T/F 3776 04-01-2020 05:13:17 2.4 C 38 %
3777 04-01-2020 05:23:17 2.5 C 40 %
3778 04-01-2020 05:33:17 1.8 C 40 %
3779 04-01-2020 05:43:18 2 C 41 %
3780 04-01-2020 05:53:17 2.3 C 40 %
3781 04-01-2020 06:03:17 2.2 C 39 %
3782 04-01-2020 06:13:17 2.8 C 36 %
3783 04-01-2020 06:23:17 2.6 C 35 %
3784 04-01-2020 06:33:17 2.4 C 37 %
3785 04-01-2020 06:43:17 2.7 C 37 %
3786 04-01-2020 06:53:17 2.7 C 34 %
3787 04-01-2020 07:03:17 2.7 C 34 %
3788 04-01-2020 07:13:17 2.5 C 34 %
3789 04-01-2020 07:23:17 2.5 C 34 %
3790 04-01-2020 07:33:17 2 C 36 %
3791 04-01-2020 07:43:17 2 C 36 %
3792 04-01-2020 07:53:17 2.1 C 37 %
3793 04-01-2020 08:03:17 1.7 C 39 %
3794 04-01-2020 08:13:17 1.6 C 41 %
3795 04-01-2020 08:23:17 1.3 C 41 %
3796 04-01-2020 08:33:17 1.2 C 43 %
3797 04-01-2020 08:43:17 1.3 C 42 %
3798 04-01-2020 08:53:17 1.2 C 41 %
3799 04-01-2020 09:03:17 1 C 41 %
3800 04-01-2020 09:13:17 0.8 C 44 %
Sensor: Nr:Datum:Temp:Feuchte:
Aussen-T/F 3801 04-01-2020 09:23:17 1 C 44 %
3802 04-01-2020 09:33:18 1.4 C 45 %
3803 04-01-2020 09:43:18 1.7 C 44 %
3804 04-01-2020 09:53:17 1.9 C 41 %
3805 04-01-2020 10:03:18 2.1 C 39 %
3806 04-01-2020 10:13:18 2.3 C 38 %
3807 04-01-2020 10:23:17 3.1 C 35 %
3808 04-01-2020 10:33:17 3.6 C 33 %
3809 04-01-2020 10:43:17 5.1 C 27 %
3810 04-01-2020 10:53:17 5.1 C 27 %
3811 04-01-2020 11:03:17 5.4 C 27 %
3812 04-01-2020 11:13:17 5.4 C 27 %
3813 04-01-2020 11:23:17 5.6 C 27 %
3814 04-01-2020 11:33:17 5.6 C 27 %
3815 04-01-2020 11:43:17 5.6 C 26 %
3816 04-01-2020 11:53:17 5.8 C 26 %
3817 04-01-2020 12:03:17 5.9 C 26 %
3818 04-01-2020 12:13:18 6 C 26 %
3819 04-01-2020 12:23:17 6.2 C 26 %
3820 04-01-2020 12:33:17 6.2 C 26 %
3821 04-01-2020 12:43:17 6.3 C 26 %
3822 04-01-2020 12:53:17 6.5 C 26 %
3823 04-01-2020 13:03:17 6.7 C 26 %
3824 04-01-2020 13:13:17 6.7 C 26 %
3825 04-01-2020 13:23:17 6.7 C 26 %
Sensor: Nr:Datum:Temp:Feuchte:
Aussen-T/F 3826 04-01-2020 13:33:17 6.8 C 25 %
3827 04-01-2020 13:43:17 7 C 25 %
3828 04-01-2020 13:53:18 7 C 25 %
3829 04-01-2020 14:03:18 7 C 25 %
3830 04-01-2020 14:13:18 7 C 25 %
3831 04-01-2020 14:23:18 7.1 C 25 %
3832 04-01-2020 14:33:17 7.1 C 25 %
3833 04-01-2020 14:43:18 7 C 25 %
3834 04-01-2020 14:53:17 7 C 25 %
3835 04-01-2020 15:03:17 7.1 C 25 %
3836 04-01-2020 15:13:17 7 C 25 %
3837 04-01-2020 15:23:17 7 C 25 %
3838 04-01-2020 15:33:18 7 C 25 %
3839 04-01-2020 15:43:18 7 C 25 %
3840 04-01-2020 15:53:18 6.9 C 25 %
3841 04-01-2020 16:03:17 6.9 C 25 %
3842 04-01-2020 16:13:18 6.9 C 25 %
3843 04-01-2020 16:23:17 6.9 C 25 %
3844 04-01-2020 16:33:17 6.8 C 25 %
3845 04-01-2020 16:43:17 6.8 C 25 %
3846 04-01-2020 16:53:17 6.8 C 25 %
3847 04-01-2020 17:03:17 6.8 C 25 %
3848 04-01-2020 17:13:17 6.8 C 25 %
3849 04-01-2020 17:23:17 6.7 C 25 %
3850 04-01-2020 17:33:18 6.7 C 25 %
Sensor: Nr:Datum:Temp:Feuchte:
Aussen-T/F 3851 04-01-2020 17:43:18 6.6 C 25 %
3852 04-01-2020 17:53:17 6.6 C 25 %
3853 04-01-2020 18:03:17 6.7 C 25 %
3854 04-01-2020 18:13:17 6.6 C 25 %
3855 04-01-2020 18:23:17 6.8 C 25 %
3856 04-01-2020 18:33:17 6.7 C 25 %
3857 04-01-2020 18:43:17 6.6 C 25 %
3858 04-01-2020 18:53:17 6.5 C 25 %
3859 04-01-2020 19:03:17 6.6 C 25 %
3860 04-01-2020 19:13:17 6.7 C 25 %
3861 04-01-2020 19:23:17 6.5 C 26 %
3862 04-01-2020 19:33:17 6 C 27 %
3863 04-01-2020 19:43:17 5.8 C 30 %
3864 04-01-2020 19:53:17 5.6 C 30 %
3865 04-01-2020 20:03:17 5.5 C 31 %
3866 04-01-2020 20:13:17 5.6 C 31 %
3867 04-01-2020 20:23:18 5.7 C 30 %
3868 04-01-2020 20:33:18 5.8 C 30 %
3869 04-01-2020 20:43:18 6 C 29 %
3870 04-01-2020 20:53:17 6.1 C 29 %
3871 04-01-2020 21:03:17 5.8 C 30 %
3872 04-01-2020 21:13:17 5.5 C 33 %
3873 04-01-2020 21:23:17 5.3 C 35 %
3874 04-01-2020 21:33:17 5.3 C 38 %
3875 04-01-2020 21:43:17 5.2 C 37 %
Sensor: Nr:Datum:Temp:Feuchte:
Aussen-T/F 3876 04-01-2020 21:53:18 5.3 C 40 %
3877 04-01-2020 22:03:17 5.3 C 40 %
3878 04-01-2020 22:13:17 5.3 C 39 %
3879 04-01-2020 22:23:17 5.3 C 37 %
3880 04-01-2020 22:33:17 5.4 C 37 %
3881 04-01-2020 22:43:17 5.4 C 37 %
3882 04-01-2020 22:53:17 5.4 C 36 %
3883 04-01-2020 23:03:17 5.5 C 35 %
3884 04-01-2020 23:13:17 5.6 C 35 %
3885 04-01-2020 23:23:17 5.6 C 34 %
3886 04-01-2020 23:33:18 5.6 C 35 %
3887 04-01-2020 23:43:18 5.7 C 34 %
3888 04-01-2020 23:53:17 5.6 C 35 %
3889 05-01-2020 00:03:17 5.6 C 33 %
3890 05-01-2020 00:13:17 5.5 C 35 %
3891 05-01-2020 00:23:17 5.4 C 35 %
3892 05-01-2020 00:33:18 5.4 C 35 %
3893 05-01-2020 00:43:18 5.3 C 36 %
3894 05-01-2020 00:53:17 5.3 C 36 %
3895 05-01-2020 01:03:17 5.1 C 37 %
3896 05-01-2020 01:13:17 5 C 40 %
3897 05-01-2020 01:23:17 4.9 C 42 %
3898 05-01-2020 01:33:17 4.8 C 41 %
3899 05-01-2020 01:43:18 4.8 C 42 %
3900 05-01-2020 01:53:17 4.7 C 42 %
Sensor: Nr:Datum:Temp:Feuchte:
Aussen-T/F 3901 05-01-2020 02:03:18 4.8 C 41 %
3902 05-01-2020 02:13:18 4.7 C 41 %
3903 05-01-2020 02:23:17 4.6 C 43 %
3904 05-01-2020 02:33:17 4.5 C 44 %
3905 05-01-2020 02:43:17 4.6 C 44 %
3906 05-01-2020 02:53:17 4.6 C 42 %
3907 05-01-2020 03:03:17 4.6 C 42 %
3908 05-01-2020 03:13:17 4.6 C 41 %
3909 05-01-2020 03:23:17 4.3 C 42 %
3910 05-01-2020 03:33:17 4.3 C 43 %
3911 05-01-2020 03:43:17 4.4 C 44 %
3912 05-01-2020 03:53:17 4.5 C 44 %
3913 05-01-2020 04:03:17 4.4 C 43 %
3914 05-01-2020 04:13:17 4.4 C 43 %
3915 05-01-2020 04:23:17 4.3 C 42 %
3916 05-01-2020 04:33:17 4.3 C 43 %
3917 05-01-2020 04:43:17 4.4 C 43 %
3918 05-01-2020 04:53:17 4.4 C 42 %
3919 05-01-2020 05:03:17 4.4 C 42 %
3920 05-01-2020 05:13:17 4.4 C 42 %
3921 05-01-2020 05:23:17 4.4 C 42 %
3922 05-01-2020 05:33:18 4.5 C 43 %
3923 05-01-2020 05:43:18 4.6 C 43 %
3924 05-01-2020 05:53:17 4.5 C 43 %
3925 05-01-2020 06:03:17 4.6 C 43 %
Sensor: Nr:Datum:Temp:Feuchte:
Aussen-T/F 3926 05-01-2020 06:13:17 4.6 C 43 %
3927 05-01-2020 06:23:17 4.6 C 42 %
3928 05-01-2020 06:33:17 4.7 C 41 %
3929 05-01-2020 06:43:17 4.7 C 40 %
3930 05-01-2020 06:53:17 4.6 C 41 %
3931 05-01-2020 07:03:17 4.6 C 41 %
3932 05-01-2020 07:13:17 4.6 C 42 %
3933 05-01-2020 07:23:17 4.5 C 42 %
3934 05-01-2020 07:33:17 4.5 C 41 %
3935 05-01-2020 07:43:17 4.4 C 41 %
3936 05-01-2020 07:53:17 4.4 C 41 %
3937 05-01-2020 08:03:18 4.3 C 42 %
3938 05-01-2020 08:13:18 4.3 C 42 %
3939 05-01-2020 08:23:17 4.3 C 41 %
3940 05-01-2020 08:33:17 4.4 C 42 %
3941 05-01-2020 08:43:17 4.4 C 41 %
3942 05-01-2020 08:53:17 4.6 C 40 %
3943 05-01-2020 09:03:18 4.6 C 39 %
3944 05-01-2020 09:13:18 4.6 C 40 %
3945 05-01-2020 09:23:17 4.7 C 38 %
3946 05-01-2020 09:33:18 4.8 C 38 %
3947 05-01-2020 09:43:18 5 C 36 %
3948 05-01-2020 09:53:17 5.1 C 35 %
3949 05-01-2020 10:03:17 5.3 C 35 %
3950 05-01-2020 10:13:18 5.4 C 34 %
Sensor: Nr:Datum:Temp:Feuchte:
Aussen-T/F 3951 05-01-2020 10:23:18 5.4 C 34 %
3952 05-01-2020 10:33:18 5.5 C 33 %
3953 05-01-2020 10:43:18 5.5 C 33 %
3954 05-01-2020 10:53:17 5.5 C 34 %
3955 05-01-2020 11:03:17 5.7 C 34 %
3956 05-01-2020 11:13:17 5.7 C 33 %
3957 05-01-2020 11:23:17 5.7 C 33 %
3958 05-01-2020 11:33:17 5.9 C 32 %
3959 05-01-2020 11:43:17 5.9 C 32 %
3960 05-01-2020 11:53:17 6 C 32 %
3961 05-01-2020 12:03:17 6 C 31 %
3962 05-01-2020 12:13:17 6 C 31 %
3963 05-01-2020 12:23:17 6.1 C 31 %
3964 05-01-2020 12:33:17 6.2 C 31 %
3965 05-01-2020 12:43:17 6.2 C 31 %
3966 05-01-2020 12:53:17 6.2 C 31 %
3967 05-01-2020 13:03:17 6.3 C 31 %
3968 05-01-2020 13:13:17 6.5 C 30 %
3969 05-01-2020 13:23:17 6.5 C 30 %
3970 05-01-2020 13:33:18 6.5 C 30 %
3971 05-01-2020 13:43:18 6.6 C 30 %
3972 05-01-2020 13:53:18 6.6 C 30 %
3973 05-01-2020 14:03:18 6.7 C 30 %
3974 05-01-2020 14:13:18 6.6 C 30 %
3975 05-01-2020 14:23:18 6.7 C 30 %
Sensor: Nr:Datum:Temp:Feuchte:
Aussen-T/F 3976 05-01-2020 14:33:18 6.7 C 30 %
3977 05-01-2020 14:43:18 6.7 C 30 %
3978 05-01-2020 14:53:17 6.7 C 30 %
3979 05-01-2020 15:03:18 6.6 C 30 %
3980 05-01-2020 15:13:18 6.6 C 30 %
3981 05-01-2020 15:23:18 6.5 C 31 %
3982 05-01-2020 15:33:18 6.3 C 33 %
3983 05-01-2020 15:43:18 6.1 C 34 %
3984 05-01-2020 15:53:18 6 C 35 %
3985 05-01-2020 16:03:18 6 C 35 %
3986 05-01-2020 16:13:18 5.9 C 36 %
3987 05-01-2020 16:23:17 5.8 C 36 %
3988 05-01-2020 16:33:17 5.7 C 36 %
3989 05-01-2020 16:43:17 5.7 C 35 %
3990 05-01-2020 16:53:18 5.6 C 36 %
3991 05-01-2020 17:03:18 5.6 C 35 %
3992 05-01-2020 17:13:18 5.6 C 34 %
3993 05-01-2020 17:23:18 5.7 C 31 %
3994 05-01-2020 17:33:18 5.6 C 31 %
3995 05-01-2020 17:43:18 5.6 C 31 %
3996 05-01-2020 17:53:17 5.7 C 31 %
3997 05-01-2020 18:03:17 5.6 C 31 %
3998 05-01-2020 18:13:17 5.5 C 31 %
3999 05-01-2020 18:23:17 5.6 C 30 %
4000 05-01-2020 18:33:17 5.7 C 29 %
Sensor: Nr:Datum:Temp:Feuchte:
Aussen-T/F 4001 05-01-2020 18:43:17 5.5 C 30 %
4002 05-01-2020 18:53:17 5.6 C 30 %
4003 05-01-2020 19:03:17 5.5 C 30 %
4004 05-01-2020 19:13:17 5.6 C 30 %
4005 05-01-2020 19:23:17 5.4 C 31 %
4006 05-01-2020 19:33:17 5.3 C 31 %
4007 05-01-2020 19:43:17 5.4 C 31 %
4008 05-01-2020 19:53:18 5.3 C 31 %
4009 05-01-2020 20:03:18 5.2 C 32 %
4010 05-01-2020 20:13:18 5.5 C 29 %
4011 05-01-2020 20:23:18 5.3 C 30 %
4012 05-01-2020 20:33:18 5.3 C 30 %
4013 05-01-2020 20:43:18 5.2 C 31 %
4014 05-01-2020 20:53:18 5.2 C 31 %
4015 05-01-2020 21:03:18 5 C 32 %
4016 05-01-2020 21:13:18 5.1 C 32 %
4017 05-01-2020 21:23:18 5 C 32 %
4018 05-01-2020 21:33:17 4.9 C 34 %
4019 05-01-2020 21:43:17 4.8 C 35 %
4020 05-01-2020 21:53:17 4.8 C 35 %
4021 05-01-2020 22:03:17 4.8 C 35 %
4022 05-01-2020 22:13:17 4.8 C 35 %
4023 05-01-2020 22:23:17 4.7 C 35 %
4024 05-01-2020 22:33:17 4.7 C 35 %
4025 05-01-2020 22:43:17 4.7 C 35 %
Sensor: Nr:Datum:Temp:Feuchte:
Aussen-T/F 4026 05-01-2020 22:53:17 4.6 C 36 %
4027 05-01-2020 23:03:17 4.5 C 36 %
4028 05-01-2020 23:13:17 4.4 C 37 %
4029 05-01-2020 23:23:17 4.4 C 36 %
4030 05-01-2020 23:33:17 4.5 C 36 %
4031 05-01-2020 23:43:17 4.4 C 35 %
4032 05-01-2020 23:53:17 4.5 C 33 %
4033 06-01-2020 00:03:18 4.4 C 33 %
4034 06-01-2020 00:13:18 4.5 C 33 %
4035 06-01-2020 00:23:18 4.4 C 32 %
4036 06-01-2020 00:33:18 4.4 C 34 %
4037 06-01-2020 00:43:18 4.4 C 32 %
4038 06-01-2020 00:53:18 4.3 C 33 %
4039 06-01-2020 01:03:18 4.3 C 32 %
4040 06-01-2020 01:13:18 4.3 C 32 %
4041 06-01-2020 01:23:17 4.4 C 31 %
4042 06-01-2020 01:33:18 4.2 C 32 %
4043 06-01-2020 01:43:18 4.2 C 32 %
4044 06-01-2020 01:53:17 4.1 C 33 %
4045 06-01-2020 02:03:18 4.2 C 31 %
4046 06-01-2020 02:13:18 4.2 C 32 %
4047 06-01-2020 02:23:18 4.3 C 32 %
4048 06-01-2020 02:33:18 4.1 C 32 %
4049 06-01-2020 02:43:18 4.2 C 31 %
4050 06-01-2020 02:53:18 4.1 C 30 %
Sensor: Nr:Datum:Temp:Feuchte:
Aussen-T/F 4051 06-01-2020 03:03:18 4.2 C 30 %
4052 06-01-2020 03:13:18 4.2 C 31 %
4053 06-01-2020 03:23:17 4.1 C 31 %
4054 06-01-2020 03:33:18 4.1 C 32 %
4055 06-01-2020 03:43:18 3.9 C 32 %
4056 06-01-2020 03:53:18 4.1 C 31 %
4057 06-01-2020 04:03:18 4.1 C 31 %
4058 06-01-2020 04:13:18 4.1 C 29 %
4059 06-01-2020 04:23:18 4.1 C 30 %
4060 06-01-2020 04:33:18 3.8 C 32 %
4061 06-01-2020 04:43:18 3.8 C 34 %
4062 06-01-2020 04:53:17 3.7 C 33 %
4063 06-01-2020 05:03:18 3.8 C 33 %
4064 06-01-2020 05:13:18 3.8 C 33 %
4065 06-01-2020 05:23:18 3.5 C 35 %
4066 06-01-2020 05:33:18 3.6 C 35 %
4067 06-01-2020 05:43:18 3.6 C 35 %
4068 06-01-2020 05:53:18 3.5 C 35 %
4069 06-01-2020 06:03:18 3.5 C 33 %
4070 06-01-2020 06:13:18 3.5 C 33 %
4071 06-01-2020 06:23:18 3.3 C 35 %
4072 06-01-2020 06:33:18 3.3 C 35 %
4073 06-01-2020 06:43:18 3.2 C 36 %
4074 06-01-2020 06:53:18 3 C 36 %
4075 06-01-2020 07:03:18 3 C 35 %
Sensor: Nr:Datum:Temp:Feuchte:
Aussen-T/F 4076 06-01-2020 07:13:18 2.8 C 36 %
4077 06-01-2020 07:23:18 2.9 C 37 %
4078 06-01-2020 07:33:17 2.7 C 38 %
4079 06-01-2020 07:43:17 2.6 C 38 %
4080 06-01-2020 07:53:18 2.6 C 38 %
4081 06-01-2020 08:03:17 2.7 C 35 %
4082 06-01-2020 08:13:17 2.6 C 35 %
4083 06-01-2020 08:23:17 2.4 C 35 %
4084 06-01-2020 08:33:17 2.2 C 36 %
4085 06-01-2020 08:43:17 2.3 C 38 %
4086 06-01-2020 08:53:17 2.4 C 38 %
4087 06-01-2020 09:03:17 2.6 C 38 %
4088 06-01-2020 09:13:17 2.8 C 36 %
4089 06-01-2020 09:23:18 3 C 35 %
4090 06-01-2020 09:33:18 3.2 C 32 %
4091 06-01-2020 09:43:18 2.7 C 33 %
4092 06-01-2020 09:53:17 2.7 C 34 %
4093 06-01-2020 10:03:18 3.4 C 35 %
4094 06-01-2020 10:13:18 3.3 C 31 %
4095 06-01-2020 10:23:17 3 C 31 %
4096 06-01-2020 10:33:18 2.7 C 32 %
4097 06-01-2020 10:43:18 2.4 C 34 %
4098 06-01-2020 10:53:17 1.9 C 37 %
4099 06-01-2020 11:03:17 1.6 C 40 %
4100 06-01-2020 11:13:17 1.6 C 41 %
Sensor: Nr:Datum:Temp:Feuchte:
Aussen-T/F 4101 06-01-2020 11:23:17 1.7 C 42 %
4102 06-01-2020 11:33:17 2.2 C 40 %
4103 06-01-2020 11:43:17 2 C 37 %
4104 06-01-2020 11:53:17 1.9 C 40 %
4105 06-01-2020 12:03:17 2 C 38 %
4106 06-01-2020 12:13:17 2 C 38 %
4107 06-01-2020 12:23:18 2.1 C 39 %
4108 06-01-2020 12:33:18 2.1 C 38 %
4109 06-01-2020 12:43:18 2.3 C 38 %
4110 06-01-2020 12:53:17 2.3 C 38 %
4111 06-01-2020 13:03:18 2.5 C 38 %
4112 06-01-2020 13:13:18 2.4 C 38 %
4113 06-01-2020 13:23:17 2.1 C 39 %
4114 06-01-2020 13:33:17 2.4 C 40 %
4115 06-01-2020 13:43:17 2.7 C 39 %
4116 06-01-2020 13:53:17 2.6 C 37 %
4117 06-01-2020 14:03:17 2.5 C 38 %
4118 06-01-2020 14:13:17 2.6 C 39 %
4119 06-01-2020 14:23:17 2.5 C 39 %
4120 06-01-2020 14:33:18 2.4 C 39 %
4121 06-01-2020 14:43:18 2.8 C 40 %
4122 06-01-2020 14:53:17 2.7 C 40 %
4123 06-01-2020 15:03:18 2.6 C 39 %
4124 06-01-2020 15:13:18 2.8 C 38 %
4125 06-01-2020 15:23:18 2.8 C 39 %
Sensor: Nr:Datum:Temp:Feuchte:
Aussen-T/F 4126 06-01-2020 15:33:18 2.7 C 39 %
4127 06-01-2020 15:43:18 2.6 C 40 %
4128 06-01-2020 15:53:18 2.4 C 39 %
4129 06-01-2020 16:03:18 2 C 40 %
4130 06-01-2020 16:13:18 1.7 C 42 %
4131 06-01-2020 16:23:17 1.8 C 43 %
4132 06-01-2020 16:33:17 1.8 C 42 %
4133 06-01-2020 16:43:17 1.2 C 41 %
4134 06-01-2020 16:53:18 1.2 C 44 %
4135 06-01-2020 17:03:18 1.3 C 43 %
4136 06-01-2020 17:13:18 0.5 C 43 %
4137 06-01-2020 17:23:18 0.8 C 45 %
4138 06-01-2020 17:33:18 0.8 C 45 %
4139 06-01-2020 17:43:18 0.5 C 43 %
4140 06-01-2020 17:53:17 0.1 C 44 %
4141 06-01-2020 18:03:18 0 C 45 %
4142 06-01-2020 18:13:18 -0.1 C 45 %
4143 06-01-2020 18:23:18 0 C 45 %
4144 06-01-2020 18:33:17 -0.4 C 45 %
4145 06-01-2020 18:43:17 -0.1 C 45 %
4146 06-01-2020 18:53:17 -0.2 C 45 %
4147 06-01-2020 19:03:18 -0.2 C 45 %
4148 06-01-2020 19:13:18 -0.5 C 44 %
4149 06-01-2020 19:23:17 -0.6 C 44 %
4150 06-01-2020 19:33:17 -1.3 C 43 %
Sensor: Nr:Datum:Temp:Feuchte:
Aussen-T/F 4151 06-01-2020 19:43:17 -1 C 45 %
4152 06-01-2020 19:53:18 -1.1 C 45 %
4153 06-01-2020 20:03:18 -1.5 C 44 %
4154 06-01-2020 20:13:18 -1 C 45 %
4155 06-01-2020 20:23:18 -0.8 C 45 %
4156 06-01-2020 20:33:18 -0.7 C 45 %
4157 06-01-2020 20:43:18 -0.8 C 45 %
4158 06-01-2020 20:53:18 -0.9 C 44 %
4159 06-01-2020 21:03:18 -1.1 C 44 %
4160 06-01-2020 21:13:18 -1.1 C 44 %
4161 06-01-2020 21:23:18 -1.3 C 44 %
4162 06-01-2020 21:33:18 -1.2 C 45 %
4163 06-01-2020 21:43:18 -0.8 C 45 %
4164 06-01-2020 21:53:18 -0.5 C 46 %
4165 06-01-2020 22:03:18 -0.3 C 46 %
4166 06-01-2020 22:13:18 0.2 C 46 %
4167 06-01-2020 22:23:17 0.5 C 45 %
4168 06-01-2020 22:33:17 0.6 C 42 %
4169 06-01-2020 22:43:17 0.5 C 42 %
4170 06-01-2020 22:53:18 0.6 C 42 %
4171 06-01-2020 23:03:18 0.7 C 44 %
4172 06-01-2020 23:13:18 0.8 C 44 %
4173 06-01-2020 23:23:18 0.7 C 43 %
4174 06-01-2020 23:33:18 0.6 C 44 %
4175 06-01-2020 23:43:18 0.8 C 45 %
Sensor: Nr:Datum:Temp:Feuchte:
Aussen-T/F 4176 06-01-2020 23:53:18 1 C 43 %
Sensor: Nr:Datum:Temp:Feuchte:
G-T/H 1 09-12-2019 00:01:18 10.7 C 75 %
2 09-12-2019 00:11:18 10.7 C 75 %
3 09-12-2019 00:21:17 10.7 C 75 %
4 09-12-2019 00:31:17 10.7 C 75 %
5 09-12-2019 00:41:17 10.7 C 75 %
6 09-12-2019 00:51:17 10.7 C 75 %
7 09-12-2019 01:01:17 10.7 C 75 %
8 09-12-2019 01:11:17 10.7 C 75 %
9 09-12-2019 01:21:18 10.7 C 75 %
10 09-12-2019 01:31:17 10.7 C 75 %
11 09-12-2019 01:41:17 10.7 C 75 %
12 09-12-2019 01:51:17 10.7 C 75 %
13 09-12-2019 02:01:17 10.7 C 75 %
14 09-12-2019 02:11:17 10.7 C 75 %
15 09-12-2019 02:21:17 10.7 C 75 %
16 09-12-2019 02:31:18 10.7 C 75 %
17 09-12-2019 02:41:18 10.7 C 75 %
18 09-12-2019 02:51:18 10.7 C 75 %
19 09-12-2019 03:01:17 10.6 C 75 %
20 09-12-2019 03:11:17 10.7 C 74 %
21 09-12-2019 03:21:17 10.6 C 74 %
22 09-12-2019 03:31:17 10.6 C 74 %
23 09-12-2019 03:41:17 10.6 C 74 %
24 09-12-2019 03:51:17 10.6 C 74 %
25 09-12-2019 04:01:17 10.6 C 74 %
Sensor: Nr:Datum:Temp:Feuchte:
G-T/H 26 09-12-2019 04:11:17 10.6 C 74 %
27 09-12-2019 04:21:18 10.6 C 74 %
28 09-12-2019 04:31:18 10.6 C 74 %
29 09-12-2019 04:41:18 10.6 C 74 %
30 09-12-2019 04:51:17 10.6 C 74 %
31 09-12-2019 05:01:17 10.6 C 74 %
32 09-12-2019 05:11:17 10.6 C 74 %
33 09-12-2019 05:21:17 10.6 C 74 %
34 09-12-2019 05:31:17 10.6 C 74 %
35 09-12-2019 05:41:18 10.5 C 74 %
36 09-12-2019 05:51:17 10.5 C 74 %
37 09-12-2019 06:01:17 10.5 C 74 %
38 09-12-2019 06:11:17 10.5 C 74 %
39 09-12-2019 06:21:17 10.5 C 74 %
40 09-12-2019 06:31:17 10.5 C 74 %
41 09-12-2019 06:41:17 10.5 C 74 %
42 09-12-2019 06:51:18 10.5 C 74 %
43 09-12-2019 07:01:17 10.5 C 74 %
44 09-12-2019 07:11:18 10.5 C 74 %
45 09-12-2019 07:21:17 10.5 C 74 %
46 09-12-2019 07:31:17 10.5 C 74 %
47 09-12-2019 07:41:17 10.5 C 74 %
48 09-12-2019 07:51:18 10.4 C 74 %
49 09-12-2019 08:01:17 10.4 C 74 %
50 09-12-2019 08:11:17 10.5 C 74 %
Sensor: Nr:Datum:Temp:Feuchte:
G-T/H 51 09-12-2019 08:21:17 10.5 C 74 %
52 09-12-2019 08:31:17 10.4 C 74 %
53 09-12-2019 08:41:17 10.5 C 74 %
54 09-12-2019 08:51:17 10.4 C 74 %
55 09-12-2019 09:01:17 10.4 C 74 %
56 09-12-2019 09:11:17 10.4 C 74 %
57 09-12-2019 09:21:17 10.4 C 74 %
58 09-12-2019 09:31:17 10.4 C 74 %
59 09-12-2019 09:41:17 10.4 C 74 %
60 09-12-2019 09:51:17 10.4 C 74 %
61 09-12-2019 10:01:17 10.4 C 74 %
62 09-12-2019 10:11:17 10.4 C 74 %
63 09-12-2019 10:21:17 10.4 C 74 %
64 09-12-2019 10:31:18 10.4 C 74 %
65 09-12-2019 10:41:18 10.4 C 74 %
66 09-12-2019 10:51:17 10.4 C 74 %
67 09-12-2019 11:01:17 10.4 C 74 %
68 09-12-2019 11:11:17 10.4 C 74 %
69 09-12-2019 11:21:17 10.4 C 74 %
70 09-12-2019 11:31:18 10.4 C 74 %
71 09-12-2019 11:41:18 10.4 C 74 %
72 09-12-2019 11:51:17 10.4 C 74 %
73 09-12-2019 12:01:17 10.4 C 74 %
74 09-12-2019 12:11:17 10.4 C 74 %
75 09-12-2019 12:21:18 10.4 C 74 %
Sensor: Nr:Datum:Temp:Feuchte:
G-T/H 76 09-12-2019 12:31:17 10.4 C 74 %
77 09-12-2019 12:41:17 10.4 C 74 %
78 09-12-2019 12:51:17 10.4 C 74 %
79 09-12-2019 13:01:18 10.4 C 74 %
80 09-12-2019 13:11:18 10.4 C 74 %
81 09-12-2019 13:21:17 10.4 C 74 %
82 09-12-2019 13:31:17 10.4 C 74 %
83 09-12-2019 13:41:17 10.4 C 74 %
84 09-12-2019 13:51:17 10.4 C 74 %
85 09-12-2019 14:01:17 10.4 C 74 %
86 09-12-2019 14:11:17 10.4 C 74 %
87 09-12-2019 14:21:17 10.4 C 74 %
88 09-12-2019 14:31:17 10.5 C 74 %
89 09-12-2019 14:41:17 10.4 C 74 %
90 09-12-2019 14:51:18 10.4 C 74 %
91 09-12-2019 15:01:17 10.5 C 74 %
92 09-12-2019 15:11:17 10.5 C 74 %
93 09-12-2019 15:21:17 10.5 C 74 %
94 09-12-2019 15:31:18 10.5 C 74 %
95 09-12-2019 15:41:18 10.5 C 74 %
96 09-12-2019 15:51:17 10.4 C 74 %
97 09-12-2019 16:01:18 10.5 C 74 %
98 09-12-2019 16:11:18 10.5 C 74 %
99 09-12-2019 16:21:17 10.5 C 74 %
100 09-12-2019 16:31:18 10.5 C 74 %
Sensor: Nr:Datum:Temp:Feuchte:
G-T/H 101 09-12-2019 16:41:18 10.5 C 74 %
102 09-12-2019 16:51:17 10.4 C 74 %
103 09-12-2019 17:01:18 10.4 C 74 %
104 09-12-2019 17:11:18 10.5 C 74 %
105 09-12-2019 17:21:17 10.5 C 74 %
106 09-12-2019 17:31:17 10.5 C 74 %
107 09-12-2019 17:41:17 10.5 C 74 %
108 09-12-2019 17:51:17 10.5 C 74 %
109 09-12-2019 18:01:18 10.5 C 74 %
110 09-12-2019 18:11:18 10.5 C 74 %
111 09-12-2019 18:21:17 10.5 C 74 %
112 09-12-2019 18:31:17 10.5 C 74 %
113 09-12-2019 18:41:17 10.5 C 74 %
114 09-12-2019 18:51:18 10.5 C 74 %
115 09-12-2019 19:01:17 10.5 C 74 %
116 09-12-2019 19:11:17 10.5 C 74 %
117 09-12-2019 19:21:17 10.4 C 74 %
118 09-12-2019 19:31:17 10.5 C 74 %
119 09-12-2019 19:41:17 10.5 C 74 %
120 09-12-2019 19:51:17 10.5 C 74 %
121 09-12-2019 20:01:17 10.5 C 74 %
122 09-12-2019 20:11:17 10.4 C 74 %
123 09-12-2019 20:21:17 10.4 C 74 %
124 09-12-2019 20:31:17 10.4 C 74 %
125 09-12-2019 20:41:17 10.4 C 74 %
Sensor: Nr:Datum:Temp:Feuchte:
G-T/H 126 09-12-2019 20:51:17 10.4 C 74 %
127 09-12-2019 21:01:17 10.4 C 74 %
128 09-12-2019 21:11:18 10.4 C 74 %
129 09-12-2019 21:21:17 10.4 C 74 %
130 09-12-2019 21:31:17 10.4 C 74 %
131 09-12-2019 21:41:17 10.4 C 74 %
132 09-12-2019 21:51:17 10.4 C 74 %
133 09-12-2019 22:01:17 10.4 C 74 %
134 09-12-2019 22:11:17 10.4 C 74 %
135 09-12-2019 22:21:17 10.4 C 74 %
136 09-12-2019 22:31:17 10.3 C 74 %
137 09-12-2019 22:41:17 10.4 C 74 %
138 09-12-2019 22:51:18 10.4 C 74 %
139 09-12-2019 23:01:17 10.3 C 74 %
140 09-12-2019 23:11:17 10.3 C 74 %
141 09-12-2019 23:21:17 10.3 C 74 %
142 09-12-2019 23:31:18 10.2 C 73 %
143 09-12-2019 23:41:18 10.2 C 73 %
144 09-12-2019 23:51:17 10.2 C 73 %
145 10-12-2019 00:01:17 10.2 C 73 %
146 10-12-2019 00:11:17 10.2 C 72 %
147 10-12-2019 00:21:17 10.2 C 72 %
148 10-12-2019 00:31:17 10.1 C 72 %
149 10-12-2019 00:41:17 10.1 C 72 %
150 10-12-2019 00:51:17 10.1 C 72 %
Sensor: Nr:Datum:Temp:Feuchte:
G-T/H 151 10-12-2019 01:01:17 10.1 C 72 %
152 10-12-2019 01:11:17 10.1 C 71 %
153 10-12-2019 01:21:17 10.1 C 71 %
154 10-12-2019 01:31:18 10 C 71 %
155 10-12-2019 01:41:18 10 C 71 %
156 10-12-2019 01:51:17 10 C 71 %
157 10-12-2019 02:01:18 10 C 71 %
158 10-12-2019 02:11:18 9.9 C 72 %
159 10-12-2019 02:21:17 9.9 C 72 %
160 10-12-2019 02:31:17 9.9 C 71 %
161 10-12-2019 02:41:17 9.9 C 71 %
162 10-12-2019 02:51:17 9.9 C 71 %
163 10-12-2019 03:01:17 9.8 C 71 %
164 10-12-2019 03:11:17 9.8 C 71 %
165 10-12-2019 03:21:17 9.8 C 71 %
166 10-12-2019 03:31:17 9.8 C 71 %
167 10-12-2019 03:41:17 9.7 C 71 %
168 10-12-2019 03:51:17 9.8 C 71 %
169 10-12-2019 04:01:17 9.7 C 71 %
170 10-12-2019 04:11:17 9.7 C 71 %
171 10-12-2019 04:21:17 9.7 C 71 %
172 10-12-2019 04:31:18 9.7 C 71 %
173 10-12-2019 04:41:18 9.7 C 71 %
174 10-12-2019 04:51:17 9.7 C 71 %
175 10-12-2019 05:01:17 9.7 C 71 %
Sensor: Nr:Datum:Temp:Feuchte:
G-T/H 176 10-12-2019 05:11:17 9.7 C 71 %
177 10-12-2019 05:21:18 9.7 C 71 %
178 10-12-2019 05:31:18 9.7 C 71 %
179 10-12-2019 05:41:18 9.7 C 71 %
180 10-12-2019 05:51:17 9.7 C 71 %
181 10-12-2019 06:01:17 9.7 C 71 %
182 10-12-2019 06:11:17 9.7 C 71 %
183 10-12-2019 06:21:18 9.6 C 71 %
184 10-12-2019 06:31:17 9.6 C 71 %
185 10-12-2019 06:41:17 9.6 C 71 %
186 10-12-2019 06:51:17 9.6 C 71 %
187 10-12-2019 07:01:18 9.6 C 72 %
188 10-12-2019 07:11:18 9.6 C 72 %
189 10-12-2019 07:21:17 9.6 C 72 %
190 10-12-2019 07:31:17 9.6 C 72 %
191 10-12-2019 07:41:17 9.6 C 72 %
192 10-12-2019 07:51:17 9.6 C 72 %
193 10-12-2019 08:01:17 9.5 C 71 %
194 10-12-2019 08:11:17 9.5 C 71 %
195 10-12-2019 08:21:17 9.5 C 71 %
196 10-12-2019 08:31:18 9.5 C 71 %
197 10-12-2019 08:41:18 9.4 C 71 %
198 10-12-2019 08:51:17 9.4 C 71 %
199 10-12-2019 09:01:17 9.4 C 71 %
200 10-12-2019 09:11:17 9.4 C 71 %
Sensor: Nr:Datum:Temp:Feuchte:
G-T/H 201 10-12-2019 09:21:17 9.4 C 71 %
202 10-12-2019 09:31:17 9.4 C 71 %
203 10-12-2019 09:41:17 9.4 C 71 %
204 10-12-2019 09:51:17 9.4 C 71 %
205 10-12-2019 10:01:17 9.4 C 71 %
206 10-12-2019 10:11:17 9.4 C 71 %
207 10-12-2019 10:21:17 9.3 C 71 %
208 10-12-2019 10:31:17 9.3 C 71 %
209 10-12-2019 10:41:17 9.3 C 71 %
210 10-12-2019 10:51:17 9.3 C 71 %
211 10-12-2019 11:01:17 9.3 C 71 %
212 10-12-2019 11:11:17 9.3 C 71 %
213 10-12-2019 11:21:17 9.3 C 71 %
214 10-12-2019 11:31:18 9.3 C 71 %
215 10-12-2019 11:41:18 9.3 C 71 %
216 10-12-2019 11:51:17 9.2 C 71 %
217 10-12-2019 12:01:17 9.3 C 72 %
218 10-12-2019 12:11:17 9.2 C 72 %
219 10-12-2019 12:21:17 9.3 C 72 %
220 10-12-2019 12:31:17 9.2 C 72 %
221 10-12-2019 12:41:17 9.2 C 72 %
222 10-12-2019 12:51:17 9.2 C 72 %
223 10-12-2019 13:01:17 9.2 C 72 %
224 10-12-2019 13:11:17 9.2 C 72 %
225 10-12-2019 13:21:17 9.2 C 72 %
Sensor: Nr:Datum:Temp:Feuchte:
G-T/H 226 10-12-2019 13:31:17 9.2 C 72 %
227 10-12-2019 13:41:17 9.2 C 72 %
228 10-12-2019 13:51:17 9.2 C 72 %
229 10-12-2019 14:01:17 9.2 C 72 %
230 10-12-2019 14:11:17 9.2 C 72 %
231 10-12-2019 14:21:17 9.2 C 72 %
232 10-12-2019 14:31:18 9.2 C 72 %
233 10-12-2019 14:41:18 9.1 C 72 %
234 10-12-2019 14:51:17 9.1 C 72 %
235 10-12-2019 15:01:17 9.1 C 72 %
236 10-12-2019 15:11:17 9.1 C 72 %
237 10-12-2019 15:21:17 9.1 C 72 %
238 10-12-2019 15:31:17 9.1 C 72 %
239 10-12-2019 15:41:18 9.1 C 72 %
240 10-12-2019 15:51:17 9.1 C 72 %
241 10-12-2019 16:01:17 9.1 C 72 %
242 10-12-2019 16:11:17 9.1 C 72 %
243 10-12-2019 16:21:17 9.1 C 72 %
244 10-12-2019 16:31:17 9.1 C 72 %
245 10-12-2019 16:41:17 9.1 C 72 %
246 10-12-2019 16:51:17 9.1 C 72 %
247 10-12-2019 17:01:17 9.1 C 72 %
248 10-12-2019 17:11:17 9.1 C 72 %
249 10-12-2019 17:21:18 9.1 C 72 %
250 10-12-2019 17:31:17 9 C 72 %
Sensor: Nr:Datum:Temp:Feuchte:
G-T/H 251 10-12-2019 17:41:17 9 C 71 %
252 10-12-2019 17:51:17 9 C 71 %
253 10-12-2019 18:01:17 9 C 71 %
254 10-12-2019 18:11:17 9 C 71 %
255 10-12-2019 18:21:17 9 C 71 %
256 10-12-2019 18:31:17 8.9 C 72 %
257 10-12-2019 18:41:17 9 C 71 %
258 10-12-2019 18:51:17 8.9 C 72 %
259 10-12-2019 19:01:17 8.9 C 72 %
260 10-12-2019 19:11:17 8.9 C 72 %
261 10-12-2019 19:21:17 8.9 C 72 %
262 10-12-2019 19:31:17 9 C 71 %
263 10-12-2019 19:41:18 8.9 C 72 %
264 10-12-2019 19:51:17 8.9 C 72 %
265 10-12-2019 20:01:17 8.9 C 72 %
266 10-12-2019 20:11:17 8.9 C 72 %
267 10-12-2019 20:21:17 8.9 C 72 %
268 10-12-2019 20:31:18 8.9 C 72 %
269 10-12-2019 20:41:18 8.9 C 72 %
270 10-12-2019 20:51:17 8.9 C 72 %
271 10-12-2019 21:01:17 8.9 C 72 %
272 10-12-2019 21:11:17 8.9 C 72 %
273 10-12-2019 21:21:17 8.9 C 72 %
274 10-12-2019 21:31:17 8.9 C 72 %
275 10-12-2019 21:41:18 8.9 C 72 %
Sensor: Nr:Datum:Temp:Feuchte:
G-T/H 276 10-12-2019 21:51:17 8.9 C 72 %
277 10-12-2019 22:01:17 8.8 C 72 %
278 10-12-2019 22:11:17 8.8 C 72 %
279 10-12-2019 22:21:17 8.9 C 72 %
280 10-12-2019 22:31:17 8.8 C 72 %
281 10-12-2019 22:41:17 8.8 C 72 %
282 10-12-2019 22:51:18 8.8 C 72 %
283 10-12-2019 23:01:17 8.8 C 72 %
284 10-12-2019 23:11:17 8.8 C 72 %
285 10-12-2019 23:21:17 8.8 C 73 %
286 10-12-2019 23:31:17 8.8 C 73 %
287 10-12-2019 23:41:17 8.8 C 73 %
288 10-12-2019 23:51:17 8.8 C 73 %
289 11-12-2019 00:01:18 8.8 C 73 %
290 11-12-2019 00:11:18 8.8 C 73 %
291 11-12-2019 00:21:17 8.8 C 73 %
292 11-12-2019 00:31:17 8.8 C 73 %
293 11-12-2019 00:41:17 8.8 C 73 %
294 11-12-2019 00:51:17 8.8 C 73 %
295 11-12-2019 01:01:17 8.8 C 73 %
296 11-12-2019 01:11:17 8.8 C 73 %
297 11-12-2019 01:21:18 8.8 C 73 %
298 11-12-2019 01:31:17 8.8 C 73 %
299 11-12-2019 01:41:17 8.8 C 73 %
300 11-12-2019 01:51:17 8.8 C 73 %
Sensor: Nr:Datum:Temp:Feuchte:
G-T/H 301 11-12-2019 02:01:17 8.8 C 73 %
302 11-12-2019 02:11:17 8.8 C 73 %
303 11-12-2019 02:21:17 8.8 C 73 %
304 11-12-2019 02:31:18 8.8 C 73 %
305 11-12-2019 02:41:18 8.8 C 73 %
306 11-12-2019 02:51:17 8.8 C 73 %
307 11-12-2019 03:01:18 8.8 C 73 %
308 11-12-2019 03:11:18 8.8 C 73 %
309 11-12-2019 03:21:17 8.8 C 73 %
310 11-12-2019 03:31:17 8.8 C 73 %
311 11-12-2019 03:41:17 8.7 C 73 %
312 11-12-2019 03:51:17 8.8 C 73 %
313 11-12-2019 04:01:17 8.7 C 73 %
314 11-12-2019 04:11:17 8.7 C 73 %
315 11-12-2019 04:21:17 8.8 C 73 %
316 11-12-2019 04:31:18 8.7 C 73 %
317 11-12-2019 04:41:18 8.8 C 73 %
318 11-12-2019 04:51:17 8.8 C 73 %
319 11-12-2019 05:01:17 8.8 C 73 %
320 11-12-2019 05:11:17 8.7 C 73 %
321 11-12-2019 05:21:18 8.8 C 73 %
322 11-12-2019 05:31:17 8.8 C 73 %
323 11-12-2019 05:41:17 8.7 C 73 %
324 11-12-2019 05:51:17 8.7 C 73 %
325 11-12-2019 06:01:18 8.8 C 73 %
Sensor: Nr:Datum:Temp:Feuchte:
G-T/H 326 11-12-2019 06:11:18 8.7 C 73 %
327 11-12-2019 06:21:17 8.7 C 73 %
328 11-12-2019 06:31:17 8.7 C 73 %
329 11-12-2019 06:41:17 8.7 C 73 %
330 11-12-2019 06:51:17 8.7 C 73 %
331 11-12-2019 07:01:17 8.7 C 73 %
332 11-12-2019 07:11:17 8.7 C 73 %
333 11-12-2019 07:21:17 8.7 C 73 %
334 11-12-2019 07:31:17 8.7 C 73 %
335 11-12-2019 07:41:18 8.7 C 73 %
336 11-12-2019 07:51:17 8.7 C 73 %
337 11-12-2019 08:01:17 8.7 C 73 %
338 11-12-2019 08:11:17 8.7 C 73 %
339 11-12-2019 08:21:17 8.7 C 73 %
340 11-12-2019 08:31:18 8.7 C 73 %
341 11-12-2019 08:41:18 8.7 C 73 %
342 11-12-2019 08:51:17 8.7 C 73 %
343 11-12-2019 09:01:18 8.7 C 73 %
344 11-12-2019 09:11:18 8.7 C 73 %
345 11-12-2019 09:21:17 8.7 C 73 %
346 11-12-2019 09:31:17 8.8 C 73 %
347 11-12-2019 09:41:17 8.8 C 73 %
348 11-12-2019 09:51:17 8.7 C 73 %
349 11-12-2019 10:01:17 8.8 C 73 %
350 11-12-2019 10:11:17 8.7 C 73 %
Sensor: Nr:Datum:Temp:Feuchte:
G-T/H 351 11-12-2019 10:21:17 8.7 C 73 %
352 11-12-2019 10:31:17 8.7 C 73 %
353 11-12-2019 10:41:17 8.8 C 73 %
354 11-12-2019 10:51:17 8.7 C 73 %
355 11-12-2019 11:01:17 8.7 C 73 %
356 11-12-2019 11:11:17 8.7 C 73 %
357 11-12-2019 11:21:17 8.7 C 73 %
358 11-12-2019 11:31:17 8.7 C 73 %
359 11-12-2019 11:41:17 8.8 C 73 %
360 11-12-2019 11:51:17 8.7 C 73 %
361 11-12-2019 12:01:18 8.7 C 73 %
362 11-12-2019 12:11:18 8.7 C 73 %
363 11-12-2019 12:21:17 8.7 C 73 %
364 11-12-2019 12:31:17 8.7 C 73 %
365 11-12-2019 12:41:17 8.7 C 73 %
366 11-12-2019 12:51:17 8.7 C 73 %
367 11-12-2019 13:01:18 8.7 C 73 %
368 11-12-2019 13:11:18 8.7 C 73 %
369 11-12-2019 13:21:17 8.7 C 73 %
370 11-12-2019 13:31:17 8.7 C 73 %
371 11-12-2019 13:41:17 8.7 C 73 %
372 11-12-2019 13:51:17 8.7 C 73 %
373 11-12-2019 14:01:17 8.7 C 73 %
374 11-12-2019 14:11:18 8.7 C 73 %
375 11-12-2019 14:21:17 8.7 C 73 %
Sensor: Nr:Datum:Temp:Feuchte:
G-T/H 376 11-12-2019 14:31:17 8.7 C 73 %
377 11-12-2019 14:41:17 8.7 C 73 %
378 11-12-2019 14:51:17 8.7 C 73 %
379 11-12-2019 15:01:17 8.7 C 73 %
380 11-12-2019 15:11:17 8.7 C 73 %
381 11-12-2019 15:21:17 8.7 C 73 %
382 11-12-2019 15:31:18 8.7 C 73 %
383 11-12-2019 15:41:18 8.7 C 73 %
384 11-12-2019 15:51:17 8.7 C 73 %
385 11-12-2019 16:01:17 8.7 C 73 %
386 11-12-2019 16:11:17 8.7 C 73 %
387 11-12-2019 16:21:17 8.7 C 73 %
388 11-12-2019 16:31:17 8.7 C 73 %
389 11-12-2019 16:41:17 8.7 C 73 %
390 11-12-2019 16:51:17 8.7 C 73 %
391 11-12-2019 17:01:17 8.7 C 73 %
392 11-12-2019 17:11:17 8.7 C 73 %
393 11-12-2019 17:21:17 8.8 C 73 %
394 11-12-2019 17:31:17 8.7 C 73 %
395 11-12-2019 17:41:17 8.7 C 73 %
396 11-12-2019 17:51:18 8.7 C 73 %
397 11-12-2019 18:01:17 8.7 C 73 %
398 11-12-2019 18:11:17 8.7 C 73 %
399 11-12-2019 18:21:17 8.7 C 73 %
400 11-12-2019 18:31:18 8.7 C 73 %
Sensor: Nr:Datum:Temp:Feuchte:
G-T/H 401 11-12-2019 18:41:18 8.8 C 73 %
402 11-12-2019 18:51:17 8.8 C 73 %
403 11-12-2019 19:01:17 8.8 C 73 %
404 11-12-2019 19:11:17 8.8 C 73 %
405 11-12-2019 19:21:18 8.8 C 73 %
406 11-12-2019 19:31:17 8.8 C 73 %
407 11-12-2019 19:41:17 8.8 C 73 %
408 11-12-2019 19:51:18 8.8 C 73 %
409 11-12-2019 20:01:17 8.8 C 73 %
410 11-12-2019 20:11:17 8.8 C 73 %
411 11-12-2019 20:21:17 8.9 C 73 %
412 11-12-2019 20:31:18 8.8 C 73 %
413 11-12-2019 20:41:18 8.8 C 73 %
414 11-12-2019 20:51:17 8.8 C 73 %
415 11-12-2019 21:01:17 8.8 C 74 %
416 11-12-2019 21:11:17 8.9 C 74 %
417 11-12-2019 21:21:17 8.9 C 74 %
418 11-12-2019 21:31:17 8.9 C 74 %
419 11-12-2019 21:41:17 8.8 C 74 %
420 11-12-2019 21:51:17 8.9 C 74 %
421 11-12-2019 22:01:17 8.8 C 74 %
422 11-12-2019 22:11:17 8.9 C 74 %
423 11-12-2019 22:21:17 8.9 C 74 %
424 11-12-2019 22:31:17 8.9 C 74 %
425 11-12-2019 22:41:17 8.8 C 74 %
Sensor: Nr:Datum:Temp:Feuchte:
G-T/H 426 11-12-2019 22:51:18 8.9 C 74 %
427 11-12-2019 23:01:17 8.9 C 74 %
428 11-12-2019 23:11:17 8.9 C 74 %
429 11-12-2019 23:21:17 8.8 C 74 %
430 11-12-2019 23:31:17 8.9 C 74 %
431 11-12-2019 23:41:17 8.9 C 74 %
432 11-12-2019 23:51:18 8.9 C 74 %
433 12-12-2019 00:01:17 8.9 C 74 %
434 12-12-2019 00:11:17 8.8 C 74 %
435 12-12-2019 00:21:17 8.8 C 74 %
436 12-12-2019 00:31:17 8.8 C 74 %
437 12-12-2019 00:41:17 8.9 C 74 %
438 12-12-2019 00:51:17 8.9 C 74 %
439 12-12-2019 01:01:17 8.8 C 74 %
440 12-12-2019 01:11:17 8.8 C 74 %
441 12-12-2019 01:21:18 8.8 C 74 %
442 12-12-2019 01:31:17 8.8 C 74 %
443 12-12-2019 01:41:17 8.8 C 74 %
444 12-12-2019 01:51:18 8.8 C 74 %
445 12-12-2019 02:01:17 8.8 C 74 %
446 12-12-2019 02:11:17 8.8 C 74 %
447 12-12-2019 02:21:17 8.8 C 74 %
448 12-12-2019 02:31:18 8.8 C 73 %
449 12-12-2019 02:41:18 8.8 C 73 %
450 12-12-2019 02:51:17 8.8 C 73 %
Sensor: Nr:Datum:Temp:Feuchte:
G-T/H 451 12-12-2019 03:01:17 8.8 C 73 %
452 12-12-2019 03:11:17 8.8 C 73 %
453 12-12-2019 03:21:17 8.8 C 73 %
454 12-12-2019 03:31:17 8.8 C 73 %
455 12-12-2019 03:41:17 8.8 C 73 %
456 12-12-2019 03:51:17 8.8 C 73 %
457 12-12-2019 04:01:17 8.8 C 73 %
458 12-12-2019 04:11:17 8.8 C 73 %
459 12-12-2019 04:21:17 8.8 C 73 %
460 12-12-2019 04:31:17 8.8 C 73 %
461 12-12-2019 04:41:17 8.8 C 73 %
462 12-12-2019 04:51:17 8.8 C 73 %
463 12-12-2019 05:01:17 8.8 C 73 %
464 12-12-2019 05:11:17 8.8 C 73 %
465 12-12-2019 05:21:17 8.8 C 73 %
466 12-12-2019 05:31:18 8.8 C 73 %
467 12-12-2019 05:41:18 8.8 C 73 %
468 12-12-2019 05:51:17 8.7 C 73 %
469 12-12-2019 06:01:17 8.7 C 73 %
470 12-12-2019 06:11:17 8.7 C 73 %
471 12-12-2019 06:21:17 8.7 C 73 %
472 12-12-2019 06:31:17 8.7 C 73 %
473 12-12-2019 06:41:17 8.7 C 73 %
474 12-12-2019 06:51:17 8.7 C 73 %
475 12-12-2019 07:01:17 8.7 C 73 %
Sensor: Nr:Datum:Temp:Feuchte:
G-T/H 476 12-12-2019 07:11:17 8.7 C 73 %
477 12-12-2019 07:21:17 8.7 C 73 %
478 12-12-2019 07:31:17 8.7 C 73 %
479 12-12-2019 07:41:17 8.7 C 73 %
480 12-12-2019 07:51:17 8.7 C 73 %
481 12-12-2019 08:01:17 8.7 C 73 %
482 12-12-2019 08:11:17 8.7 C 73 %
483 12-12-2019 08:21:17 8.7 C 74 %
484 12-12-2019 08:31:18 8.7 C 74 %
485 12-12-2019 08:41:18 8.7 C 74 %
486 12-12-2019 08:51:17 8.7 C 74 %
487 12-12-2019 09:01:18 8.7 C 74 %
488 12-12-2019 09:11:18 8.7 C 74 %
489 12-12-2019 09:21:17 8.7 C 74 %
490 12-12-2019 09:31:17 8.7 C 74 %
491 12-12-2019 09:41:17 8.7 C 74 %
492 12-12-2019 09:51:17 8.7 C 74 %
493 12-12-2019 10:01:17 8.7 C 74 %
494 12-12-2019 10:11:17 8.7 C 74 %
495 12-12-2019 10:21:18 8.7 C 74 %
496 12-12-2019 10:31:17 8.7 C 74 %
497 12-12-2019 10:41:17 8.7 C 74 %
498 12-12-2019 10:51:17 8.7 C 74 %
499 12-12-2019 11:01:18 8.7 C 74 %
500 12-12-2019 11:11:18 8.7 C 74 %
Sensor: Nr:Datum:Temp:Feuchte:
G-T/H 501 12-12-2019 11:21:17 8.7 C 74 %
502 12-12-2019 11:31:17 8.7 C 74 %
503 12-12-2019 11:41:17 8.8 C 74 %
504 12-12-2019 11:51:18 8.7 C 74 %
505 12-12-2019 12:01:17 8.7 C 74 %
506 12-12-2019 12:11:17 8.8 C 74 %
507 12-12-2019 12:21:17 8.7 C 74 %
508 12-12-2019 1